[[{"header":{"parameterUnit":"m.s-1","parameterCategory":1,"la1":31.0,"la2":29.5877,"lo1":-88.7671,"lo2":-86.6584,"dy":0.0162,"dx":0.0185,"nx":115,"ny":88,"refTime":"2026-02-20T12:00:00:Z","depth":0,"parameterNumber":2,"parameterNumberName":"U-component_of_WINDS"},"data":[0.0,0.0,0.0,0.0,0.0,0.0,0.0,0.0,0.0,0.0,0.0,0.0,0.0,0.0,0.0,0.0,0.0,0.0,0.0,0.0,0.0,0.0,0.0,0.0,0.0,0.0,0.0,0.0,0.0,0.0,0.0,0.0,0.0,0.0,0.0,0.0,0.0,0.0,0.0,0.0,0.0,0.0,0.0,0.0,0.0,0.0,0.0,0.0,0.0,0.0,0.0,0.0,0.0,0.0,0.0,0.0,0.0,0.0,0.0,0.0,0.0,0.0,0.0,0.0,0.0,0.0,0.0,0.0,0.0,0.0,0.0,0.0,0.0,0.0,0.0,0.0,0.0,0.0,0.0,0.0,0.0,0.0,0.0,0.0,0.0,0.0,0.0,0.0,0.0,0.0,0.0,0.0,0.0,0.0,0.0,0.0,0.0,0.0,0.0,0.0,0.0,0.0,0.0,0.0,0.0,0.0,0.0,0.0,0.0,0.0,0.0,0.0,0.0,0.0,0.0,0.0,0.0,0.0,0.0,0.0,0.0,0.0,0.0,0.0,0.0,0.0,0.0,0.0,0.0,0.0,0.0,0.0,0.0,0.0,0.0,0.0,0.0,0.0,0.0,0.0,0.0,0.0,0.0,0.0,0.0,0.0,0.0,0.0,0.0,0.0,0.0,0.0,0.0,0.0,0.0,0.0,0.0,0.0,0.0,0.0,0.0,0.0,0.0,0.0,0.0,0.0,0.0,0.0,0.0,0.0,0.0,0.0,0.0,0.0,0.0,0.0,0.0,0.0,0.0,0.0,0.0,0.0,0.0,0.0,0.0,0.0,0.0,0.0,0.0,0.0,0.0,0.0,0.0,0.0,0.0,0.0,0.0,0.0,0.0,0.0,0.0,0.0,0.0,0.0,0.0,0.0,0.0,0.0,0.0,0.0,0.0,0.0,0.0,0.0,0.0,0.0,0.0,0.0,0.0,0.0,0.0,0.0,0.0,0.0,0.0,0.0,0.0,0.0,0.0,0.0,0.0,0.0,0.0,0.0,0.0,0.0,0.0,0.0,0.0,0.0,0.0,0.0,0.0,0.0,0.0,0.0,0.0,0.0,0.0,0.0,0.0,0.0,0.0,0.0,0.0,0.0,0.0,0.0,0.0,0.0,0.0,0.0,0.0,0.0,0.0,0.0,0.0,0.0,0.0,0.0,0.0,0.0,0.0,0.0,0.0,0.0,0.0,0.0,0.0,0.0,0.0,0.0,0.0,0.0,0.0,0.0,0.0,0.0,0.0,0.0,0.0,0.0,0.0,0.0,0.0,0.0,0.0,0.0,0.0,0.0,0.0,0.0,0.0,0.0,0.0,0.0,0.0,0.0,0.0,0.0,0.0,0.0,0.0,0.0,0.0,0.0,0.0,0.0,0.0,0.0,0.0,0.0,0.0,0.0,0.0,0.0,0.0,0.0,0.0,0.0,0.0,0.0,0.0,0.0,0.0,0.0,0.0,0.0,0.0,0.0,0.0,0.0,0.0,0.0,0.0,0.0,0.0,0.0,0.0,0.0,0.0,0.0,0.0,0.0,0.0,0.0,0.0,0.0,0.0,0.0,0.0,0.0,0.0,0.0,0.0,0.0,0.0,0.0,0.0,0.0,0.0,0.0,0.0,0.0,0.0,0.0,0.0,0.0,0.0,0.0,0.0,0.0,0.0,0.0,0.0,0.0,0.0,0.0,0.0,0.0,0.0,0.0,0.0,0.0,0.0,0.0,0.0,0.0,0.0,0.0,0.0,0.0,0.0,0.0,0.0,0.0,0.0,0.0,0.0,0.0,0.0,0.0,0.0,0.0,0.0,0.0,0.0,0.0,0.0,0.0,0.0,0.0,0.0,0.0,0.0,0.0,0.0,0.0,0.0,0.0,0.0,0.0,0.0,0.0,0.0,0.0,0.0,0.0,0.0,0.0,0.0,0.0,0.0,0.0,0.0,0.0,0.0,0.0,0.0,0.0,0.0,0.0,0.0,0.0,0.0,0.0,0.0,0.0,0.0,0.0,0.0,0.0,0.0,0.0,0.0,0.0,0.0,0.0,0.0,0.0,0.0,0.0,0.0,0.0,0.0,0.0,0.0,0.0,0.0,0.0,0.0,0.0,0.0,0.0,0.0,0.0,0.0,0.0,0.0,0.0,0.0,0.0,0.0,0.0,0.0,0.0,0.0,0.0,0.0,0.0,0.0,0.0,0.0,0.0,0.0,0.0,0.0,0.0,0.0,0.0,0.0,0.0,0.0,0.0,0.0,0.0,0.0,0.0,0.0,0.0,0.0,0.0,0.0,0.0,0.0,0.0,0.0,0.0,0.0,0.0,0.0,0.0,0.0,0.0,0.0,0.0,0.0,0.0,0.0,0.0,0.0,0.0,0.0,0.0,0.0,0.0,0.0,0.0,0.0,0.0,0.0,0.0,0.0,0.0,0.0,0.0,0.0,0.0,0.0,0.0,0.0,0.0,0.0,0.0,0.0,0.0,0.0,0.0,0.0,0.0,0.0,0.0,0.0,0.0,0.0,0.0,0.0,0.0,0.0,0.0,0.0,0.0,0.0,0.0,0.0,0.0,0.0,0.0,0.0,0.0,0.0,0.0,0.0,0.0,0.0,0.0,0.0,0.0,0.0,0.0,0.0,0.0,0.0,0.0,0.0,0.0,0.0,0.0,0.0,0.0,0.0,0.0,0.0,0.0,0.0,0.0,0.0,0.0,0.0,0.0,0.0,0.0,0.0,0.0,0.0,0.0,0.0,0.0,0.0,0.0,0.0,0.0,0.0,0.0,0.0,0.0,0.0,0.0,0.0,0.0,0.0,0.0,0.0,0.0,0.0,0.0,0.0,0.0,0.0,0.0,0.0,0.0,0.0,0.0,0.0,0.0,0.0,0.0,0.0,0.0,0.0,0.0,0.0,0.0,0.0,0.0,0.0,0.0,0.0,0.0,0.0,0.0,0.0,0.0,0.0,0.0,0.0,0.0,0.0,0.0,0.0,0.0,0.0,0.0,0.0,0.0,0.0,0.0,0.0,0.0,0.0,0.0,0.0,0.0,0.0,0.0,0.0,0.0,0.0,0.0,0.0,0.0,0.0,0.0,0.0,0.0,0.0,0.0,0.0,0.0,0.0,0.0,0.0,0.0,0.0,0.0,0.0,0.0,0.0,0.0,0.0,0.0,0.0,0.0,0.0,0.0,0.0,0.0,0.0,0.0,0.0,0.0,0.0,0.0,0.0,0.0,0.0,0.0,0.0,0.0,0.0,0.0,0.0,0.0,0.0,0.0,0.0,0.0,0.0,0.0,0.0,0.0,0.0,0.0,0.0,0.0,0.0,0.0,0.0,0.0,0.0,0.0,0.0,0.0,0.0,0.0,0.0,0.0,0.0,0.0,0.0,0.0,0.0,0.0,0.0,0.0,0.0,0.0,0.0,0.0,0.0,0.0,0.0,0.0,0.0,0.0,0.0,0.0,0.0,0.0,0.0,0.0,0.0,0.0,0.0,0.0,0.0,0.0,0.0,0.0,0.0,0.0,0.0,0.0,0.0,0.0,0.0,0.0,0.0,0.0,0.0,0.0,0.0,0.0,0.0,0.0,0.0,0.0,0.0,0.0,0.0,0.0,0.0,0.0,0.0,0.0,0.0,0.0,0.0,0.0,0.0,0.0,0.0,0.0,0.0,0.0,0.0,0.0,0.0,0.0,0.0,0.0,0.0,0.0,0.0,0.0,0.0,0.0,0.0,0.0,0.0,0.0,0.0,0.0,0.0,0.0,0.0,0.0,0.0,0.0,0.0,0.0,0.0,0.0,0.0,0.0,0.0,0.0,0.0,0.0,0.0,0.0,0.0,0.0,0.0,0.0,0.0,0.0,0.0,0.0,0.0,0.0,0.0,0.0,0.0,0.0,0.0,0.0,0.0,0.0,0.0,0.0,0.0,0.0,0.0,0.0,0.0,0.0,0.0,0.0,0.0,0.0,0.0,0.0,0.0,0.0,0.0,0.0,0.0,0.0,0.0,0.0,0.0,0.0,0.0,0.0,0.0,0.0,0.0,0.0,0.0,0.0,0.0,0.0,0.0,0.0,0.0,0.0,0.0,0.0,0.0,0.0,0.0,0.0,0.0,0.0,0.0,0.0,0.0,0.0,0.0,0.0,0.0,0.0,0.0,0.0,0.0,0.0,0.0,0.0,0.0,0.0,0.0,0.0,0.0,0.0,0.0,0.0,0.0,0.0,0.0,0.0,0.0,0.0,0.0,0.0,1.3817,0.0,0.0,0.0,0.0,0.0,0.0,0.0,0.0,0.0,0.0,0.0,0.0,0.0,0.0,0.0,0.0,0.0,0.0,0.0,0.0,0.0,0.0,0.0,0.0,0.0,0.0,0.0,0.0,0.0,0.0,0.0,0.0,0.0,0.0,0.0,0.0,0.0,0.0,0.0,0.0,0.0,0.0,0.0,0.0,0.0,0.0,0.0,0.0,0.0,0.0,0.0,0.0,0.0,0.0,0.0,0.0,0.0,0.0,0.0,0.0,0.0,0.0,0.0,0.0,0.0,0.0,0.0,0.0,0.0,0.0,0.0,0.0,0.0,0.0,0.0,0.0,0.0,0.0,0.0,0.0,0.0,0.0,0.0,0.0,0.0,0.0,0.0,0.0,0.0,0.0,0.0,0.0,0.0,0.0,0.0,0.0,0.0,0.0,0.0,0.0,0.0,0.0,0.0,0.0,0.0,0.0,0.0,0.0,0.0,0.0,1.5065,1.5113,1.5113,1.4921,1.4523,0.0,0.0,0.0,0.0,0.0,0.0,0.0,0.0,0.0,0.0,0.0,0.0,0.0,0.0,0.0,0.0,0.0,0.0,0.0,0.0,0.0,0.0,0.0,0.0,0.0,0.0,0.0,0.0,0.0,0.0,0.0,0.0,0.0,0.0,0.0,0.0,0.0,0.0,0.0,0.0,0.0,0.0,0.0,0.0,0.0,0.0,0.0,0.0,0.0,0.0,0.0,0.0,0.0,0.0,0.0,0.0,0.0,0.0,0.0,0.0,0.0,0.0,0.0,0.0,0.0,0.0,0.0,0.0,0.0,0.0,0.0,0.0,0.0,0.0,0.0,0.0,0.0,0.0,0.0,0.0,0.0,0.0,0.0,0.0,0.0,0.0,0.0,0.0,0.0,0.0,0.0,0.0,0.0,0.0,0.0,0.0,0.0,0.0,0.0,0.0,0.0,0.0,0.0,0.0,0.0,0.0,0.0,0.0,0.0,0.0,0.0,0.0,1.5384,1.5366,1.5369,0.0,0.0,0.0,0.0,0.0,0.0,0.0,0.0,0.0,0.0,0.0,0.0,0.0,0.0,0.0,0.0,0.0,0.0,0.0,0.0,0.0,0.0,0.0,0.0,0.0,0.0,0.0,0.0,0.0,0.0,0.0,0.0,0.0,0.0,0.0,0.0,0.0,0.0,0.0,0.0,0.0,0.0,0.0,0.0,0.0,0.0,0.0,0.0,0.0,0.0,0.0,0.0,0.0,0.0,0.0,0.0,0.0,0.0,0.0,0.0,0.0,0.0,0.0,0.0,0.0,0.0,0.0,0.0,0.0,0.0,0.0,0.0,0.0,0.0,0.0,0.0,0.0,0.0,0.0,0.0,0.0,0.0,0.0,0.0,0.0,0.0,0.0,0.0,0.0,0.0,0.0,0.0,0.0,0.0,0.0,0.0,0.0,0.0,0.0,0.0,0.0,0.0,0.0,0.0,0.0,0.0,0.0,0.0,0.0,0.0,1.5382,1.6152,1.6195,0.0,1.6193,0.0,0.0,0.0,0.0,0.0,0.0,0.0,0.0,0.0,0.0,0.0,0.0,0.0,0.0,0.0,0.0,0.0,0.0,0.0,0.0,0.0,0.0,0.0,0.0,0.0,0.0,0.0,0.0,0.0,0.0,0.0,0.0,0.0,0.0,0.0,0.0,0.0,0.0,0.0,0.0,0.0,0.0,0.0,0.0,0.0,0.0,0.0,0.0,0.0,0.0,0.0,0.0,0.0,0.0,0.0,0.0,0.0,0.0,0.0,0.0,0.0,0.0,0.0,0.0,0.0,0.0,0.0,0.0,0.0,0.0,0.0,0.0,0.0,0.0,0.0,0.0,0.0,0.0,0.0,0.0,0.0,0.0,0.0,0.0,0.0,0.0,0.0,0.0,0.0,0.0,0.0,0.0,0.0,0.0,0.0,0.0,0.0,0.0,0.0,0.0,0.0,0.0,0.0,0.0,0.0,0.0,0.0,0.0,0.0,0.0,0.0,1.6294,1.6332,1.6364,0.0,0.0,0.0,0.0,0.0,0.0,0.0,0.0,0.0,0.0,0.0,0.0,0.0,0.0,0.0,0.0,0.0,0.0,0.0,0.0,0.0,0.0,0.0,0.0,0.0,0.0,0.0,0.0,0.0,0.0,0.0,0.0,0.0,0.0,0.0,0.0,0.0,0.0,0.0,0.0,0.0,0.0,0.0,0.0,0.0,0.0,0.0,0.0,0.0,0.0,0.0,0.0,0.0,0.0,0.0,0.0,0.0,0.0,0.0,0.0,0.0,0.0,0.0,0.0,0.0,0.0,0.0,0.0,0.0,0.0,0.0,0.0,0.0,0.0,0.0,0.0,0.0,0.0,0.0,0.0,0.0,0.0,0.0,0.0,0.0,0.0,0.0,0.0,0.0,0.0,0.0,0.0,0.0,0.0,0.0,0.0,0.0,0.0,0.0,0.0,0.0,0.0,0.0,0.0,0.0,0.0,0.0,0.0,0.0,0.0,1.5999,0.0,1.6608,1.6693,1.6628,1.6378,0.0,0.0,0.0,0.0,0.0,0.0,0.0,0.0,0.0,0.0,0.0,0.0,0.0,0.0,0.0,0.0,0.0,0.0,0.0,0.0,0.0,0.0,0.0,0.0,0.0,0.0,0.0,0.0,0.0,0.0,0.0,0.0,0.0,0.0,0.0,0.0,0.0,0.0,0.0,0.0,0.0,0.0,0.0,0.0,0.0,0.0,0.0,0.0,0.0,0.0,0.0,0.0,0.0,0.0,0.0,0.0,0.0,0.0,0.0,0.0,0.0,0.0,0.0,0.0,0.0,0.0,0.0,0.0,0.0,0.0,0.0,0.0,0.0,0.0,0.0,0.0,0.0,0.0,0.0,0.0,0.0,0.0,0.0,0.0,0.0,0.0,0.0,0.0,0.0,0.0,0.0,0.0,0.0,0.0,0.0,0.0,0.0,0.0,0.0,0.0,0.0,0.0,0.0,0.0,0.0,0.0,0.0,0.0,0.0,1.6547,1.66,1.7404,1.7518,1.7157,0.0,0.0,0.0,0.0,0.0,0.0,0.0,0.0,0.0,0.0,0.0,0.0,0.0,0.0,0.0,0.0,0.0,0.0,0.0,0.0,0.0,0.0,0.0,0.0,0.0,0.0,0.0,0.0,0.0,0.0,0.0,0.0,0.0,0.0,0.0,0.0,0.0,0.0,0.0,0.0,0.0,0.0,0.0,0.0,0.0,0.0,0.0,0.0,0.0,0.0,0.0,0.0,0.0,0.0,0.0,0.0,0.0,0.0,0.0,0.0,0.0,0.0,0.0,0.0,0.0,0.0,0.0,0.0,0.0,0.0,0.0,0.0,0.0,0.0,0.0,0.0,0.0,0.0,0.0,0.0,0.0,0.0,0.0,0.0,0.0,0.0,0.0,0.0,0.0,0.0,0.0,0.0,0.0,0.0,0.0,0.0,0.0,0.0,0.0,0.0,0.0,0.0,0.0,0.0,0.0,0.0,0.0,0.0,0.0,1.5777,1.61,1.6941,0.0,1.7388,1.6915,0.0,0.0,0.0,0.0,0.0,0.0,0.0,0.0,0.0,0.0,0.0,0.0,0.0,0.0,0.0,0.0,0.0,0.0,0.0,0.0,0.0,0.0,0.0,0.0,0.0,0.0,0.0,0.0,0.0,0.0,0.0,0.0,0.0,0.0,0.0,0.0,0.0,0.0,0.0,0.0,0.0,0.0,0.0,0.0,0.0,0.0,0.0,0.0,0.0,0.0,0.0,0.0,0.0,0.0,0.0,0.0,0.0,0.0,0.0,0.0,0.0,0.0,0.0,0.0,0.0,0.0,0.0,0.0,0.0,0.0,0.0,0.0,0.0,0.0,0.0,0.0,0.0,0.0,0.0,0.0,0.0,0.0,0.0,0.0,0.0,0.0,0.0,0.0,0.0,0.0,0.0,0.0,0.0,0.0,0.0,0.0,0.0,0.0,0.0,0.0,0.0,0.0,0.0,0.0,0.0,0.0,0.0,0.0,0.0,1.5747,0.0,1.7591,0.0,1.7384,1.6794,0.0,0.0,0.0,0.0,0.0,0.0,0.0,0.0,0.0,0.0,0.0,0.0,0.0,0.0,0.0,0.0,0.0,0.0,0.0,0.0,0.0,0.0,0.0,0.0,0.0,0.0,0.0,0.0,0.0,0.0,0.0,0.0,0.0,0.0,0.0,0.0,0.0,0.0,0.0,0.0,0.0,0.0,0.0,0.0,0.0,0.0,0.0,0.0,0.0,0.0,0.0,0.0,0.0,0.0,0.0,0.0,0.0,0.0,0.0,0.0,0.0,0.0,0.0,0.0,0.0,0.0,0.0,0.0,0.0,0.0,0.0,0.0,0.0,0.0,0.0,0.0,0.0,0.0,0.0,0.0,0.0,0.0,0.0,0.0,0.0,0.0,0.0,0.0,0.0,0.0,0.0,0.0,0.0,0.0,0.0,0.0,0.0,0.0,0.0,0.0,0.0,0.0,0.0,0.0,0.0,0.0,0.0,0.0,0.0,1.7427,1.8372,1.8492,1.77,1.764,1.6837,0.0,0.0,0.0,0.0,0.0,0.0,0.0,0.0,0.0,0.0,0.0,0.0,0.0,0.0,0.0,0.0,0.0,0.0,0.0,0.0,0.0,0.0,0.0,0.0,0.0,0.0,0.0,0.0,0.0,0.0,0.0,0.0,0.0,0.0,0.0,0.0,0.0,0.0,0.0,0.0,0.0,0.0,0.0,0.0,0.0,0.0,0.0,0.0,0.0,0.0,0.0,0.0,0.0,0.0,0.0,0.0,0.0,0.0,0.0,0.0,0.0,0.0,0.0,0.0,0.0,0.0,0.0,0.0,0.0,0.0,0.0,0.0,0.0,0.0,0.0,0.0,0.0,0.0,0.0,0.0,0.0,0.0,0.0,0.0,0.0,0.0,0.0,0.0,0.0,0.0,0.0,0.0,0.0,0.0,0.0,0.0,0.0,0.0,0.0,0.0,0.0,0.0,0.0,0.0,0.0,0.0,0.0,0.0,0.0,1.8271,1.8633,1.9277,2.0125,1.8499,1.7906,0.0,0.0,0.0,0.0,0.0,0.0,0.0,0.0,0.0,0.0,0.0,0.0,0.0,0.0,0.0,0.0,0.0,0.0,0.0,0.0,0.0,0.0,0.0,0.0,0.0,0.0,0.0,0.0,0.0,0.0,0.0,0.0,0.0,0.0,0.0,0.0,0.0,0.0,0.0,0.0,0.0,0.0,0.0,0.0,0.0,0.0,0.0,0.0,0.0,0.0,0.0,0.0,0.0,0.0,0.0,0.0,0.0,0.0,0.0,0.0,0.0,0.0,0.0,0.0,0.0,0.0,0.0,0.0,0.0,0.0,0.0,0.0,0.0,0.0,0.0,0.0,0.0,0.0,0.0,0.0,0.0,0.0,0.0,0.0,0.0,0.0,0.0,0.0,0.0,0.0,0.0,0.0,0.0,0.0,0.0,0.0,0.0,0.0,0.0,0.0,0.0,0.0,0.0,0.0,0.0,0.0,0.0,0.0,0.0,2.0803,2.0432,2.0555,2.1251,1.9428,1.8757,1.9385,0.0,0.0,0.0,0.0,0.0,0.0,0.0,0.0,0.0,0.0,0.0,0.0,0.0,0.0,0.0,0.0,0.0,0.0,0.0,0.0,0.0,0.0,0.0,0.0,0.0,0.0,0.0,0.0,0.0,0.0,0.0,0.0,0.0,0.0,0.0,0.0,0.0,0.0,0.0,0.0,0.0,0.0,0.0,0.0,0.0,0.0,0.0,0.0,0.0,0.0,0.0,0.0,0.0,0.0,0.0,0.0,0.0,0.0,0.0,0.0,0.0,0.0,0.0,0.0,0.0,0.0,0.0,0.0,0.0,0.0,0.0,0.0,0.0,0.0,0.0,0.0,0.0,0.0,0.0,0.0,0.0,0.0,0.0,0.0,0.0,0.0,0.0,0.0,0.0,0.0,0.0,0.0,0.0,0.0,0.0,0.0,0.0,0.0,0.0,0.0,0.0,0.0,0.0,0.0,0.0,0.0,0.0,0.0,2.4631,2.3469,2.2372,2.1447,2.0509,1.9581,0.0,0.0,0.0,0.0,0.0,0.0,0.0,0.0,0.0,0.0,0.0,0.0,0.0,0.0,0.0,0.0,0.0,0.0,0.0,0.0,0.0,0.0,0.0,0.0,0.0,0.0,0.0,0.0,0.0,0.0,0.0,0.0,0.0,0.0,0.0,0.0,0.0,0.0,0.0,0.0,0.0,0.0,0.0,0.0,0.0,0.0,0.0,0.0,0.0,0.0,0.0,0.0,0.0,0.0,0.0,0.0,0.0,0.0,0.0,0.0,0.0,0.0,0.0,0.0,0.0,0.0,0.0,0.0,0.0,0.0,0.0,0.0,0.0,0.0,0.0,0.0,0.0,0.0,0.0,0.0,0.0,0.0,0.0,0.0,0.0,0.0,0.0,0.0,0.0,0.0,0.0,0.0,0.0,0.0,0.0,0.0,0.0,0.0,0.0,0.0,0.0,0.0,0.0,0.0,0.0,0.0,0.0,0.0,0.0,2.5307,2.5635,2.5405,2.456,2.2598,2.1462,0.0,0.0,0.0,0.0,0.0,0.0,0.0,0.0,0.0,0.0,0.0,0.0,0.0,0.0,0.0,0.0,0.0,0.0,0.0,0.0,0.0,0.0,0.0,0.0,0.0,0.0,0.0,0.0,0.0,0.0,0.0,0.0,0.0,0.0,0.0,0.0,0.0,0.0,0.0,0.0,0.0,0.0,0.0,0.0,0.0,0.0,0.0,0.0,0.0,0.0,0.0,0.0,0.0,0.0,0.0,0.0,0.0,0.0,0.0,0.0,0.0,0.0,0.0,0.0,0.0,0.0,0.0,0.0,0.0,0.0,0.0,0.0,0.0,0.0,0.0,0.0,0.0,0.0,0.0,0.0,0.0,0.0,0.0,0.0,0.0,0.0,0.0,0.0,0.0,0.0,0.0,0.0,0.0,0.0,0.0,0.0,0.0,0.0,0.0,0.0,0.0,0.0,0.0,0.0,0.0,0.0,0.0,0.0,2.4331,2.7107,2.7559,2.7544,2.71,2.4798,2.323,0.0,0.0,0.0,0.0,0.0,0.0,0.0,0.0,0.0,0.0,0.0,0.0,0.0,0.0,0.0,0.0,0.0,0.0,0.0,0.0,0.0,0.0,0.0,0.0,0.0,0.0,0.0,0.0,0.0,0.0,0.0,0.0,0.0,0.0,0.0,0.0,0.0,0.0,0.0,0.0,0.0,0.0,0.0,0.0,0.0,0.0,0.0,0.0,0.0,0.0,0.0,0.0,0.0,0.0,0.0,0.0,0.0,0.0,0.0,0.0,0.0,0.0,0.0,0.0,0.0,0.0,0.0,0.0,0.0,0.0,0.0,0.0,0.0,0.0,0.0,0.0,0.0,0.0,0.0,0.0,0.0,0.0,0.0,0.0,0.0,0.0,0.0,0.0,0.0,0.0,0.0,0.0,0.0,0.0,0.0,0.0,0.0,0.0,0.0,0.0,0.0,0.0,0.0,0.0,0.0,0.0,0.0,0.0,2.5203,2.9183,2.918,2.9171,2.9183,2.6969,2.4851,0.0,0.0,0.0,0.0,0.0,0.0,0.0,0.0,0.0,0.0,0.0,0.0,0.0,0.0,0.0,0.0,0.0,0.0,0.0,0.0,0.0,0.0,0.0,0.0,0.0,0.0,0.0,0.0,0.0,0.0,0.0,0.0,0.0,0.0,0.0,0.0,0.0,0.0,0.0,0.0,0.0,0.0,0.0,0.0,0.0,0.0,0.0,0.0,0.0,0.0,0.0,0.0,0.0,0.0,0.0,0.0,0.0,0.0,0.0,0.0,0.0,0.0,0.0,0.0,0.0,0.0,0.0,0.0,0.0,0.0,0.0,0.0,0.0,0.0,0.0,0.0,0.0,0.0,0.0,0.0,0.0,0.0,0.0,0.0,0.0,0.0,0.0,0.0,0.0,0.0,0.0,0.0,0.0,0.0,0.0,0.0,0.0,0.0,0.0,0.0,0.0,0.0,0.0,0.0,0.0,0.0,0.0,0.0,2.6873,2.967,3.027,3.0883,3.1554,2.8753,2.5948,0.0,0.0,0.0,0.0,0.0,0.0,0.0,0.0,0.0,0.0,0.0,0.0,0.0,0.0,0.0,0.0,0.0,0.0,0.0,0.0,0.0,0.0,0.0,0.0,0.0,0.0,0.0,0.0,0.0,0.0,0.0,0.0,0.0,0.0,0.0,0.0,0.0,0.0,0.0,0.0,0.0,0.0,0.0,0.0,0.0,0.0,0.0,0.0,1.9734,0.0,0.0,0.0,0.0,0.0,0.0,0.0,0.0,0.0,0.0,0.0,0.0,0.0,0.0,0.0,0.0,0.0,0.0,0.0,0.0,0.0,0.0,0.0,0.0,0.0,0.0,0.0,0.0,0.0,0.0,0.0,0.0,0.0,0.0,0.0,0.0,0.0,0.0,0.0,0.0,0.0,0.0,0.0,0.0,0.0,0.0,0.0,0.0,0.0,0.0,0.0,0.0,0.0,0.0,0.0,0.0,0.0,0.0,0.0,2.8009,3.0423,3.1266,3.1884,3.2264,3.039,2.7875,0.0,0.0,0.0,0.0,0.0,0.0,0.0,0.0,0.0,0.0,0.0,0.0,0.0,0.0,0.0,0.0,0.0,0.0,0.0,0.0,0.0,0.0,0.0,0.0,0.0,0.0,0.0,0.0,0.0,0.0,0.0,0.0,0.0,0.0,0.0,0.0,0.0,0.0,0.0,0.0,0.0,0.0,0.0,0.0,0.0,0.0,0.0,0.0,0.0,0.0,0.0,0.0,0.0,0.0,0.0,0.0,0.0,0.0,0.0,0.0,0.0,0.0,0.0,0.0,0.0,0.0,0.0,0.0,0.0,0.0,0.0,0.0,0.0,0.0,0.0,0.0,0.0,0.0,0.0,0.0,0.0,0.0,0.0,0.0,0.0,0.0,0.0,0.0,0.0,0.0,0.0,0.0,0.0,0.0,0.0,0.0,0.0,0.0,0.0,0.0,0.0,0.0,0.0,0.0,0.0,0.0,0.0,2.6447,2.8749,3.1243,3.2154,3.2566,3.2533,3.1679,2.9756,0.0,0.0,0.0,0.0,0.0,0.0,0.0,0.0,0.0,0.0,0.0,0.0,0.0,0.0,0.0,0.0,0.0,0.0,0.0,0.0,0.0,0.0,0.0,0.0,0.0,0.0,0.0,0.0,0.0,0.0,0.0,0.0,0.0,0.0,0.0,0.0,0.0,0.0,0.0,1.7235,2.0378,0.0,0.0,0.0,0.0,0.0,0.0,0.0,0.0,2.1565,0.0,0.0,0.0,0.0,0.0,0.0,0.0,0.0,0.0,0.0,0.0,0.0,0.0,0.0,0.0,0.0,0.0,0.0,0.0,0.0,0.0,0.0,0.0,0.0,0.0,0.0,0.0,0.0,0.0,0.0,0.0,0.0,0.0,0.0,0.0,0.0,0.0,0.0,0.0,0.0,0.0,0.0,0.0,0.0,0.0,0.0,0.0,0.0,0.0,0.0,0.0,0.0,0.0,0.0,0.0,0.0,2.675,2.7209,2.8921,3.1965,3.2813,3.3227,3.3212,3.1865,3.0212,2.8241,0.0,0.0,0.0,0.0,0.0,0.0,0.0,0.0,0.0,0.0,0.0,0.0,0.0,0.0,0.0,0.0,0.0,0.0,0.0,0.0,0.0,0.0,0.0,0.0,0.0,0.0,0.0,0.0,0.0,0.0,0.0,0.0,0.0,0.0,0.0,0.0,0.0,0.0,0.0,2.3344,2.4808,0.0,0.0,0.0,0.0,0.0,0.0,0.0,0.0,2.2319,0.0,0.0,0.0,0.0,0.0,0.0,0.0,0.0,0.0,0.0,0.0,0.0,0.0,0.0,0.0,0.0,0.0,0.0,0.0,0.0,0.0,0.0,0.0,0.0,0.0,0.0,0.0,0.0,0.0,0.0,0.0,0.0,0.0,0.0,0.0,0.0,0.0,0.0,0.0,0.0,0.0,0.0,0.0,0.0,0.0,0.0,0.0,0.0,0.0,0.0,0.0,0.0,0.0,0.0,0.0,2.6071,2.8214,3.0227,3.2144,3.2995,3.3393,3.3339,3.1468,2.9871,0.0,0.0,0.0,0.0,0.0,0.0,0.0,0.0,0.0,0.0,0.0,0.0,0.0,0.0,0.0,0.0,0.0,0.0,0.0,0.0,0.0,0.0,0.0,0.0,0.0,0.0,0.0,0.0,0.0,0.0,0.0,0.0,0.0,0.0,0.0,0.0,0.0,0.0,0.0,0.0,2.421,2.5155,2.5642,0.0,0.0,0.0,0.0,0.0,0.0,2.3522,2.2796,0.0,0.0,0.0,0.0,0.0,0.0,0.0,0.0,0.0,0.0,0.0,0.0,0.0,0.0,0.0,0.0,0.0,0.0,0.0,0.0,0.0,0.0,0.0,0.0,0.0,0.0,0.0,0.0,0.0,0.0,0.0,0.0,0.0,0.0,0.0,0.0,0.0,0.0,0.0,0.0,0.0,0.0,0.0,0.0,0.0,0.0,0.0,0.0,0.0,0.0,0.0,0.0,0.0,0.0,0.0,2.5298,2.8724,3.1133,3.2379,3.3071,3.3393,3.3357,3.1227,2.9613,0.0,0.0,0.0,0.0,0.0,0.0,0.0,0.0,0.0,0.0,0.0,0.0,0.0,0.0,0.0,0.0,0.0,0.0,0.0,0.0,0.0,0.0,0.0,0.0,0.0,0.0,0.0,0.0,0.0,0.0,0.0,0.0,0.0,0.0,0.0,0.0,0.0,0.0,0.0,0.0,0.0,2.6119,2.6815,2.5995,0.0,0.0,0.0,0.0,2.5817,2.5118,0.0,0.0,0.0,0.0,0.0,0.0,0.0,0.0,0.0,0.0,0.0,0.0,0.0,0.0,0.0,0.0,0.0,0.0,0.0,0.0,0.0,0.0,0.0,0.0,0.0,0.0,0.0,0.0,0.0,0.0,0.0,0.0,0.0,0.0,0.0,0.0,0.0,0.0,0.0,0.0,0.0,0.0,0.0,0.0,0.0,0.0,0.0,0.0,0.0,0.0,0.0,0.0,0.0,0.0,0.0,0.0,2.6002,2.7918,3.0283,3.3082,3.3353,3.3393,3.3375,3.1749,3.0158,0.0,0.0,0.0,0.0,0.0,0.0,0.0,0.0,0.0,0.0,0.0,0.0,0.0,0.0,0.0,0.0,0.0,0.0,0.0,0.0,0.0,0.0,0.0,0.0,0.0,0.0,0.0,0.0,0.0,0.0,0.0,0.0,0.0,0.0,0.0,0.0,0.0,0.0,0.0,0.0,0.0,3.0088,2.7378,2.7973,2.8223,0.0,0.0,0.0,2.7769,2.8813,0.0,0.0,0.0,0.0,0.0,0.0,0.0,0.0,0.0,0.0,0.0,0.0,0.0,0.0,0.0,0.0,0.0,0.0,0.0,0.0,0.0,0.0,0.0,0.0,0.0,0.0,0.0,0.0,0.0,0.0,0.0,0.0,0.0,0.0,0.0,0.0,0.0,0.0,0.0,0.0,0.0,0.0,0.0,0.0,0.0,0.0,0.0,0.0,0.0,0.0,0.0,0.0,0.0,0.0,0.0,0.0,2.6183,2.8663,3.1075,3.3302,3.3393,3.3393,3.3375,3.1408,2.9575,0.0,0.0,0.0,0.0,0.0,0.0,0.0,0.0,0.0,0.0,0.0,0.0,0.0,0.0,0.0,0.0,0.0,0.0,0.0,0.0,0.0,0.0,0.0,0.0,0.0,0.0,0.0,0.0,0.0,0.0,0.0,0.0,0.0,0.0,0.0,0.0,0.0,0.0,0.0,0.0,0.0,0.0,2.9617,2.9475,0.0,0.0,0.0,2.9941,3.1355,0.0,0.0,0.0,0.0,0.0,0.0,0.0,0.0,0.0,0.0,0.0,0.0,0.0,0.0,0.0,0.0,0.0,0.0,0.0,0.0,0.0,0.0,0.0,0.0,0.0,0.0,0.0,0.0,0.0,0.0,0.0,0.0,0.0,0.0,0.0,0.0,0.0,0.0,0.0,0.0,0.0,0.0,0.0,0.0,0.0,0.0,0.0,0.0,0.0,0.0,0.0,0.0,0.0,0.0,0.0,0.0,0.0,2.6524,2.947,3.1767,3.3321,3.3393,3.3393,3.3357,3.1248,0.0,0.0,0.0,0.0,0.0,0.0,0.0,0.0,0.0,0.0,0.0,0.0,0.0,0.0,0.0,0.0,0.0,0.0,0.0,0.0,0.0,0.0,0.0,0.0,0.0,0.0,0.0,0.0,0.0,0.0,0.0,0.0,0.0,0.0,0.0,0.0,0.0,0.0,0.0,0.0,0.0,0.0,2.8822,3.1175,3.1126,3.1421,0.0,0.0,3.2687,3.4279,3.3466,3.1811,0.0,0.0,0.0,0.0,0.0,0.0,0.0,0.0,0.0,0.0,0.0,0.0,0.0,0.0,0.0,0.0,0.0,0.0,0.0,0.0,0.0,0.0,0.0,0.0,0.0,0.0,0.0,0.0,0.0,0.0,0.0,0.0,0.0,0.0,0.0,0.0,0.0,0.0,0.0,0.0,0.0,0.0,0.0,0.0,0.0,0.0,0.0,0.0,0.0,0.0,0.0,0.0,0.0,0.0,0.0,2.7317,2.9753,3.1788,3.3321,3.3393,3.3393,3.3371,3.1785,2.9807,0.0,0.0,0.0,0.0,0.0,0.0,0.0,0.0,0.0,0.0,0.0,0.0,0.0,0.0,0.0,0.0,0.0,0.0,0.0,0.0,0.0,0.0,0.0,0.0,0.0,0.0,0.0,0.0,0.0,0.0,0.0,0.0,0.0,0.0,0.0,0.0,0.0,0.0,0.0,0.0,0.0,3.1273,3.077,3.3211,3.4863,0.0,0.0,3.6094,3.5523,3.7255,3.6532,3.0146,0.0,0.0,0.0,0.0,0.0,0.0,0.0,0.0,0.0,0.0,0.0,0.0,0.0,0.0,0.0,0.0,0.0,0.0,0.0,0.0,0.0,0.0,0.0,0.0,0.0,0.0,0.0,0.0,0.0,0.0,0.0,0.0,0.0,0.0,0.0,0.0,0.0,0.0,0.0,0.0,0.0,0.0,0.0,0.0,0.0,0.0,0.0,0.0,0.0,0.0,0.0,0.0,0.0,2.5516,2.7408,3.026,3.227,3.3339,3.3393,3.3393,3.3393,3.2328,3.0369,0.0,0.0,0.0,0.0,0.0,0.0,0.0,0.0,0.0,0.0,0.0,0.0,0.0,0.0,0.0,0.0,0.0,0.0,0.0,0.0,0.0,0.0,0.0,0.0,0.0,0.0,0.0,0.0,1.5842,1.6071,1.5935,0.0,0.0,0.0,0.0,0.0,0.0,0.0,0.0,0.0,0.0,3.2281,3.4098,3.5905,0.0,0.0,3.817,3.8492,3.9205,3.7949,3.5832,3.2677,3.0747,0.0,0.0,0.0,0.0,0.0,0.0,0.0,0.0,0.0,0.0,0.0,0.0,0.0,0.0,0.0,0.0,0.0,0.0,0.0,0.0,0.0,0.0,0.0,0.0,0.0,0.0,0.0,0.0,0.0,0.0,0.0,0.0,0.0,0.0,0.0,0.0,0.0,0.0,0.0,0.0,0.0,0.0,0.0,0.0,0.0,0.0,0.0,0.0,0.0,0.0,0.0,0.0,2.5905,2.7752,3.0691,3.2575,3.3393,3.3393,3.3393,3.3375,3.2618,3.08,0.0,0.0,0.0,0.0,0.0,0.0,0.0,0.0,0.0,0.0,0.0,0.0,0.0,0.0,0.0,0.0,0.0,0.0,0.0,0.0,0.0,0.0,0.0,0.0,0.0,0.0,0.0,0.0,1.7638,1.7678,1.685,0.0,0.0,0.0,0.0,0.0,0.0,0.0,0.0,0.0,0.0,3.3439,3.6615,3.7816,3.8762,3.9882,3.9563,3.961,4.0773,3.8462,3.5993,3.4363,0.0,0.0,0.0,0.0,0.0,0.0,0.0,0.0,0.0,0.0,0.0,0.0,0.0,0.0,0.0,0.0,0.0,0.0,0.0,0.0,0.0,0.0,0.0,0.0,0.0,0.0,0.0,0.0,0.0,0.0,0.0,0.0,0.0,0.0,0.0,0.0,0.0,0.0,0.0,0.0,0.0,0.0,0.0,0.0,0.0,0.0,0.0,0.0,0.0,0.0,0.0,0.0,0.0,0.0,2.856,3.1021,3.2636,3.3389,3.3411,3.3429,3.3411,3.2629,3.1072,2.8636,0.0,0.0,0.0,0.0,0.0,0.0,0.0,0.0,0.0,0.0,0.0,0.0,0.0,0.0,0.0,0.0,0.0,0.0,0.0,0.0,0.0,0.0,0.0,0.0,0.0,0.0,1.8859,1.886,1.8554,0.0,0.0,0.0,0.0,0.0,0.0,0.0,0.0,0.0,0.0,3.2966,3.4988,3.7531,3.865,3.9282,3.9299,3.9265,3.9267,3.9355,3.9147,3.798,0.0,0.0,0.0,0.0,0.0,0.0,0.0,0.0,0.0,0.0,0.0,0.0,0.0,0.0,0.0,0.0,0.0,0.0,0.0,0.0,0.0,0.0,0.0,0.0,0.0,0.0,0.0,1.8792,1.8037,0.0,0.0,0.0,0.0,0.0,0.0,0.0,0.0,0.0,0.0,0.0,2.4318,2.5884,0.0,0.0,0.0,0.0,0.0,0.0,0.0,0.0,0.0,0.0,0.0,0.0,2.6985,2.9412,3.2306,3.3933,3.4204,3.4725,3.4744,3.4222,3.3933,3.2169,2.8684,0.0,0.0,0.0,0.0,0.0,0.0,0.0,0.0,0.0,0.0,0.0,0.0,0.0,0.0,0.0,0.0,0.0,0.0,0.0,0.0,0.0,0.0,0.0,0.0,0.0,2.0565,0.0,0.0,0.0,0.0,0.0,0.0,0.0,0.0,0.0,0.0,0.0,3.0859,3.3665,3.5436,3.7215,3.9214,4.0701,4.1393,0.0,0.0,0.0,0.0,0.0,0.0,0.0,0.0,0.0,0.0,0.0,0.0,0.0,0.0,3.7423,3.3322,3.0624,2.953,3.1285,0.0,0.0,0.0,0.0,0.0,0.0,0.0,0.0,0.0,0.0,0.0,0.0,0.0,0.0,0.0,0.0,2.0645,0.0,0.0,0.0,0.0,0.0,0.0,0.0,0.0,2.5939,2.691,2.6732,2.8283,2.8467,0.0,2.7203,2.6002,0.0,0.0,0.0,0.0,0.0,0.0,0.0,0.0,2.7924,3.0618,3.3244,3.4744,3.5011,3.5514,3.5554,3.5033,3.4472,3.2683,2.9547,2.7649,2.5823,0.0,0.0,0.0,0.0,0.0,0.0,0.0,0.0,0.0,0.0,0.0,0.0,0.0,0.0,0.0,0.0,0.0,0.0,0.0,0.0,0.0,0.0,0.0,2.1933,0.0,0.0,0.0,0.0,0.0,0.0,0.0,0.0,0.0,3.003,3.148,3.341,3.6212,3.7504,3.892,4.0898,0.0,0.0,0.0,0.0,0.0,0.0,0.0,3.8336,3.8567,3.8225,3.7889,3.7832,3.9664,4.0972,4.0404,0.0,0.0,3.7361,3.4442,3.3381,3.5927,3.5239,3.4163,3.4121,3.5214,3.6207,0.0,0.0,0.0,0.0,0.0,0.0,0.0,0.0,2.3673,2.4147,0.0,2.4123,0.0,0.0,0.0,0.0,0.0,0.0,0.0,0.0,2.8401,2.9192,2.9911,3.0038,3.0002,3.0002,3.0683,3.0188,2.8563,2.5552,0.0,0.0,0.0,0.0,0.0,0.0,2.9059,3.2147,3.386,3.5051,3.579,3.588,3.588,3.5812,3.4295,3.2727,3.114,3.0234,2.8712,2.6418,2.4737,0.0,0.0,0.0,0.0,0.0,0.0,0.0,0.0,0.0,0.0,0.0,0.0,0.0,0.0,0.0,0.0,0.0,0.0,0.0,0.0,2.268,0.0,0.0,0.0,0.0,0.0,0.0,0.0,0.0,0.0,0.0,3.3607,3.4031,3.5403,3.8629,0.0,0.0,0.0,0.0,4.2022,4.2733,4.2233,4.1807,4.1771,4.1695,4.137,4.0609,0.0,0.0,4.0832,4.1879,4.2517,4.0892,4.2054,4.2775,4.2156,3.9323,3.8224,4.1058,3.9372,3.7851,3.8863,3.9766,4.0492,2.7498,0.0,0.0,0.0,0.0,2.5776,2.7112,2.9593,2.909,2.8573,2.8017,2.729,0.0,0.0,0.0,0.0,0.0,0.0,2.8965,3.084,3.1666,3.2451,3.3248,3.3806,3.3784,3.3226,3.2882,3.218,3.1123,2.9663,2.7097,2.3581,0.0,0.0,0.0,0.0,3.0981,3.3053,3.5194,3.6425,3.6661,3.7218,3.7236,3.6661,3.5091,3.3773,3.2741,3.139,3.0071,2.8803,2.6693,0.0,0.0,0.0,0.0,0.0,0.0,0.0,0.0,0.0,0.0,0.0,0.0,0.0,0.0,0.0,0.0,0.0,0.0,0.0,2.4308,2.4462,2.4784,0.0,0.0,0.0,0.0,0.0,0.0,0.0,0.0,0.0,3.7177,3.8056,3.9066,0.0,0.0,4.1977,4.2701,4.3619,4.4113,4.3731,0.0,0.0,0.0,4.3729,4.3442,4.3793,4.475,4.5468,4.5607,4.6061,4.6211,4.5689,4.6044,4.5968,4.4522,4.23,4.1263,4.2668,4.294,4.2794,4.2677,4.3702,4.4696,3.162,2.8844,2.7242,2.754,2.8975,2.8721,2.994,3.2113,3.1801,3.1483,3.1138,3.0448,2.9378,2.8091,2.74,0.0,0.0,0.0,3.147,3.3179,3.3643,3.4295,3.5084,3.5572,3.555,3.5069,3.4581,3.4096,3.3621,3.314,3.1108,2.7725,0.0,0.0,2.9095,3.0988,3.2911,3.4791,3.6252,3.7162,3.7484,3.7933,3.7824,3.6995,3.5743,3.4689,3.39,3.2636,3.1586,3.0777,2.9068,2.7447,0.0,0.0,0.0,0.0,0.0,0.0,0.0,0.0,0.0,0.0,0.0,1.9767,0.0,0.0,0.0,0.0,2.344,2.5673,2.7058,2.7173,0.0,0.0,0.0,0.0,0.0,0.0,0.0,3.3568,3.6109,3.8304,3.9964,4.1397,4.2333,4.2488,4.2963,4.3515,4.4186,0.0,4.5714,4.5521,4.6358,4.686,4.6366,4.5845,4.569,4.6192,4.6667,4.7144,4.766,4.7791,4.7791,4.7791,4.7791,4.7488,4.6478,4.5141,4.4415,4.5117,4.581,4.6077,4.5592,4.6338,4.7009,3.5688,3.4833,3.215,3.1159,3.1395,3.1769,3.2176,3.2544,3.2897,3.3457,3.4089,3.3457,3.312,3.2998,3.2522,0.0,0.0,3.3339,3.4099,3.4888,3.4885,3.5272,3.5975,3.5985,3.5953,3.5906,3.5898,3.5866,3.5772,3.5772,3.5088,3.3686,3.2219,3.2129,3.336,3.3578,3.4791,3.6955,3.7045,3.7448,3.8186,3.82,3.7828,3.7104,3.6254,3.5442,3.4707,3.3856,3.3067,3.2328,3.1538,3.0046,2.7791,0.0,0.0,0.0,0.0,0.0,0.0,0.0,0.0,0.0,0.0,0.0,0.0,0.0,0.0,0.0,2.7084,0.0,3.0319,3.0341,0.0,0.0,0.0,2.9777,3.0807,3.3681,3.5224,3.4237,0.0,0.0,0.0,0.0,4.5201,4.4407,4.429,4.4868,4.6383,4.665,4.701,4.7717,4.7946,4.8001,4.802,4.8042,4.8157,4.8309,4.8214,4.8345,4.8405,4.8367,4.8252,4.8402,4.823,4.8249,4.8176,4.802,4.8042,4.8252,4.8135,4.7985,4.7835,4.793,4.8089,3.6748,3.6516,3.5814,3.5383,3.5194,3.56,3.6277,3.7118,3.7516,3.722,3.6367,3.5763,3.4686,3.3336,3.3775,3.4344,3.4979,3.5773,3.6592,3.7331,3.7335,3.744,3.7617,3.7621,3.7309,3.6733,3.6715,3.6407,3.5826,3.579,3.5924,3.6121,3.5763,3.4831,3.3516,3.5212,3.6433,3.6995,3.7593,3.8009,3.82,3.82,3.8118,3.7897,3.654,3.5721,3.5482,3.4146,3.3299,3.31,3.2346,3.1375,3.0194,2.7287,0.0,0.0,0.0,0.0,0.0,0.0,0.0,0.0,0.0,2.4626,1.9989,0.0,2.6355,0.0,2.8294,3.0508,0.0,3.1517,0.0,0.0,3.3834,3.4552,3.667,3.8191,3.92,3.9568,4.2438,4.4423,4.448,4.6082,4.7128,4.6929,4.6874,4.7046,4.7466,4.8083,4.855,4.8795,4.9325,4.9707,4.9764,5.0296,5.0853,5.1502,5.1582,5.1623,5.1601,5.162,5.1626,5.1604,5.1601,5.1448,5.1022,5.0318,5.0433,5.1716,5.0929,4.9519,4.8932,4.9273,4.9704,3.8086,3.8086,3.8086,3.7943,3.7748,3.7441,3.7665,3.8231,3.8671,3.8458,3.7778,3.7757,3.7314,3.657,3.699,3.744,3.7912,3.8355,3.8812,3.9206,3.9224,3.9224,3.9228,3.9228,3.8989,3.8572,3.8563,3.8337,3.7908,3.7908,3.8133,3.8563,3.8558,3.7884,3.6649,3.7218,3.7534,3.7534,3.7969,3.82,3.82,3.82,3.82,3.8164,3.6987,3.6164,3.5808,3.4599,3.3592,3.2882,3.2433,3.1843,3.1013,2.8627,2.6907,0.0,0.0,0.0,0.0,0.0,0.0,0.0,0.0,0.0,0.0,0.0,2.799,0.0,0.0,0.0,3.4766,3.4842,3.5509,3.7287,3.7784,3.8553,3.9966,4.1203,4.2271,4.3102,4.4745,4.6061,4.6697,4.7709,4.8389,4.8391,4.9016,4.9226,4.8659,4.9426,5.0206,5.0228,5.0897,5.1413,5.1413,5.1811,5.227,5.2693,5.2789,5.2789,5.2789,5.2789,5.2789,5.2789,5.2789,5.2805,5.2706,5.2037,5.1983,5.3072,5.3129,5.2171,5.1015,5.1113,5.1419,3.9567,3.9557,3.9574,3.955,3.9494,3.8511,3.801,3.7921,3.8371,3.8625,3.8809,3.9419,3.9948,4.0402,4.0411,4.0434,4.0496,4.0501,4.0501,4.0501,4.0501,4.0501,4.0501,4.0501,4.0501,4.0501,4.0501,4.0501,4.0501,4.0501,4.0501,4.0501,4.0501,4.0501,4.0447,3.9174,3.849,3.849,3.8486,3.849,3.849,3.84,3.8363,3.8313,3.7371,3.6516,3.5822,3.5029,3.3951,3.2614,3.2502,3.2198,3.1462,2.984,2.8853,0.0,2.7248,0.0,0.0,0.0,0.0,0.0,0.0,0.0,0.0,2.9047,3.0196,3.1901,3.4351,3.6468,3.7903,3.882,3.962,4.0382,4.138,4.1996,4.2054,4.3477,4.4773,4.5548,4.6328,4.7324,4.8413,4.9085,4.9429,4.956,5.0703,5.1104,5.0059,5.0837,5.1694,5.1748,5.2267,5.2499,5.2789,5.2903,5.296,5.3113,5.3266,5.3132,5.3228,5.3228,5.319,5.319,5.3266,5.3362,5.382,5.3476,5.3343,5.3897,5.46,5.4559,5.3075,5.2604,5.2801,4.1011,4.1004,4.1004,4.1011,4.0978,4.0782,4.0214,3.9489,3.9861,4.0055,4.0111,4.0143,4.0296,4.047,4.0474,4.0497,4.0501,4.0501,4.0501,4.0501,4.0501,4.0501,4.0501,4.0501,4.0501,4.0501,4.0501,4.0501,4.0501,4.0501,4.0501,4.0501,4.0501,4.0501,0.0,0.0,0.0,0.0,4.0066,4.0071,4.0053,3.9478,3.9178,3.9124,3.7123,0.0,3.5776,3.5033,3.4454,3.4168,3.4146,0.0,0.0,0.0,0.0,0.0,0.0,0.0,0.0,0.0,0.0,0.0,3.2098,3.1472,3.0206,3.3392,3.6032,3.7106,3.8499,3.9463,3.9792,4.054,4.1096,4.1325,4.326,4.4576,4.4636,4.6039,4.7163,4.7313,4.8067,4.8684,4.9069,5.0206,5.1101,5.114,5.1964,5.2406,5.2123,5.233,5.2575,5.2578,5.2515,5.2668,5.3683,5.3664,5.3874,5.4616,5.4922,5.4865,5.4807,5.4846,5.4865,5.4823,5.4906,5.4865,5.5037,5.4979,5.4846,5.5037,5.5266,5.4865,5.319,5.2814,5.2805,4.1411,0.0,4.1411,4.1411,0.0,4.1411,4.1106,4.0665,4.0928,4.1367,4.1896,4.152,4.1662,4.2164,4.184,4.1669,4.1682,4.1682,4.1687,4.1687,4.1682,4.1669,4.1687,4.1687,4.1682,4.1687,4.1692,4.1692,4.1687,4.1705,4.1682,4.1687,4.1682,4.1687,4.1682,4.1682,4.1302,4.0501,4.0501,4.0501,4.0478,4.0121,3.9763,3.9378,0.0,0.0,0.0,0.0,0.0,0.0,0.0,0.0,0.0,0.0,0.0,3.2756,3.2382,3.2144,3.2187,3.2882,3.3897,3.5124,3.6429,3.6234,3.4063,3.6531,3.8753,4.0147,4.0886,4.1847,4.3213,4.3744,4.4131,4.4609,4.5755,4.6538,4.6615,4.7256,4.7968,4.8449,4.9194,4.9827,5.0286,5.1372,5.2155,5.2231,5.2903,5.3435,5.3435,5.3438,5.355,5.3989,5.389,5.3941,5.454,5.4655,5.4658,5.5266,5.5396,5.5396,5.5396,5.5396,5.5396,5.5396,5.5396,5.5396,5.5396,5.5396,5.5396,5.5396,5.5396,5.517,5.4237,5.4072,5.4088,4.1792,4.1785,4.1785,4.1792,4.1792,4.1792,4.1792,4.178,0.0,0.0,0.0,4.3004,4.3318,4.408,4.3573,4.3326,4.3326,4.3326,4.3326,4.3326,4.3326,4.3331,4.3326,4.3326,4.3308,4.3326,4.3326,4.3322,4.3326,4.3303,4.3254,4.315,4.3254,4.3326,4.3326,4.3322,4.2665,4.1402,4.1062,4.0917,4.0922,4.0791,4.0424,3.9826,3.9536,3.878,3.748,3.743,3.6806,3.5526,3.5451,3.5455,3.5435,3.5313,3.553,3.6192,3.6856,3.6987,3.65,3.7798,3.8521,3.8306,4.0225,4.0604,3.8693,3.9509,4.0822,4.2631,4.2979,4.4063,4.6404,4.6574,4.6857,4.7641,4.7838,4.7971,4.8146,4.8363,4.8924,4.9636,5.04,5.099,5.1694,5.2518,5.3018,5.3132,5.3779,5.4311,5.4333,5.4333,5.454,5.5094,5.511,5.5301,5.5377,5.5339,5.5396,5.5377,5.5396,5.5396,5.5396,5.5396,5.5396,5.5396,5.5396,5.5396,5.5396,5.5396,5.5396,5.5396,5.5396,5.5396,5.5396,5.5377,5.5301,4.3284,4.3291,4.3284,4.3291,4.3308,4.3284,4.33,4.3263,4.2944,4.3045,4.3444,4.422,4.4749,4.509,4.5009,4.497,4.4965,4.4942,4.497,0.0,4.4965,4.497,4.4965,4.497,4.4965,4.4965,4.4952,4.4965,4.4965,4.4947,4.4626,4.4082,4.4626,4.4928,4.4947,4.497,4.4838,4.4593,4.3267,4.2543,4.2543,4.1895,4.1492,4.1352,4.0111,3.9323,3.9065,3.9052,3.8965,3.8726,3.8724,3.8736,3.8707,3.8029,3.7748,3.7856,3.7991,3.8295,3.8866,3.9709,4.1089,4.3063,4.3661,4.3528,4.2786,4.3672,4.4748,4.5696,4.5904,4.6425,4.709,4.7001,4.709,4.7466,4.8086,4.8753,4.9479,5.0389,5.1254,5.2008,5.2368,5.2445,5.2652,5.3378,5.3913,5.4027,5.4559,5.517,5.5129,5.5224,5.5247,5.5358,5.5396,5.5396,5.5396,5.5396,5.5396,5.5396,5.5396,5.5396,5.5396,5.5396,5.5396,5.5396,5.5396,5.5396,5.5396,5.5396,5.5396,5.5396,5.5396,5.5396,5.5454,5.5511,5.5492,4.4796,4.4796,4.4796,4.4789,4.4796,4.4796,4.4796,4.4806,4.4866,4.4599,4.4167,4.4583,4.5034,4.5382,4.534,4.5286,4.5286,4.5286,4.5286,4.5286,4.5286,4.5286,4.5286,4.5286,4.5286,4.5286,4.5286,4.5286,4.5286,4.5286,4.5115,4.4789,4.5128,4.5286,4.5286,4.5286,4.5286,4.5296,4.4571,4.4191,4.4191,4.3855,4.324,4.2398,4.1637,4.0877,4.0017,4.0003,3.9998,4.0003,3.9995,4.0004,3.9985,3.9651,3.9633,4.0089,4.0514,4.1098,4.1909,4.2683,4.3636,4.4831,4.5423,4.5628,4.5425,4.5494,4.6006,4.6929,4.7176,4.7562,4.8311,4.8836,4.9197,4.9322,5.0256,5.1002,5.1399,5.1862,5.2384,5.2772,5.3228,5.3495,5.3511,5.4272,5.4807,5.4842,5.5205,5.5393,5.5393,5.539,5.5393,5.5396,5.5396,5.5396,5.5396,5.5396,5.5396,5.5396,5.5396,5.5396,5.5396,5.5415,5.5415,5.5396,5.5415,5.5396,5.5415,5.5396,5.5396,5.5396,5.5396,5.5514,5.5919,5.6396,5.6412,4.5813,4.5813,4.5813,4.5813,4.5813,4.5813,4.5813,4.5852,4.6195,4.5863,4.5103,4.5385,4.5804,4.615,4.6136,4.6119,4.6106,4.61,4.6209,4.6346,4.6196,4.6124,4.6082,4.5943,4.5847,4.5829,4.5834,4.5829,4.5852,4.5834,4.5834,4.5811,4.5671,4.5671,4.5852,4.5852,4.5852,4.5829,4.5834,4.5653,4.5309,4.5286,4.4698,4.3562,4.3448,4.2846,4.166,4.1583,4.1587,4.1574,4.1579,4.1569,4.1574,4.1591,4.1857,4.2483,4.3077,4.3792,4.4571,4.5205,4.5765,4.6258,4.6933,4.7446,4.7676,4.7184,4.7146,4.7908,4.8277,4.8776,4.9634,5.0418,5.1051,5.1182,5.191,5.2344,5.265,5.2787,5.2963,5.3169,5.3759,5.4123,5.4261,5.4788,5.5229,5.532,5.5328,5.5337,5.5565,5.5563,5.5497,5.5813,5.5686,5.5396,5.5396,5.5396,5.5473,5.5587,5.5705,5.5877,5.5973,5.603,5.5992,5.6087,5.6046,5.6106,5.5992,5.603,5.6068,5.6141,5.616,5.6262,5.6801,5.7317,5.7504,4.5822,4.5813,4.5863,4.5813,4.5855,4.5839,4.5863,4.5879,4.5991,4.6009,4.6118,4.754,4.8161,4.8261,4.8394,4.848,4.8493,4.8558,4.8889,4.9407,4.8889,4.8552,4.8431,4.7821,4.7466,4.7471,4.7471,4.7459,4.7399,4.7399,4.7435,4.7399,4.677,4.6757,4.7363,4.7422,4.7453,4.7477,4.7471,4.677,4.5381,4.5286,4.5236,4.5091,4.5078,4.5019,4.4675,4.4856,4.4833,4.4853,4.4742,4.4802,4.4795,4.4815,4.4864,4.4924,4.5037,4.5436,4.6178,4.6336,4.7065,4.8421,4.8738,4.9227,4.9885,4.9759,4.9527,4.9568,5.0068,5.0571,5.1032,5.0986,5.107,5.135,5.1582,5.1723,5.2498,5.2798,5.3281,5.4102,5.4209,5.4284,5.4347,5.4731,5.5061,5.5436,5.5326,5.5444,5.6141,5.5951,5.6054,5.6868,5.6453,5.5561,5.5494,5.5406,5.5762,5.6292,5.6472,5.6684,5.7083,5.74,5.7638,5.7185,5.7447,5.7409,5.7466,5.7657,5.7542,5.7329,5.7409,5.766,5.7772,5.7886,5.7787,4.7106,4.7114,4.7106,4.7106,4.709,4.7098,4.7106,4.7114,4.7145,4.7585,4.8306,4.917,4.9067,4.8283,4.9098,4.9446,4.9372,4.9529,4.9731,4.9953,4.9707,4.9606,4.957,4.9293,4.9117,4.9117,4.9117,4.8876,4.8395,4.7942,4.7694,4.7694,4.7363,4.7386,4.7676,4.7694,4.7694,4.7694,4.7694,4.7598,4.7404,4.697,4.6499,4.6051,4.602,4.5761,4.5363,4.5286,4.5286,4.5291,4.5296,4.5291,4.5296,4.5287,4.5504,4.5987,4.6915,4.7562,4.7919,4.8351,4.89,4.9582,4.971,4.9986,5.0365,5.0623,5.0815,5.1017,5.1169,5.1231,5.1132,5.1478,5.1861,5.2067,5.262,5.3215,5.3499,5.3679,5.3946,5.4282,5.4475,5.4602,5.4683,5.5139,5.5538,5.5775,5.5779,5.6123,5.6575,5.6381,5.6515,5.6919,5.6546,5.636,5.6398,5.6443,5.651,5.6609,5.6664,5.6918,5.7415,5.7563,5.7591,5.7902,5.7986,5.7981,5.781,5.7886,5.7886,5.802,5.8376,5.8494,5.8001,5.8284,5.8532,4.8001,4.8001,4.8001,4.8001,4.8001,4.8001,4.8001,4.8001,4.8001,4.8497,4.9323,4.9858,4.9552,4.8813,4.9764,5.0218,5.019,5.0325,5.0503,5.0563,5.0509,5.0427,5.0414,5.0179,5.0106,5.0106,5.007,4.9793,4.9215,4.8677,4.8364,4.8369,4.8369,4.8359,4.8346,4.8346,4.8351,4.8364,4.8369,4.8641,4.9075,4.8654,4.8074,4.7536,4.7505,4.7215,4.6654,4.6613,4.6618,4.6613,4.6605,4.66,4.6631,4.6618,4.6879,4.7471,4.855,4.9228,4.9228,4.9787,5.0197,5.0401,5.0511,5.0722,5.1112,5.179,5.2333,5.2598,5.2803,5.2674,5.1677,5.2209,5.2726,5.3024,5.3865,5.4386,5.4596,5.4666,5.4657,5.4679,5.492,5.5062,5.5214,5.567,5.6036,5.618,5.6358,5.6747,5.6906,5.6888,5.685,5.7257,5.723,5.7023,5.7127,5.6946,5.6926,5.7098,5.7083,5.7282,5.767,5.7822,5.7984,5.8695,5.8472,5.855,5.8889,5.8769,5.8558,5.8673,5.8956,5.9083,5.8475,5.8797,5.8988,4.8001,4.8034,4.8001,4.81,4.8034,4.8084,4.805,4.8158,4.8084,4.8107,4.8463,4.9406,4.9894,5.0049,5.095,5.1232,5.1232,5.1225,5.1587,5.2113,5.1556,5.126,5.1187,5.0486,5.016,5.0323,5.0336,5.0209,5.0052,4.9956,4.9997,4.9961,4.9865,4.9938,4.9865,4.9829,4.9956,4.9829,4.9811,4.9974,5.0028,4.9997,4.9919,4.9883,4.9883,4.972,4.972,4.9811,4.9793,4.9816,4.9684,4.9749,4.9793,4.9764,4.9705,4.9836,4.9979,5.0046,5.0041,5.0197,5.0535,5.1174,5.1517,5.1872,5.2661,5.3628,5.4188,5.4265,5.5148,5.5044,5.3424,5.3254,5.3598,5.4167,5.4333,5.4767,5.5431,5.5417,5.5533,5.549,5.5486,5.5667,5.5953,5.6053,5.6332,5.6504,5.6392,5.6583,5.742,5.7234,5.7481,5.8257,5.8246,5.7657,5.6954,5.7001,5.7244,5.7464,5.7711,5.8019,5.8661,5.9158,5.9317,5.9482,5.9482,5.9676,6.0103,6.0205,6.0033,5.9976,5.9781,5.9628,5.8854,5.8968,5.9064,4.8986,4.9392,4.9417,4.9392,4.94,4.9417,4.9408,4.94,4.9408,4.9684,5.0155,5.072,5.1434,5.2319,5.2764,5.2551,5.1867,5.1976,5.2168,5.2357,5.2156,5.2063,5.2033,5.1761,5.1622,5.1634,5.1616,5.1363,5.0831,5.0354,5.0106,5.0106,5.0106,5.0106,5.0106,5.0106,5.0106,5.0124,5.0106,5.036,5.082,5.0861,5.1115,5.155,5.0626,5.0106,5.0106,5.0106,5.0106,5.0106,5.0115,5.0115,5.0106,5.0109,5.0104,5.0155,5.059,5.0885,5.0916,5.1368,5.1979,5.2745,5.2899,5.3275,5.4005,5.4393,5.4581,5.4997,5.567,5.5583,5.4968,5.4681,5.4845,5.5084,5.5176,5.5286,5.5511,5.5603,5.5603,5.5642,5.5776,5.6078,5.6457,5.6714,5.6921,5.7075,5.7204,5.7483,5.7758,5.7689,5.7799,5.8201,5.8196,5.7903,5.7636,5.7545,5.7677,5.7896,5.8153,5.8424,5.8911,5.9269,5.9421,5.9548,5.9831,5.9924,6.0043,6.0148,6.0224,6.0339,6.0224,5.9682,5.9159,5.8968,5.8911,4.9739,5.0153,5.0203,5.0203,5.0203,5.0203,5.0203,5.0212,5.0263,5.0543,5.1028,5.1437,5.2165,5.3032,5.357,5.3458,5.2776,5.3087,5.3224,5.3153,5.3217,5.3283,5.3241,5.3005,5.2878,5.2824,5.2612,5.2196,5.1713,5.1133,5.0898,5.0903,5.0874,5.0856,5.0879,5.0879,5.0879,5.0874,5.0856,5.1169,5.1634,5.1676,5.193,5.2245,5.1423,5.0879,5.0879,5.0885,5.0874,5.0861,5.0879,5.0879,5.0879,5.0879,5.0879,5.0952,5.1634,5.2069,5.2165,5.283,5.3512,5.4025,5.4097,5.4422,5.4988,5.5033,5.5297,5.5736,5.6324,5.654,5.6342,5.6324,5.6277,5.6075,5.5983,5.6112,5.6319,5.6393,5.6424,5.6476,5.6644,5.6875,5.7098,5.7351,5.7479,5.7532,5.7818,5.7977,5.7984,5.7984,5.7984,5.7984,5.8024,5.799,5.7857,5.7816,5.7816,5.8012,5.7721,5.8197,5.8529,5.8943,5.9292,5.954,5.9707,5.9783,5.9858,5.9948,6.0109,6.0281,5.9877,5.9316,5.8968,5.8724,5.8857,5.0261,5.0319,5.0228,5.0377,5.041,5.0427,5.0286,5.0403,5.0473,5.065,5.0894,5.1416,5.2007,5.2301,5.3461,5.3849,5.4154,5.4651,5.4786,5.4665,5.4701,5.4707,5.4653,5.4019,5.3711,5.3687,5.2951,5.2612,5.2607,5.254,5.2516,5.2498,5.2498,5.2522,5.2504,5.2516,5.2522,5.2486,5.2457,5.2482,5.2505,5.2525,5.2543,5.2609,5.2511,5.2522,5.2504,5.2413,5.2286,5.2335,5.2359,5.2444,5.2395,5.2468,5.2504,5.2612,5.3241,5.3621,5.3724,5.4309,5.4653,5.4919,5.4978,5.5092,5.5518,5.6073,5.6537,5.6757,5.7328,5.7827,5.7784,5.7752,5.7519,5.6981,5.6816,5.7079,5.7635,5.7911,5.7947,5.7824,5.7771,5.7928,5.7958,5.7892,5.7897,5.7917,5.7963,5.7984,5.7984,5.7984,5.7984,5.7929,5.7929,5.796,5.7966,5.799,5.7977,5.7914,5.7424,5.7335,5.7423,5.7716,5.8086,5.8368,5.8824,5.8936,5.937,5.9526,6.0,6.0068,5.9507,5.9255,5.9258,5.9205,5.9125,5.172,5.172,5.172,5.172,5.172,5.1703,5.1703,5.1703,5.1773,5.1783,5.1871,5.2285,5.3017,5.3839,5.4601,5.5326,5.6156,5.6383,5.5933,5.5082,5.4937,5.4961,5.49,5.4665,5.4538,5.449,5.4285,5.4146,5.411,5.4122,5.4146,5.4146,5.4128,5.4146,5.4068,5.414,5.4164,5.4098,5.369,5.3466,5.3466,5.3448,5.3448,5.3504,5.3905,5.4158,5.4104,5.3096,5.2516,5.2534,5.2498,5.2733,5.3277,5.3856,5.4128,5.4176,5.4375,5.452,5.4556,5.4774,5.5233,5.5626,5.5728,5.6122,5.6715,5.6994,5.72,5.7331,5.767,5.7856,5.7881,5.7956,5.7917,5.7654,5.7629,5.7648,5.7929,5.7984,5.7984,5.7984,5.7984,5.7984,5.7984,5.7984,5.7984,5.7984,5.7984,5.7984,5.7984,5.7984,5.7703,5.733,5.7569,5.785,5.7721,5.7685,5.7709,5.7662,5.728,5.6715,5.6668,5.6882,5.7162,5.751,5.7937,5.8421,5.8828,5.9247,5.9777,5.995,5.9621,5.9621,5.9835,5.9778,5.9602,5.24,5.24,5.24,5.24,5.24,5.24,5.24,5.2409,5.2454,5.248,5.2544,5.2998,5.3673,5.455,5.5253,5.6045,5.685,5.7081,5.6681,5.5848,5.5758,5.5758,5.5703,5.5414,5.5136,5.4919,5.4907,5.4907,5.4907,5.4907,5.4907,5.4888,5.4907,5.487,5.4907,5.4907,5.4907,5.4809,5.4221,5.3899,5.3899,5.3899,5.3899,5.3984,5.4539,5.4882,5.4828,5.3905,5.3398,5.3403,5.3403,5.3657,5.4164,5.4611,5.4907,5.4955,5.516,5.5305,5.5341,5.5631,5.5951,5.643,5.6483,5.6708,5.7352,5.7461,5.7522,5.7667,5.8085,5.8192,5.8008,5.8586,5.8725,5.8474,5.8143,5.8021,5.7984,5.7984,5.7984,5.7984,5.7984,5.7984,5.7984,5.7984,5.7984,5.7984,5.7984,5.7984,5.7984,5.7984,5.7593,5.7404,5.7703,5.7721,5.7404,5.7373,5.7391,5.7342,5.7197,5.6597,5.6231,5.6633,5.698,5.7321,5.7723,5.8539,5.9003,5.9277,5.9663,5.9644,5.9731,5.9759,5.9835,5.9969,5.9892,5.24,5.24,5.24,5.24,5.24,5.24,5.24,5.2418,5.2525,5.2561,5.2712,5.3281,5.3847,5.4348,5.5367,5.6083,5.6438,5.6947,5.7152,5.7025,5.6989,5.6953,5.6844,5.6343,5.5794,5.5299,5.5214,5.5172,5.5305,5.5287,5.5033,5.5226,5.5269,5.5088,5.5263,5.5088,5.5172,5.5054,5.4416,5.4071,5.4004,5.4049,5.4056,5.4107,5.4802,5.5233,5.5226,5.51,5.4955,5.4888,5.4756,5.487,5.4955,5.4997,5.5196,5.5263,5.5728,5.5999,5.6235,5.6573,5.708,5.7275,5.7292,5.7384,5.7752,5.7996,5.8057,5.8165,5.8675,5.8788,5.8507,5.9136,5.9619,5.9214,5.8578,5.8217,5.8088,5.8125,5.8149,5.8052,5.7997,5.8094,5.818,5.8131,5.8039,5.8125,5.8094,5.7984,5.7984,5.7984,5.796,5.7868,5.774,5.7629,5.733,5.7611,5.7629,5.7559,5.735,5.6761,5.6051,5.6308,5.6495,5.6883,5.7632,5.8468,5.8997,5.9174,5.9572,5.9875,5.9878,5.9781,5.9854,6.0049,6.0144,5.24,5.24,5.24,5.24,5.24,5.24,5.24,5.24,5.2436,5.2463,5.2605,5.317,5.3838,5.4527,5.544,5.6233,5.6712,5.7061,5.7188,5.7188,5.7188,5.7188,5.7188,5.7013,5.6754,5.6536,5.6452,5.6609,5.6591,5.6464,5.65,5.6591,5.6464,5.6518,5.6591,5.65,5.6357,5.5917,5.5312,5.4714,5.4396,5.474,5.4994,5.5111,5.6002,5.6499,5.6573,5.6591,5.5993,5.5027,5.545,5.5728,5.5758,5.6192,5.6446,5.6518,5.6706,5.6887,5.6941,5.7122,5.7522,5.8148,5.812,5.8431,5.9252,5.9345,5.9382,5.9377,5.9286,5.8969,5.8762,5.9109,5.9297,5.9228,5.8976,5.8792,5.8774,5.8866,5.8688,5.8174,5.8541,5.8835,5.8945,5.8547,5.8309,5.8596,5.8358,5.7984,5.7984,5.7966,5.7941,5.7574,5.7391,5.7391,5.7446,5.7758,5.7911,5.7855,5.7596,5.7118,5.6363,5.5923,5.5912,5.5947,5.7318,5.8292,5.8551,5.8739,5.9311,6.0,6.0115,6.0085,6.016,6.032,6.03,5.24,5.24,5.24,5.24,5.24,5.24,5.24,5.24,5.24,5.24,5.2526,5.3016,5.3615,5.4244,5.5224,5.6003,5.657,5.6954,5.7149,5.7188,5.7188,5.7188,5.7188,5.7188,5.7188,5.7188,5.7188,5.717,5.7152,5.7188,5.7188,5.7134,5.7188,5.7188,5.7116,5.7176,5.6895,5.6276,5.5705,5.5087,5.4516,5.5039,5.533,5.5633,5.6548,5.7188,5.7188,5.717,5.6717,5.6138,5.6289,5.6506,5.6543,5.6923,5.7188,5.7231,5.7502,5.7695,5.7786,5.7979,5.8452,5.889,5.8941,5.9204,5.9646,5.9875,5.9931,5.9822,5.9894,5.9792,5.9493,5.9511,5.9608,5.9674,5.9416,5.9068,5.8756,5.8627,5.8835,5.8933,5.9129,5.9416,5.9808,5.9037,5.8853,5.8884,5.8431,5.8143,5.7984,5.7966,5.7905,5.7611,5.7483,5.7574,5.7629,5.7868,5.7966,5.7947,5.7855,5.7397,5.684,5.6095,5.6137,5.6419,5.731,5.7974,5.8271,5.8714,5.9423,5.9965,6.0192,6.0331,6.0342,6.0311,6.0325,5.24,5.24,5.24,5.24,5.24,5.24,5.24,5.24,5.24,5.24,5.2508,5.2888,5.3332,5.3664,5.4946,5.5655,5.6068,5.676,5.7061,5.7163,5.7188,5.7188,5.7188,5.7188,5.7188,5.7188,5.7188,5.7188,5.7188,5.7188,5.7188,5.7188,5.7188,5.7188,5.7188,5.7182,5.6837,5.6181,5.5661,5.4973,5.457,5.5065,5.5633,5.5857,5.7084,5.7657,5.7641,5.7587,5.7496,5.7442,5.7376,5.7321,5.7333,5.7369,5.7532,5.7677,5.8202,5.8528,5.8601,5.9065,5.9572,5.9694,5.9724,5.9803,6.0074,6.0312,6.0408,6.0426,6.0928,6.0816,6.0481,6.0433,6.0487,6.0438,5.9912,5.9165,5.8474,5.8186,5.8657,5.9887,5.9447,5.9655,5.9826,5.9655,5.9086,5.9049,5.8554,5.8107,5.7984,5.7984,5.7984,5.7911,5.7874,5.7929,5.7947,5.7966,5.7984,5.7984,5.7966,5.7709,5.7385,5.6915,5.6916,5.7219,5.7716,5.8052,5.8299,5.8859,5.9444,5.9664,5.9746,6.003,6.0277,6.0193,6.0175,5.24,5.24,5.24,5.24,5.24,5.24,5.24,5.24,5.24,5.24,5.2499,5.2896,5.3205,5.3499,5.4799,5.5677,5.5904,5.6676,5.7169,5.7182,5.7188,5.7188,5.7206,5.7267,5.7224,5.7243,5.7206,5.7231,5.7267,5.7387,5.7224,5.7279,5.7424,5.7224,5.7303,5.7392,5.6659,5.5794,5.5536,5.5006,5.4503,5.5556,5.6349,5.6535,5.8061,5.8959,5.9072,5.909,5.909,5.8938,5.8546,5.822,5.8257,5.8673,5.8902,5.8956,5.9138,5.9355,5.9379,5.9536,5.9898,6.0398,6.0473,6.085,6.1612,6.1651,6.1778,6.1769,6.1606,6.1365,6.1116,6.114,6.1129,6.1068,6.0957,6.0603,5.9973,5.9306,5.9018,5.8798,5.9129,5.938,5.9734,5.9079,5.8817,5.8976,5.867,5.8088,5.7984,5.7984,5.7984,5.7984,5.7984,5.7984,5.7984,5.8039,5.8112,5.8217,5.8253,5.8419,5.8077,5.7838,5.7882,5.7844,5.787,5.8135,5.8273,5.855,5.9041,5.9159,5.946,5.9969,6.034,6.019,6.0397,5.24,5.24,5.24,5.24,5.24,5.24,5.24,5.24,5.24,5.24,5.2445,5.2677,5.2843,5.3059,5.4419,5.5196,5.5609,5.6625,5.7188,5.7188,5.7206,5.7406,5.775,5.7768,5.7768,5.7768,5.7768,5.7913,5.8202,5.8275,5.842,5.8323,5.8293,5.842,5.8311,5.8287,5.792,5.7249,5.6913,5.632,5.5517,5.6609,5.7732,5.7968,5.9024,5.9602,5.9554,5.9572,5.959,5.959,5.9536,5.9319,5.9029,5.9348,5.9572,5.962,6.0025,5.9898,5.9765,5.9964,6.0344,6.0749,6.0857,6.139,6.1974,6.2323,6.2395,6.2361,6.2112,6.1866,6.1544,6.1489,6.1429,6.1055,6.108,6.1,6.0835,6.0254,5.9508,5.9153,5.9813,6.0211,6.0089,5.93,5.8963,5.9319,5.8633,5.8094,5.8002,5.8002,5.7984,5.7984,5.7984,5.7984,5.7984,5.8076,5.8272,5.8492,5.8743,5.911,5.9269,5.9055,5.889,5.8651,5.8308,5.8014,5.8136,5.8409,5.8986,5.9649,6.014,6.0395,6.0762,6.1259,6.1436,5.24,5.24,5.24,5.24,5.24,5.24,5.24,5.24,5.24,5.24,5.24,5.24,5.2481,5.2765,5.4013,5.4757,5.5559,5.6414,5.7188,5.7188,5.7448,5.7647,5.8021,5.8311,5.8576,5.8583,5.8583,5.8927,5.93,5.9584,5.9282,5.9493,5.9529,5.9337,5.9475,5.9528,5.8975,5.8195,5.8033,5.7605,5.6871,5.7829,5.8852,5.9854,6.0047,6.0199,6.0224,6.0188,6.0072,5.9982,6.0507,6.0362,6.0,5.9771,5.9789,5.9801,6.0242,6.0072,5.9862,6.026,6.0742,6.0785,6.1067,6.1481,6.2086,6.2324,6.2434,6.2494,6.2426,6.2344,6.1857,6.1875,6.1533,6.1128,6.0865,6.1092,6.1441,6.1141,6.0639,6.0181,6.0309,6.0566,6.0633,6.0211,5.9875,5.9471,5.8762,5.8253,5.8223,5.8314,5.848,5.8584,5.8712,5.8914,5.8933,5.8877,5.8988,5.9116,5.9385,5.971,6.0138,5.9863,5.9496,5.9018,5.8657,5.8455,5.8447,5.8828,5.9493,6.0319,6.0596,6.0597,6.1318,6.2334,6.2349,5.24,5.24,5.24,5.24,5.24,5.24,5.24,5.24,5.24,5.24,5.24,5.24,5.24,5.28,5.406,5.5433,5.6427,5.7153,5.7303,5.7406,5.7768,5.8076,5.7949,5.8673,5.921,5.9391,5.9355,5.9452,5.9699,5.9602,5.9891,5.9692,5.9753,5.9771,5.9801,5.9574,5.9292,5.8578,5.835,5.7858,5.7563,5.8312,5.9779,6.1127,6.1322,6.1376,6.1467,6.1521,6.1593,6.1557,6.1093,6.0731,6.0435,6.0398,6.0362,6.0326,6.0054,5.9819,5.9753,6.0278,6.0706,6.0948,6.1328,6.1861,6.2242,6.2408,6.2532,6.2666,6.2717,6.2694,6.2621,6.2487,6.2524,6.2346,6.2236,6.2285,6.2432,6.2285,6.19,6.1318,6.1043,6.0768,6.0817,6.078,6.0407,6.0077,5.9679,5.9202,5.9018,5.9263,5.9557,5.9648,5.9697,5.9918,6.0101,6.0028,6.0015,6.0052,6.0211,6.0303,6.0542,6.0395,6.0083,6.0028,5.9642,5.9312,5.9382,5.9451,6.0017,6.0842,6.0848,6.0766,6.1706,6.2626,6.2617,5.24,5.24,5.24,5.24,5.24,5.24,5.24,5.24,5.24,5.24,5.24,5.24,5.24,5.28,5.3997,5.5566,5.6845,5.7683,5.7786,5.7949,5.8202,5.8528,5.822,5.8902,5.9228,5.9482,5.9608,6.0079,6.0779,6.0887,6.0706,6.0869,6.0851,6.0833,6.0851,6.0885,6.0226,5.9486,5.9267,5.9017,5.8493,5.9432,6.0728,6.1573,6.1992,6.201,6.193,6.1521,6.1358,6.1177,6.0598,6.0254,6.0109,5.9898,5.9789,6.0036,5.9801,5.959,5.9608,6.0025,6.029,6.0792,6.1321,6.1843,6.2268,6.2525,6.266,6.2761,6.2811,6.2811,6.2774,6.2811,6.2811,6.2811,6.2811,6.2811,6.2811,6.2811,6.2542,6.2218,6.2053,6.1661,6.1172,6.1062,6.0799,6.0615,6.0487,6.0205,5.9893,6.015,6.0505,6.045,6.045,6.0542,6.0756,6.078,6.089,6.0982,6.1043,6.1129,6.1331,6.1349,6.1551,6.1661,6.1147,6.0303,6.0046,6.0068,6.0737,6.1337,6.1498,6.1754,6.2322,6.2761,6.2889,5.24,5.24,5.24,5.24,5.24,5.24,5.24,5.24,5.24,5.24,5.24,5.24,5.24,5.2783,5.3972,5.5511,5.7019,5.7826,5.7979,5.8058,5.8293,5.8728,5.8782,5.8993,5.8945,5.9174,5.9572,6.026,6.0876,6.1104,6.1467,6.134,6.1539,6.1774,6.1768,6.1231,6.1213,6.0803,6.0732,6.0481,6.0458,6.086,6.1422,6.1876,6.1847,6.172,6.1611,6.0942,6.076,6.0598,6.0199,5.9735,5.9699,5.9101,5.8975,5.9463,5.9463,5.9427,5.9626,5.9898,6.0308,6.0767,6.1173,6.1727,6.2223,6.2609,6.2798,6.2811,6.2811,6.2811,6.2811,6.2811,6.2811,6.2811,6.2811,6.2811,6.2811,6.2811,6.2811,6.2689,6.2811,6.2505,6.1906,6.1832,6.1698,6.16,6.1471,6.1098,6.0854,6.1074,6.1294,6.1184,6.1129,6.1129,6.1239,6.1361,6.1551,6.1808,6.1863,6.1955,6.2267,6.2542,6.2615,6.2432,6.2004,6.1239,6.0945,6.0872,6.1551,6.2065,6.2326,6.2534,6.2715,6.3257,6.3684,5.24,5.24,5.24,5.24,5.24,5.24,5.24,5.24,5.24,5.24,5.24,5.2418,5.2436,5.2922,5.4084,5.5642,5.6863,5.7423,5.7633,5.7769,5.8152,5.8116,5.7869,5.8999,5.8691,5.8691,5.9138,5.9626,5.9952,5.997,6.0351,6.0724,6.0514,6.0489,6.1478,6.0876,5.9622,5.9292,5.9657,6.0238,6.0842,6.1426,6.1757,6.1722,6.1322,6.0996,6.0966,6.038,6.0145,6.0652,6.0036,5.9982,6.0387,5.9898,5.9554,5.9355,5.9083,5.8848,5.9626,6.0188,6.0634,6.1003,6.1482,6.2006,6.2391,6.2635,6.2811,6.2811,6.2811,6.2811,6.2811,6.2811,6.2811,6.2811,6.2811,6.2811,6.2811,6.2811,6.2811,6.2811,6.2811,6.2811,6.2524,6.2597,6.2646,6.2572,6.2407,6.1991,6.1777,6.1918,6.2028,6.19,6.1863,6.1863,6.1826,6.1912,6.204,6.2426,6.2487,6.2542,6.267,6.2811,6.2799,6.2591,6.226,6.2169,6.1991,6.2101,6.2517,6.2616,6.2615,6.2677,6.2782,6.3454,6.4138,5.24,5.24,5.24,5.24,5.24,5.24,5.24,5.24,5.24,5.24,5.2418,5.2498,5.2964,5.3772,5.4611,5.5892,5.7408,5.7746,5.7936,5.79,5.8172,5.8011,5.7636,5.7914,5.7931,5.8003,5.8021,5.8112,5.8456,5.9192,5.9837,5.9964,5.9789,5.9862,6.0779,6.0459,5.9448,5.8857,5.8921,5.9835,6.0731,6.1194,6.1333,6.1297,6.0586,6.0477,6.0525,6.0061,6.0036,6.0489,6.0018,5.9735,5.9964,5.9826,5.9753,6.0254,6.0,5.9989,6.0296,6.064,6.0996,6.1448,6.1923,6.2333,6.2571,6.2711,6.2811,6.2811,6.2811,6.2811,6.2811,6.2811,6.2811,6.2811,6.2811,6.2811,6.2811,6.2811,6.2811,6.2811,6.2811,6.2811,6.2811,6.2774,6.2756,6.2701,6.2664,6.2469,6.234,6.2444,6.2554,6.2615,6.2597,6.2597,6.2542,6.2536,6.2426,6.2646,6.2646,6.2707,6.2744,6.2811,6.2811,6.2811,6.2609,6.2627,6.2811,6.2774,6.2719,6.2756,6.2799,6.2811,6.2842,6.3223,6.3829,5.24,5.24,5.24,5.24,5.24,5.24,5.24,5.24,5.24,5.2418,5.2489,5.265,5.3525,5.4577,5.483,5.5736,5.7823,5.7895,5.8086,5.8176,5.8157,5.7824,5.7502,5.7344,5.7297,5.7188,5.7369,5.7406,5.7684,5.8257,5.8938,5.9264,5.8902,5.9264,5.9597,5.9533,5.8949,5.8651,5.8697,5.9706,6.0981,6.1193,6.1209,6.0942,6.0496,6.0188,6.0579,6.0043,6.0025,6.0489,6.0326,6.0145,6.0405,6.0518,6.0634,6.1014,6.0978,6.1014,6.1093,6.1238,6.1473,6.1863,6.2237,6.2442,6.2667,6.2768,6.2811,6.2811,6.2811,6.2811,6.2811,6.2811,6.2811,6.2811,6.2811,6.2811,6.2811,6.2811,6.2811,6.2811,6.2811,6.2811,6.2811,6.2811,6.2799,6.2793,6.2811,6.2811,6.2793,6.2774,6.2793,6.2811,6.2811,6.2811,6.2811,6.2811,6.2811,6.2811,6.2811,6.2811,6.2811,6.2811,6.2811,6.2811,6.2811,6.2811,6.2811,6.2811,6.2811,6.2811,6.2811,6.2811,6.2909,6.3241,6.3565,5.24,5.24,5.24,5.24,5.24,5.24,5.24,5.24,5.24,5.2464,5.2606,5.2834,5.3649,5.463,5.4699,5.5389,5.7325,5.6709,5.6967,5.7236,5.7265,5.7247,5.7098,5.7057,5.7188,5.7188,5.7188,5.7206,5.7279,5.7665,5.8112,5.8329,5.8287,5.8637,5.8852,5.878,5.9093,5.9035,5.9213,5.9917,6.1211,6.1727,6.1713,6.1575,6.1104,6.0742,6.0767,6.0152,6.0242,6.1003,6.0851,6.0942,6.1304,6.1405,6.1575,6.1648,6.172,6.172,6.172,6.1745,6.1897,6.2062,6.2248,6.2462,6.266,6.2749,6.278,6.2811,6.2811,6.2811,6.2811,6.2811,6.2811,6.2811,6.2811,6.2811,6.2811,6.2811,6.2811,6.2811,6.2811,6.2811,6.2811,6.2811,6.2811,6.2811,6.2811,6.2811,6.2811,6.2793,6.2793,6.2811,6.2811,6.2811,6.2811,6.2811,6.2811,6.2811,6.2811,6.2811,6.2811,6.2811,6.2811,6.2811,6.2811,6.2811,6.2811,6.2811,6.2811,6.2811,6.2811,6.2811,6.2867,6.3101,6.3446,5.1986,5.24,5.24,5.24,5.24,5.24,5.24,5.24,5.24,5.256,5.2773,5.2808,5.3673,5.4645,5.4626,5.5526,5.7498,5.6741,5.6656,5.6789,5.698,5.6706,5.6592,5.6825,5.7188,5.7188,5.7213,5.7532,5.7931,5.7847,5.842,5.8673,5.8359,5.8703,5.885,5.8776,5.9351,6.0176,6.0117,6.0363,6.1416,6.1467,6.1267,6.1188,6.0489,6.0724,6.1231,6.0724,6.122,6.1752,6.1684,6.1774,6.1919,6.1992,6.201,6.201,6.201,6.201,6.201,6.203,6.206,6.2237,6.2356,6.2493,6.2673,6.2768,6.2811,6.2811,6.2811,6.2811,6.2811,6.2811,6.2811,6.2811,6.2811,6.2811,6.2811,6.2811,6.2811,6.2811,6.2811,6.2811,6.2811,6.2811,6.2811,6.2811,6.2811,6.2811,6.2811,6.2811,6.2811,6.2811,6.2811,6.2811,6.2811,6.2811,6.2811,6.2811,6.2811,6.2811,6.2811,6.2811,6.2811,6.2811,6.2811,6.2811,6.2811,6.2811,6.2811,6.2811,6.2811,6.2811,6.2898,6.2996,6.3267,5.1605,5.2077,5.2308,5.24,5.24,5.24,5.24,5.24,5.24,5.2551,5.2808,5.2825,5.3558,5.4476,5.4353,5.5219,5.6757,5.6565,5.6333,5.654,5.6803,5.6494,5.6317,5.6544,5.7188,5.7188,5.7261,5.7562,5.8293,5.8383,5.9017,5.947,5.9463,5.9554,5.9306,5.9362,5.9913,6.0918,6.0946,6.0732,6.1754,6.1539,6.1249,6.1249,6.0797,6.1202,6.1835,6.1691,6.1854,6.2349,6.2433,6.2028,6.201,6.201,6.201,6.201,6.201,6.201,6.201,6.203,6.2121,6.2316,6.2382,6.2551,6.2729,6.2811,6.2811,6.2811,6.2811,6.2811,6.2811,6.2811,6.2811,6.2811,6.2811,6.2811,6.2811,6.2811,6.2811,6.2811,6.2811,6.2811,6.2811,6.2811,6.2811,6.2811,6.2811,6.2811,6.2811,6.2811,6.2811,6.2811,6.2811,6.2811,6.2811,6.2811,6.2811,6.2811,6.2811,6.2811,6.2811,6.2811,6.2811,6.2811,6.2811,6.2811,6.2811,6.2811,6.2811,6.2811,6.2811,6.2811,6.2818,6.2923,6.3014,5.1306,5.1406,5.211,5.24,5.24,5.24,5.24,5.24,5.24,5.2489,5.2668,5.2946,5.3458,5.4024,5.379,5.4793,5.5957,5.5797,5.566,5.621,5.6729,5.6653,5.6659,5.6817,5.7188,5.7188,5.7279,5.7623,5.851,5.8594,5.9391,6.0387,6.0579,6.0369,5.9728,5.9631,6.0077,6.0736,6.0827,6.1353,6.1772,6.184,6.1792,6.172,6.1648,6.2017,6.2512,6.2155,6.2306,6.2863,6.2415,6.2053,6.201,6.201,6.201,6.201,6.201,6.201,6.201,6.201,6.2134,6.2323,6.2376,6.2525,6.2729,6.2805,6.2811,6.2811,6.2811,6.2811,6.2811,6.2811,6.2811,6.2964,6.2982,6.2964,6.2982,6.2811,6.2811,6.2811,6.2811,6.2811,6.2811,6.2811,6.2811,6.2811,6.2811,6.2811,6.2811,6.2811,6.2811,6.2811,6.2811,6.2811,6.2811,6.2811,6.2811,6.2811,6.2811,6.2811,6.2811,6.2811,6.2811,6.2811,6.2811,6.2811,6.2811,6.2811,6.2811,6.2811,6.2811,6.2811,6.2811,6.2824,6.2929,5.0867,5.1382,5.2093,5.24,5.24,5.24,5.24,5.24,5.2409,5.2489,5.2649,5.2894,5.3416,5.3764,5.3823,5.4301,5.5333,5.5052,5.5067,5.5726,5.6348,5.6434,5.6501,5.6824,5.7176,5.7188,5.7285,5.7985,5.9228,5.9192,6.0127,6.1213,6.1467,6.146,6.1267,6.1195,6.143,6.1575,6.1616,6.1749,6.1973,6.201,6.201,6.201,6.201,6.2397,6.3063,6.2415,6.2451,6.2997,6.244,6.2053,6.201,6.201,6.201,6.201,6.201,6.201,6.201,6.2023,6.2098,6.226,6.2369,6.2486,6.266,6.2767,6.2798,6.2854,6.2927,6.2909,6.2811,6.2829,6.2946,6.3411,6.3503,6.3429,6.3337,6.2982,6.2811,6.2811,6.2811,6.2811,6.2829,6.2811,6.2811,6.2811,6.2811,6.2811,6.2811,6.2811,6.2811,6.2811,6.2811,6.2811,6.2811,6.2811,6.2811,6.2811,6.2811,6.2811,6.2811,6.2811,6.2811,6.2811,6.2811,6.2811,6.2811,6.2811,6.2811,6.2811,6.2811,6.2811,6.2811,6.2811,6.283,5.0245,5.0983,5.1712,5.2176,5.2384,5.24,5.24,5.2409,5.2454,5.2533,5.2649,5.2886,5.3247,5.36,5.37,5.3971,5.4958,5.4657,5.4476,5.5167,5.5961,5.6066,5.6259,5.6798,5.7138,5.7243,5.7629,5.8347,5.9518,5.988,6.0706,6.163,6.201,6.1883,6.1883,6.1883,6.1901,6.1919,6.1919,6.1937,6.201,6.201,6.201,6.201,6.21,6.2379,6.2748,6.2675,6.2342,6.2712,6.2549,6.2028,6.201,6.201,6.201,6.201,6.201,6.201,6.201,6.201,6.218,6.2588,6.2483,6.2625,6.2822,6.2919,6.311,6.3166,6.3221,6.3258,6.3276,6.3276,6.3753,6.4237,6.4237,6.4163,6.4145,6.3827,6.3673,6.3582,6.3203,6.3129,6.2903,6.2811,6.2811,6.2811,6.2811,6.2836,6.2854,6.2811,6.2811,6.2811,6.2811,6.2811,6.2811,6.2811,6.2811,6.2811,6.2811,6.2811,6.2811,6.2811,6.2811,6.2811,6.2811,6.2811,6.2811,6.2817,6.2891,6.2872,6.2811,6.2811,6.2811,6.2817,6.2817,4.9533,5.0245,5.0974,5.1729,5.2284,5.2367,5.24,5.2409,5.2535,5.258,5.264,5.3007,5.3255,5.3264,5.3425,5.3833,5.4283,5.4297,5.4485,5.4816,5.5694,5.5744,5.6149,5.6725,5.71,5.7466,5.7919,5.8601,5.9608,6.0477,6.1304,6.1811,6.201,6.201,6.201,6.201,6.201,6.201,6.201,6.201,6.201,6.201,6.201,6.201,6.2064,6.2361,6.2567,6.2433,6.2487,6.256,6.2397,6.2143,6.201,6.201,6.201,6.201,6.201,6.201,6.2028,6.2046,6.2458,6.2878,6.287,6.3116,6.3424,6.3535,6.3734,6.3961,6.4115,6.4133,6.4151,6.4579,6.5013,6.5141,6.5141,6.5178,6.524,6.5129,6.5031,6.4726,6.417,6.3821,6.3276,6.3074,6.3056,6.3203,6.3239,6.3221,6.3166,6.2848,6.2829,6.2811,6.2811,6.2811,6.2811,6.2811,6.2811,6.2811,6.2811,6.2811,6.2811,6.2891,6.2982,6.2982,6.2854,6.2811,6.2811,6.2909,6.3037,6.3037,6.3276,6.2994,6.305,6.286,6.2916,4.921,4.9533,5.0759,5.1422,5.1688,5.2176,5.24,5.2418,5.2543,5.2623,5.2624,5.3016,5.3187,5.3204,5.3416,5.3626,5.3718,5.3907,5.4466,5.4973,5.5477,5.6059,5.6561,5.6966,5.7176,5.7484,5.8021,5.8884,5.9753,6.0833,6.163,6.1955,6.201,6.201,6.201,6.201,6.201,6.201,6.201,6.201,6.201,6.201,6.201,6.201,6.201,6.2252,6.2234,6.2216,6.2252,6.2198,6.2161,6.201,6.201,6.201,6.201,6.201,6.201,6.2028,6.2093,6.2542,6.3019,6.3474,6.3734,6.4161,6.4455,6.4509,6.4584,6.4787,6.4904,6.4904,6.5007,6.5405,6.5845,6.6029,6.5974,6.59,6.5919,6.5735,6.5625,6.5166,6.4622,6.4188,6.3668,6.3411,6.3429,6.3631,6.3704,6.3631,6.3521,6.3221,6.2866,6.2829,6.3001,6.3056,6.2854,6.2811,6.2811,6.2811,6.2927,6.3025,6.3068,6.316,6.3221,6.3288,6.3343,6.3105,6.2811,6.3092,6.368,6.3955,6.4157,6.3661,6.327,6.3276,6.3233,4.8854,4.921,5.0047,5.0751,5.1381,5.2102,5.24,5.2427,5.2543,5.2649,5.2755,5.305,5.3247,5.3332,5.345,5.3509,5.3517,5.3601,5.4045,5.4713,5.5308,5.5929,5.657,5.71,5.7182,5.7532,5.8239,5.9174,5.9989,6.1086,6.201,6.1992,6.201,6.201,6.201,6.201,6.201,6.201,6.201,6.201,6.201,6.201,6.201,6.201,6.201,6.201,6.201,6.201,6.201,6.201,6.201,6.201,6.201,6.201,6.201,6.2071,6.2397,6.2487,6.2668,6.3291,6.3708,6.4206,6.4777,6.5316,6.5304,6.5246,6.5395,6.557,6.5595,6.5668,6.587,6.6109,6.6512,6.6905,6.6714,6.6531,6.6347,6.6145,6.5772,6.5343,6.4909,6.45,6.4151,6.3876,6.3619,6.3503,6.3649,6.3931,6.3858,6.3686,6.3203,6.2872,6.3148,6.3349,6.3111,6.2927,6.3019,6.3184,6.3466,6.3527,6.3485,6.379,6.4169,6.4126,6.3985,6.3802,6.371,6.4102,6.4597,6.4824,6.4909,6.4579,6.4297,6.4261,6.42,4.839,4.9003,4.9077,5.0021,5.1306,5.2003,5.2317,5.2409,5.2517,5.2703,5.2911,5.3118,5.3298,5.3425,5.3501,5.3509,5.3576,5.366,5.4092,5.4548,5.5313,5.5981,5.6575,5.6926,5.7289,5.784,5.8631,5.9645,6.0217,6.1213,6.201,6.201,6.201,6.201,6.201,6.201,6.201,6.201,6.201,6.201,6.201,6.201,6.201,6.201,6.201,6.201,6.201,6.201,6.201,6.201,6.201,6.201,6.201,6.2198,6.2198,6.2451,6.2929,6.32,6.349,6.4041,6.4729,6.5243,6.5771,6.6225,6.6187,6.6006,6.6138,6.6408,6.6501,6.6501,6.6648,6.6849,6.718,6.7327,6.7235,6.7143,6.7051,6.6623,6.598,6.546,6.4836,6.4457,6.417,6.3876,6.3766,6.3441,6.3539,6.4011,6.4158,6.4078,6.3723,6.3166,6.3411,6.3613,6.3313,6.3203,6.3337,6.3558,6.3888,6.393,6.3814,6.4431,6.5257,6.508,6.4848,6.494,6.4995,6.524,6.5331,6.5441,6.5497,6.5435,6.5307,6.5123,6.4873,4.81,4.8324,4.887,4.9947,5.1224,5.1489,5.1894,5.2384,5.2444,5.2631,5.2894,5.3093,5.3289,5.345,5.3467,5.3475,5.3559,5.3939,5.4559,5.5122,5.5716,5.6241,5.6855,5.7189,5.7532,5.8268,5.9174,6.0242,6.1129,6.1756,6.201,6.201,6.201,6.201,6.201,6.201,6.201,6.201,6.201,6.201,6.201,6.201,6.201,6.201,6.201,6.201,6.201,6.201,6.201,6.201,6.201,6.201,6.201,6.2585,6.2856,6.3056,6.366,6.4029,6.433,6.4812,6.5428,6.5786,6.6206,6.672,6.6937,6.6825,6.6887,6.717,6.7333,6.7315,6.737,6.7554,6.7682,6.7682,6.7664,6.7664,6.7645,6.6868,6.6109,6.543,6.4769,6.442,6.4133,6.3931,6.3851,6.3833,6.3894,6.4158,6.4372,6.4408,6.4292,6.3906,6.3876,6.3913,6.3594,6.3496,6.3649,6.3949,6.4298,6.4273,6.4241,6.4887,6.565,6.5801,6.579,6.5845,6.59,6.598,6.6072,6.6164,6.6182,6.6157,6.5882,6.568,6.5368,4.8001,4.81,4.8787,4.9748,5.0742,5.1149,5.1721,5.2317,5.24,5.2542,5.2746,5.2911,5.3093,5.3331,5.3365,5.3467,5.3626,5.414,5.4713,5.5392,5.6066,5.657,5.7039,5.7539,5.7913,5.8601,5.9681,6.0785,6.1854,6.201,6.201,6.201,6.201,6.201,6.201,6.201,6.201,6.201,6.201,6.201,6.201,6.201,6.201,6.201,6.201,6.201,6.201,6.201,6.201,6.218,6.2361,6.2893,6.311,6.3552,6.3696,6.395,6.4403,6.4946,6.5174,6.5555,6.6062,6.6323,6.6526,6.7004,6.716,6.7067,6.7229,6.75,6.7547,6.7535,6.7535,6.7664,6.7682,6.7682,6.7535,6.7444,6.6849,6.6017,6.5356,6.4757,6.4353,6.4261,6.3913,6.3466,6.3404,6.3429,6.3619,6.3992,6.428,6.4555,6.4512,6.4439,6.4304,6.4176,6.3913,6.3876,6.3968,6.4316,6.4812,6.543,6.5819,6.5782,6.598,6.6379,6.6623,6.6678,6.6714,6.6721,6.6868,6.7015,6.6978,6.6923,6.6512,6.598,6.5595,4.8001,4.81,4.8672,4.9367,5.0104,5.0825,5.1546,5.2159,5.2351,5.2464,5.2623,5.264,5.2842,5.3076,5.3247,5.3416,5.3792,5.4432,5.4978,5.5611,5.6222,5.6932,5.7543,5.801,5.8492,5.9264,6.0351,6.1147,6.1973,6.201,6.201,6.201,6.201,6.201,6.201,6.201,6.201,6.201,6.201,6.201,6.201,6.201,6.201,6.201,6.201,6.201,6.201,6.2143,6.2143,6.2505,6.2947,6.3497,6.4004,6.4348,6.4504,6.474,6.5308,6.5663,6.5899,6.6297,6.658,6.6797,6.6932,6.7051,6.7189,6.7336,6.7499,6.7633,6.768,6.7682,6.7682,6.7682,6.7682,6.7572,6.7388,6.6893,6.5999,6.5203,6.464,6.4084,6.3937,6.3901,6.3601,6.3129,6.3056,6.3056,6.3246,6.3637,6.4011,6.4298,6.4427,6.4427,6.4353,6.4249,6.4268,6.4353,6.4439,6.5118,6.5723,6.6684,6.7258,6.6886,6.6829,6.725,6.7437,6.7272,6.7327,6.7363,6.7547,6.7547,6.6806,6.6384,6.6127,6.5668,6.5503,4.8001,4.8017,4.8166,4.863,4.9384,5.0096,5.0825,5.1538,5.2152,5.248,5.2588,5.2633,5.2816,5.3196,5.3382,5.3659,5.4155,5.4763,5.5474,5.6167,5.6646,5.7394,5.808,5.8601,5.9264,6.0181,6.1123,6.172,6.201,6.201,6.201,6.201,6.201,6.201,6.201,6.201,6.201,6.201,6.201,6.201,6.201,6.201,6.201,6.201,6.201,6.201,6.2143,6.265,6.2875,6.32,6.3708,6.4222,6.4693,6.5102,6.5301,6.5482,6.6062,6.6297,6.6543,6.6652,6.6797,6.6804,6.6903,6.7008,6.7158,6.7273,6.7458,6.766,6.7682,6.7682,6.7682,6.7682,6.7664,6.7345,6.7106,6.5968,6.4934,6.4439,6.3961,6.3521,6.3209,6.3191,6.3148,6.2891,6.2891,6.2909,6.2909,6.3246,6.3337,6.3778,6.4261,6.4261,6.4243,6.4732,6.4916,6.4934,6.5129,6.5845,6.6476,6.7051,6.7444,6.7584,6.7664,6.7682,6.7682,6.7572,6.7682,6.7682,6.7572,6.7327,6.62,6.557,6.5466,6.5448,6.5338]},{"header":{"parameterUnit":"m.s-1","parameterCategory":1,"la1":31.0,"la2":29.5877,"lo1":-88.7671,"lo2":-86.6584,"dy":0.0162,"dx":0.0185,"nx":115,"ny":88,"refTime":"2026-02-20T12:00:00:Z","depth":0,"parameterNumber":3,"parameterNumberName":"V-component_of_WINDS"},"data":[0.0,0.0,0.0,0.0,0.0,0.0,0.0,0.0,0.0,0.0,0.0,0.0,0.0,0.0,0.0,0.0,0.0,0.0,0.0,0.0,0.0,0.0,0.0,0.0,0.0,0.0,0.0,0.0,0.0,0.0,0.0,0.0,0.0,0.0,0.0,0.0,0.0,0.0,0.0,0.0,0.0,0.0,0.0,0.0,0.0,0.0,0.0,0.0,0.0,0.0,0.0,0.0,0.0,0.0,0.0,0.0,0.0,0.0,0.0,0.0,0.0,0.0,0.0,0.0,0.0,0.0,0.0,0.0,0.0,0.0,0.0,0.0,0.0,0.0,0.0,0.0,0.0,0.0,0.0,0.0,0.0,0.0,0.0,0.0,0.0,0.0,0.0,0.0,0.0,0.0,0.0,0.0,0.0,0.0,0.0,0.0,0.0,0.0,0.0,0.0,0.0,0.0,0.0,0.0,0.0,0.0,0.0,0.0,0.0,0.0,0.0,0.0,0.0,0.0,0.0,0.0,0.0,0.0,0.0,0.0,0.0,0.0,0.0,0.0,0.0,0.0,0.0,0.0,0.0,0.0,0.0,0.0,0.0,0.0,0.0,0.0,0.0,0.0,0.0,0.0,0.0,0.0,0.0,0.0,0.0,0.0,0.0,0.0,0.0,0.0,0.0,0.0,0.0,0.0,0.0,0.0,0.0,0.0,0.0,0.0,0.0,0.0,0.0,0.0,0.0,0.0,0.0,0.0,0.0,0.0,0.0,0.0,0.0,0.0,0.0,0.0,0.0,0.0,0.0,0.0,0.0,0.0,0.0,0.0,0.0,0.0,0.0,0.0,0.0,0.0,0.0,0.0,0.0,0.0,0.0,0.0,0.0,0.0,0.0,0.0,0.0,0.0,0.0,0.0,0.0,0.0,0.0,0.0,0.0,0.0,0.0,0.0,0.0,0.0,0.0,0.0,0.0,0.0,0.0,0.0,0.0,0.0,0.0,0.0,0.0,0.0,0.0,0.0,0.0,0.0,0.0,0.0,0.0,0.0,0.0,0.0,0.0,0.0,0.0,0.0,0.0,0.0,0.0,0.0,0.0,0.0,0.0,0.0,0.0,0.0,0.0,0.0,0.0,0.0,0.0,0.0,0.0,0.0,0.0,0.0,0.0,0.0,0.0,0.0,0.0,0.0,0.0,0.0,0.0,0.0,0.0,0.0,0.0,0.0,0.0,0.0,0.0,0.0,0.0,0.0,0.0,0.0,0.0,0.0,0.0,0.0,0.0,0.0,0.0,0.0,0.0,0.0,0.0,0.0,0.0,0.0,0.0,0.0,0.0,0.0,0.0,0.0,0.0,0.0,0.0,0.0,0.0,0.0,0.0,0.0,0.0,0.0,0.0,0.0,0.0,0.0,0.0,0.0,0.0,0.0,0.0,0.0,0.0,0.0,0.0,0.0,0.0,0.0,0.0,0.0,0.0,0.0,0.0,0.0,0.0,0.0,0.0,0.0,0.0,0.0,0.0,0.0,0.0,0.0,0.0,0.0,0.0,0.0,0.0,0.0,0.0,0.0,0.0,0.0,0.0,0.0,0.0,0.0,0.0,0.0,0.0,0.0,0.0,0.0,0.0,0.0,0.0,0.0,0.0,0.0,0.0,0.0,0.0,0.0,0.0,0.0,0.0,0.0,0.0,0.0,0.0,0.0,0.0,0.0,0.0,0.0,0.0,0.0,0.0,0.0,0.0,0.0,0.0,0.0,0.0,0.0,0.0,0.0,0.0,0.0,0.0,0.0,0.0,0.0,0.0,0.0,0.0,0.0,0.0,0.0,0.0,0.0,0.0,0.0,0.0,0.0,0.0,0.0,0.0,0.0,0.0,0.0,0.0,0.0,0.0,0.0,0.0,0.0,0.0,0.0,0.0,0.0,0.0,0.0,0.0,0.0,0.0,0.0,0.0,0.0,0.0,0.0,0.0,0.0,0.0,0.0,0.0,0.0,0.0,0.0,0.0,0.0,0.0,0.0,0.0,0.0,0.0,0.0,0.0,0.0,0.0,0.0,0.0,0.0,0.0,0.0,0.0,0.0,0.0,0.0,0.0,0.0,0.0,0.0,0.0,0.0,0.0,0.0,0.0,0.0,0.0,0.0,0.0,0.0,0.0,0.0,0.0,0.0,0.0,0.0,0.0,0.0,0.0,0.0,0.0,0.0,0.0,0.0,0.0,0.0,0.0,0.0,0.0,0.0,0.0,0.0,0.0,0.0,0.0,0.0,0.0,0.0,0.0,0.0,0.0,0.0,0.0,0.0,0.0,0.0,0.0,0.0,0.0,0.0,0.0,0.0,0.0,0.0,0.0,0.0,0.0,0.0,0.0,0.0,0.0,0.0,0.0,0.0,0.0,0.0,0.0,0.0,0.0,0.0,0.0,0.0,0.0,0.0,0.0,0.0,0.0,0.0,0.0,0.0,0.0,0.0,0.0,0.0,0.0,0.0,0.0,0.0,0.0,0.0,0.0,0.0,0.0,0.0,0.0,0.0,0.0,0.0,0.0,0.0,0.0,0.0,0.0,0.0,0.0,0.0,0.0,0.0,0.0,0.0,0.0,0.0,0.0,0.0,0.0,0.0,0.0,0.0,0.0,0.0,0.0,0.0,0.0,0.0,0.0,0.0,0.0,0.0,0.0,0.0,0.0,0.0,0.0,0.0,0.0,0.0,0.0,0.0,0.0,0.0,0.0,0.0,0.0,0.0,0.0,0.0,0.0,0.0,0.0,0.0,0.0,0.0,0.0,0.0,0.0,0.0,0.0,0.0,0.0,0.0,0.0,0.0,0.0,0.0,0.0,0.0,0.0,0.0,0.0,0.0,0.0,0.0,0.0,0.0,0.0,0.0,0.0,0.0,0.0,0.0,0.0,0.0,0.0,0.0,0.0,0.0,0.0,0.0,0.0,0.0,0.0,0.0,0.0,0.0,0.0,0.0,0.0,0.0,0.0,0.0,0.0,0.0,0.0,0.0,0.0,0.0,0.0,0.0,0.0,0.0,0.0,0.0,0.0,0.0,0.0,0.0,0.0,0.0,0.0,0.0,0.0,0.0,0.0,0.0,0.0,0.0,0.0,0.0,0.0,0.0,0.0,0.0,0.0,0.0,0.0,0.0,0.0,0.0,0.0,0.0,0.0,0.0,0.0,0.0,0.0,0.0,0.0,0.0,0.0,0.0,0.0,0.0,0.0,0.0,0.0,0.0,0.0,0.0,0.0,0.0,0.0,0.0,0.0,0.0,0.0,0.0,0.0,0.0,0.0,0.0,0.0,0.0,0.0,0.0,0.0,0.0,0.0,0.0,0.0,0.0,0.0,0.0,0.0,0.0,0.0,0.0,0.0,0.0,0.0,0.0,0.0,0.0,0.0,0.0,0.0,0.0,0.0,0.0,0.0,0.0,0.0,0.0,0.0,0.0,0.0,0.0,0.0,0.0,0.0,0.0,0.0,0.0,0.0,0.0,0.0,0.0,0.0,0.0,0.0,0.0,0.0,0.0,0.0,0.0,0.0,0.0,0.0,0.0,0.0,0.0,0.0,0.0,0.0,0.0,0.0,0.0,0.0,0.0,0.0,0.0,0.0,0.0,0.0,0.0,0.0,0.0,0.0,0.0,0.0,0.0,0.0,0.0,0.0,0.0,0.0,0.0,0.0,0.0,0.0,0.0,0.0,0.0,0.0,0.0,0.0,0.0,0.0,0.0,0.0,0.0,0.0,0.0,0.0,0.0,0.0,0.0,0.0,0.0,0.0,0.0,0.0,0.0,0.0,0.0,0.0,0.0,0.0,0.0,0.0,0.0,0.0,0.0,0.0,0.0,0.0,0.0,0.0,0.0,0.0,0.0,0.0,0.0,0.0,0.0,0.0,0.0,0.0,0.0,0.0,0.0,0.0,0.0,0.0,0.0,0.0,0.0,0.0,0.0,0.0,0.0,0.0,0.0,0.0,0.0,0.0,0.0,0.0,0.0,0.0,0.0,0.0,0.0,0.0,0.0,0.0,0.0,0.0,0.0,0.0,0.0,0.0,0.0,0.0,0.0,0.0,0.0,0.0,0.0,0.0,0.0,0.0,0.0,0.0,0.0,0.0,0.0,0.0,0.0,0.0,0.0,0.0,0.0,0.0,0.0,0.0,0.0,0.0,0.0,0.0,0.0,0.0,0.0,0.0,0.0,0.0,0.0,0.0,0.0,0.0,0.0,0.0,0.0,0.0,0.0,0.0,0.0,0.0,0.0,0.0,0.0,0.0,0.0,0.2913,0.0,0.0,0.0,0.0,0.0,0.0,0.0,0.0,0.0,0.0,0.0,0.0,0.0,0.0,0.0,0.0,0.0,0.0,0.0,0.0,0.0,0.0,0.0,0.0,0.0,0.0,0.0,0.0,0.0,0.0,0.0,0.0,0.0,0.0,0.0,0.0,0.0,0.0,0.0,0.0,0.0,0.0,0.0,0.0,0.0,0.0,0.0,0.0,0.0,0.0,0.0,0.0,0.0,0.0,0.0,0.0,0.0,0.0,0.0,0.0,0.0,0.0,0.0,0.0,0.0,0.0,0.0,0.0,0.0,0.0,0.0,0.0,0.0,0.0,0.0,0.0,0.0,0.0,0.0,0.0,0.0,0.0,0.0,0.0,0.0,0.0,0.0,0.0,0.0,0.0,0.0,0.0,0.0,0.0,0.0,0.0,0.0,0.0,0.0,0.0,0.0,0.0,0.0,0.0,0.0,0.0,0.0,0.0,0.0,0.0,0.3335,0.3204,0.3204,0.3167,0.307,0.0,0.0,0.0,0.0,0.0,0.0,0.0,0.0,0.0,0.0,0.0,0.0,0.0,0.0,0.0,0.0,0.0,0.0,0.0,0.0,0.0,0.0,0.0,0.0,0.0,0.0,0.0,0.0,0.0,0.0,0.0,0.0,0.0,0.0,0.0,0.0,0.0,0.0,0.0,0.0,0.0,0.0,0.0,0.0,0.0,0.0,0.0,0.0,0.0,0.0,0.0,0.0,0.0,0.0,0.0,0.0,0.0,0.0,0.0,0.0,0.0,0.0,0.0,0.0,0.0,0.0,0.0,0.0,0.0,0.0,0.0,0.0,0.0,0.0,0.0,0.0,0.0,0.0,0.0,0.0,0.0,0.0,0.0,0.0,0.0,0.0,0.0,0.0,0.0,0.0,0.0,0.0,0.0,0.0,0.0,0.0,0.0,0.0,0.0,0.0,0.0,0.0,0.0,0.0,0.0,0.0,0.0,0.0,0.0,0.0,0.0,0.0,0.334,0.3328,0.3315,0.0,0.0,0.0,0.0,0.0,0.0,0.0,0.0,0.0,0.0,0.0,0.0,0.0,0.0,0.0,0.0,0.0,0.0,0.0,0.0,0.0,0.0,0.0,0.0,0.0,0.0,0.0,0.0,0.0,0.0,0.0,0.0,0.0,0.0,0.0,0.0,0.0,0.0,0.0,0.0,0.0,0.0,0.0,0.0,0.0,0.0,0.0,0.0,0.0,0.0,0.0,0.0,0.0,0.0,0.0,0.0,0.0,0.0,0.0,0.0,0.0,0.0,0.0,0.0,0.0,0.0,0.0,0.0,0.0,0.0,0.0,0.0,0.0,0.0,0.0,0.0,0.0,0.0,0.0,0.0,0.0,0.0,0.0,0.0,0.0,0.0,0.0,0.0,0.0,0.0,0.0,0.0,0.0,0.0,0.0,0.0,0.0,0.0,0.0,0.0,0.0,0.0,0.0,0.0,0.0,0.0,0.0,0.0,0.0,0.0,0.3697,0.3752,0.3739,0.0,0.3659,0.0,0.0,0.0,0.0,0.0,0.0,0.0,0.0,0.0,0.0,0.0,0.0,0.0,0.0,0.0,0.0,0.0,0.0,0.0,0.0,0.0,0.0,0.0,0.0,0.0,0.0,0.0,0.0,0.0,0.0,0.0,0.0,0.0,0.0,0.0,0.0,0.0,0.0,0.0,0.0,0.0,0.0,0.0,0.0,0.0,0.0,0.0,0.0,0.0,0.0,0.0,0.0,0.0,0.0,0.0,0.0,0.0,0.0,0.0,0.0,0.0,0.0,0.0,0.0,0.0,0.0,0.0,0.0,0.0,0.0,0.0,0.0,0.0,0.0,0.0,0.0,0.0,0.0,0.0,0.0,0.0,0.0,0.0,0.0,0.0,0.0,0.0,0.0,0.0,0.0,0.0,0.0,0.0,0.0,0.0,0.0,0.0,0.0,0.0,0.0,0.0,0.0,0.0,0.0,0.0,0.0,0.0,0.0,0.0,0.0,0.0,0.3743,0.3667,0.3614,0.0,0.0,0.0,0.0,0.0,0.0,0.0,0.0,0.0,0.0,0.0,0.0,0.0,0.0,0.0,0.0,0.0,0.0,0.0,0.0,0.0,0.0,0.0,0.0,0.0,0.0,0.0,0.0,0.0,0.0,0.0,0.0,0.0,0.0,0.0,0.0,0.0,0.0,0.0,0.0,0.0,0.0,0.0,0.0,0.0,0.0,0.0,0.0,0.0,0.0,0.0,0.0,0.0,0.0,0.0,0.0,0.0,0.0,0.0,0.0,0.0,0.0,0.0,0.0,0.0,0.0,0.0,0.0,0.0,0.0,0.0,0.0,0.0,0.0,0.0,0.0,0.0,0.0,0.0,0.0,0.0,0.0,0.0,0.0,0.0,0.0,0.0,0.0,0.0,0.0,0.0,0.0,0.0,0.0,0.0,0.0,0.0,0.0,0.0,0.0,0.0,0.0,0.0,0.0,0.0,0.0,0.0,0.0,0.0,0.0,0.4049,0.0,0.3772,0.3663,0.3591,0.3547,0.0,0.0,0.0,0.0,0.0,0.0,0.0,0.0,0.0,0.0,0.0,0.0,0.0,0.0,0.0,0.0,0.0,0.0,0.0,0.0,0.0,0.0,0.0,0.0,0.0,0.0,0.0,0.0,0.0,0.0,0.0,0.0,0.0,0.0,0.0,0.0,0.0,0.0,0.0,0.0,0.0,0.0,0.0,0.0,0.0,0.0,0.0,0.0,0.0,0.0,0.0,0.0,0.0,0.0,0.0,0.0,0.0,0.0,0.0,0.0,0.0,0.0,0.0,0.0,0.0,0.0,0.0,0.0,0.0,0.0,0.0,0.0,0.0,0.0,0.0,0.0,0.0,0.0,0.0,0.0,0.0,0.0,0.0,0.0,0.0,0.0,0.0,0.0,0.0,0.0,0.0,0.0,0.0,0.0,0.0,0.0,0.0,0.0,0.0,0.0,0.0,0.0,0.0,0.0,0.0,0.0,0.0,0.0,0.0,0.4193,0.4062,0.3973,0.3909,0.3823,0.0,0.0,0.0,0.0,0.0,0.0,0.0,0.0,0.0,0.0,0.0,0.0,0.0,0.0,0.0,0.0,0.0,0.0,0.0,0.0,0.0,0.0,0.0,0.0,0.0,0.0,0.0,0.0,0.0,0.0,0.0,0.0,0.0,0.0,0.0,0.0,0.0,0.0,0.0,0.0,0.0,0.0,0.0,0.0,0.0,0.0,0.0,0.0,0.0,0.0,0.0,0.0,0.0,0.0,0.0,0.0,0.0,0.0,0.0,0.0,0.0,0.0,0.0,0.0,0.0,0.0,0.0,0.0,0.0,0.0,0.0,0.0,0.0,0.0,0.0,0.0,0.0,0.0,0.0,0.0,0.0,0.0,0.0,0.0,0.0,0.0,0.0,0.0,0.0,0.0,0.0,0.0,0.0,0.0,0.0,0.0,0.0,0.0,0.0,0.0,0.0,0.0,0.0,0.0,0.0,0.0,0.0,0.0,0.0,0.4205,0.4051,0.3979,0.0,0.3775,0.3653,0.0,0.0,0.0,0.0,0.0,0.0,0.0,0.0,0.0,0.0,0.0,0.0,0.0,0.0,0.0,0.0,0.0,0.0,0.0,0.0,0.0,0.0,0.0,0.0,0.0,0.0,0.0,0.0,0.0,0.0,0.0,0.0,0.0,0.0,0.0,0.0,0.0,0.0,0.0,0.0,0.0,0.0,0.0,0.0,0.0,0.0,0.0,0.0,0.0,0.0,0.0,0.0,0.0,0.0,0.0,0.0,0.0,0.0,0.0,0.0,0.0,0.0,0.0,0.0,0.0,0.0,0.0,0.0,0.0,0.0,0.0,0.0,0.0,0.0,0.0,0.0,0.0,0.0,0.0,0.0,0.0,0.0,0.0,0.0,0.0,0.0,0.0,0.0,0.0,0.0,0.0,0.0,0.0,0.0,0.0,0.0,0.0,0.0,0.0,0.0,0.0,0.0,0.0,0.0,0.0,0.0,0.0,0.0,0.0,0.4169,0.0,0.394,0.0,0.37,0.3565,0.0,0.0,0.0,0.0,0.0,0.0,0.0,0.0,0.0,0.0,0.0,0.0,0.0,0.0,0.0,0.0,0.0,0.0,0.0,0.0,0.0,0.0,0.0,0.0,0.0,0.0,0.0,0.0,0.0,0.0,0.0,0.0,0.0,0.0,0.0,0.0,0.0,0.0,0.0,0.0,0.0,0.0,0.0,0.0,0.0,0.0,0.0,0.0,0.0,0.0,0.0,0.0,0.0,0.0,0.0,0.0,0.0,0.0,0.0,0.0,0.0,0.0,0.0,0.0,0.0,0.0,0.0,0.0,0.0,0.0,0.0,0.0,0.0,0.0,0.0,0.0,0.0,0.0,0.0,0.0,0.0,0.0,0.0,0.0,0.0,0.0,0.0,0.0,0.0,0.0,0.0,0.0,0.0,0.0,0.0,0.0,0.0,0.0,0.0,0.0,0.0,0.0,0.0,0.0,0.0,0.0,0.0,0.0,0.0,0.43,0.412,0.3936,0.3717,0.3714,0.355,0.0,0.0,0.0,0.0,0.0,0.0,0.0,0.0,0.0,0.0,0.0,0.0,0.0,0.0,0.0,0.0,0.0,0.0,0.0,0.0,0.0,0.0,0.0,0.0,0.0,0.0,0.0,0.0,0.0,0.0,0.0,0.0,0.0,0.0,0.0,0.0,0.0,0.0,0.0,0.0,0.0,0.0,0.0,0.0,0.0,0.0,0.0,0.0,0.0,0.0,0.0,0.0,0.0,0.0,0.0,0.0,0.0,0.0,0.0,0.0,0.0,0.0,0.0,0.0,0.0,0.0,0.0,0.0,0.0,0.0,0.0,0.0,0.0,0.0,0.0,0.0,0.0,0.0,0.0,0.0,0.0,0.0,0.0,0.0,0.0,0.0,0.0,0.0,0.0,0.0,0.0,0.0,0.0,0.0,0.0,0.0,0.0,0.0,0.0,0.0,0.0,0.0,0.0,0.0,0.0,0.0,0.0,0.0,0.0,0.4784,0.4463,0.4279,0.4238,0.3901,0.3781,0.0,0.0,0.0,0.0,0.0,0.0,0.0,0.0,0.0,0.0,0.0,0.0,0.0,0.0,0.0,0.0,0.0,0.0,0.0,0.0,0.0,0.0,0.0,0.0,0.0,0.0,0.0,0.0,0.0,0.0,0.0,0.0,0.0,0.0,0.0,0.0,0.0,0.0,0.0,0.0,0.0,0.0,0.0,0.0,0.0,0.0,0.0,0.0,0.0,0.0,0.0,0.0,0.0,0.0,0.0,0.0,0.0,0.0,0.0,0.0,0.0,0.0,0.0,0.0,0.0,0.0,0.0,0.0,0.0,0.0,0.0,0.0,0.0,0.0,0.0,0.0,0.0,0.0,0.0,0.0,0.0,0.0,0.0,0.0,0.0,0.0,0.0,0.0,0.0,0.0,0.0,0.0,0.0,0.0,0.0,0.0,0.0,0.0,0.0,0.0,0.0,0.0,0.0,0.0,0.0,0.0,0.0,0.0,0.0,0.5818,0.5,0.4651,0.4845,0.4407,0.4363,0.476,0.0,0.0,0.0,0.0,0.0,0.0,0.0,0.0,0.0,0.0,0.0,0.0,0.0,0.0,0.0,0.0,0.0,0.0,0.0,0.0,0.0,0.0,0.0,0.0,0.0,0.0,0.0,0.0,0.0,0.0,0.0,0.0,0.0,0.0,0.0,0.0,0.0,0.0,0.0,0.0,0.0,0.0,0.0,0.0,0.0,0.0,0.0,0.0,0.0,0.0,0.0,0.0,0.0,0.0,0.0,0.0,0.0,0.0,0.0,0.0,0.0,0.0,0.0,0.0,0.0,0.0,0.0,0.0,0.0,0.0,0.0,0.0,0.0,0.0,0.0,0.0,0.0,0.0,0.0,0.0,0.0,0.0,0.0,0.0,0.0,0.0,0.0,0.0,0.0,0.0,0.0,0.0,0.0,0.0,0.0,0.0,0.0,0.0,0.0,0.0,0.0,0.0,0.0,0.0,0.0,0.0,0.0,0.0,0.7347,0.5818,0.5203,0.5528,0.5256,0.5252,0.0,0.0,0.0,0.0,0.0,0.0,0.0,0.0,0.0,0.0,0.0,0.0,0.0,0.0,0.0,0.0,0.0,0.0,0.0,0.0,0.0,0.0,0.0,0.0,0.0,0.0,0.0,0.0,0.0,0.0,0.0,0.0,0.0,0.0,0.0,0.0,0.0,0.0,0.0,0.0,0.0,0.0,0.0,0.0,0.0,0.0,0.0,0.0,0.0,0.0,0.0,0.0,0.0,0.0,0.0,0.0,0.0,0.0,0.0,0.0,0.0,0.0,0.0,0.0,0.0,0.0,0.0,0.0,0.0,0.0,0.0,0.0,0.0,0.0,0.0,0.0,0.0,0.0,0.0,0.0,0.0,0.0,0.0,0.0,0.0,0.0,0.0,0.0,0.0,0.0,0.0,0.0,0.0,0.0,0.0,0.0,0.0,0.0,0.0,0.0,0.0,0.0,0.0,0.0,0.0,0.0,0.0,0.0,0.0,0.7941,0.767,0.7413,0.7173,0.6573,0.6072,0.0,0.0,0.0,0.0,0.0,0.0,0.0,0.0,0.0,0.0,0.0,0.0,0.0,0.0,0.0,0.0,0.0,0.0,0.0,0.0,0.0,0.0,0.0,0.0,0.0,0.0,0.0,0.0,0.0,0.0,0.0,0.0,0.0,0.0,0.0,0.0,0.0,0.0,0.0,0.0,0.0,0.0,0.0,0.0,0.0,0.0,0.0,0.0,0.0,0.0,0.0,0.0,0.0,0.0,0.0,0.0,0.0,0.0,0.0,0.0,0.0,0.0,0.0,0.0,0.0,0.0,0.0,0.0,0.0,0.0,0.0,0.0,0.0,0.0,0.0,0.0,0.0,0.0,0.0,0.0,0.0,0.0,0.0,0.0,0.0,0.0,0.0,0.0,0.0,0.0,0.0,0.0,0.0,0.0,0.0,0.0,0.0,0.0,0.0,0.0,0.0,0.0,0.0,0.0,0.0,0.0,0.0,0.0,0.8467,0.8914,0.9288,0.9333,0.9059,0.8057,0.7317,0.0,0.0,0.0,0.0,0.0,0.0,0.0,0.0,0.0,0.0,0.0,0.0,0.0,0.0,0.0,0.0,0.0,0.0,0.0,0.0,0.0,0.0,0.0,0.0,0.0,0.0,0.0,0.0,0.0,0.0,0.0,0.0,0.0,0.0,0.0,0.0,0.0,0.0,0.0,0.0,0.0,0.0,0.0,0.0,0.0,0.0,0.0,0.0,0.0,0.0,0.0,0.0,0.0,0.0,0.0,0.0,0.0,0.0,0.0,0.0,0.0,0.0,0.0,0.0,0.0,0.0,0.0,0.0,0.0,0.0,0.0,0.0,0.0,0.0,0.0,0.0,0.0,0.0,0.0,0.0,0.0,0.0,0.0,0.0,0.0,0.0,0.0,0.0,0.0,0.0,0.0,0.0,0.0,0.0,0.0,0.0,0.0,0.0,0.0,0.0,0.0,0.0,0.0,0.0,0.0,0.0,0.0,0.0,0.9103,1.0093,1.0684,1.0988,1.0956,0.9559,0.8694,0.0,0.0,0.0,0.0,0.0,0.0,0.0,0.0,0.0,0.0,0.0,0.0,0.0,0.0,0.0,0.0,0.0,0.0,0.0,0.0,0.0,0.0,0.0,0.0,0.0,0.0,0.0,0.0,0.0,0.0,0.0,0.0,0.0,0.0,0.0,0.0,0.0,0.0,0.0,0.0,0.0,0.0,0.0,0.0,0.0,0.0,0.0,0.0,0.0,0.0,0.0,0.0,0.0,0.0,0.0,0.0,0.0,0.0,0.0,0.0,0.0,0.0,0.0,0.0,0.0,0.0,0.0,0.0,0.0,0.0,0.0,0.0,0.0,0.0,0.0,0.0,0.0,0.0,0.0,0.0,0.0,0.0,0.0,0.0,0.0,0.0,0.0,0.0,0.0,0.0,0.0,0.0,0.0,0.0,0.0,0.0,0.0,0.0,0.0,0.0,0.0,0.0,0.0,0.0,0.0,0.0,0.0,0.0,1.0543,1.138,1.1885,1.2194,1.2301,1.0768,0.9284,0.0,0.0,0.0,0.0,0.0,0.0,0.0,0.0,0.0,0.0,0.0,0.0,0.0,0.0,0.0,0.0,0.0,0.0,0.0,0.0,0.0,0.0,0.0,0.0,0.0,0.0,0.0,0.0,0.0,0.0,0.0,0.0,0.0,0.0,0.0,0.0,0.0,0.0,0.0,0.0,0.0,0.0,0.0,0.0,0.0,0.0,0.0,0.0,0.0684,0.0,0.0,0.0,0.0,0.0,0.0,0.0,0.0,0.0,0.0,0.0,0.0,0.0,0.0,0.0,0.0,0.0,0.0,0.0,0.0,0.0,0.0,0.0,0.0,0.0,0.0,0.0,0.0,0.0,0.0,0.0,0.0,0.0,0.0,0.0,0.0,0.0,0.0,0.0,0.0,0.0,0.0,0.0,0.0,0.0,0.0,0.0,0.0,0.0,0.0,0.0,0.0,0.0,0.0,0.0,0.0,0.0,0.0,0.0,1.1069,1.1869,1.2287,1.2529,1.2577,1.1628,1.0439,0.0,0.0,0.0,0.0,0.0,0.0,0.0,0.0,0.0,0.0,0.0,0.0,0.0,0.0,0.0,0.0,0.0,0.0,0.0,0.0,0.0,0.0,0.0,0.0,0.0,0.0,0.0,0.0,0.0,0.0,0.0,0.0,0.0,0.0,0.0,0.0,0.0,0.0,0.0,0.0,0.0,0.0,0.0,0.0,0.0,0.0,0.0,0.0,0.0,0.0,0.0,0.0,0.0,0.0,0.0,0.0,0.0,0.0,0.0,0.0,0.0,0.0,0.0,0.0,0.0,0.0,0.0,0.0,0.0,0.0,0.0,0.0,0.0,0.0,0.0,0.0,0.0,0.0,0.0,0.0,0.0,0.0,0.0,0.0,0.0,0.0,0.0,0.0,0.0,0.0,0.0,0.0,0.0,0.0,0.0,0.0,0.0,0.0,0.0,0.0,0.0,0.0,0.0,0.0,0.0,0.0,0.0,1.0451,1.127,1.213,1.2484,1.2664,1.2641,1.225,1.159,0.0,0.0,0.0,0.0,0.0,0.0,0.0,0.0,0.0,0.0,0.0,0.0,0.0,0.0,0.0,0.0,0.0,0.0,0.0,0.0,0.0,0.0,0.0,0.0,0.0,0.0,0.0,0.0,0.0,0.0,0.0,0.0,0.0,0.0,0.0,0.0,0.0,0.0,0.0,0.063,0.0728,0.0,0.0,0.0,0.0,0.0,0.0,0.0,0.0,0.0847,0.0,0.0,0.0,0.0,0.0,0.0,0.0,0.0,0.0,0.0,0.0,0.0,0.0,0.0,0.0,0.0,0.0,0.0,0.0,0.0,0.0,0.0,0.0,0.0,0.0,0.0,0.0,0.0,0.0,0.0,0.0,0.0,0.0,0.0,0.0,0.0,0.0,0.0,0.0,0.0,0.0,0.0,0.0,0.0,0.0,0.0,0.0,0.0,0.0,0.0,0.0,0.0,0.0,0.0,0.0,0.0,1.0799,1.0967,1.163,1.2803,1.3153,1.333,1.3313,1.2632,1.1977,1.1383,0.0,0.0,0.0,0.0,0.0,0.0,0.0,0.0,0.0,0.0,0.0,0.0,0.0,0.0,0.0,0.0,0.0,0.0,0.0,0.0,0.0,0.0,0.0,0.0,0.0,0.0,0.0,0.0,0.0,0.0,0.0,0.0,0.0,0.0,0.0,0.0,0.0,0.0,0.0,0.0834,0.0887,0.0,0.0,0.0,0.0,0.0,0.0,0.0,0.0,0.1402,0.0,0.0,0.0,0.0,0.0,0.0,0.0,0.0,0.0,0.0,0.0,0.0,0.0,0.0,0.0,0.0,0.0,0.0,0.0,0.0,0.0,0.0,0.0,0.0,0.0,0.0,0.0,0.0,0.0,0.0,0.0,0.0,0.0,0.0,0.0,0.0,0.0,0.0,0.0,0.0,0.0,0.0,0.0,0.0,0.0,0.0,0.0,0.0,0.0,0.0,0.0,0.0,0.0,0.0,0.0,1.055,1.1399,1.2203,1.2987,1.3331,1.3492,1.347,1.2624,1.1936,0.0,0.0,0.0,0.0,0.0,0.0,0.0,0.0,0.0,0.0,0.0,0.0,0.0,0.0,0.0,0.0,0.0,0.0,0.0,0.0,0.0,0.0,0.0,0.0,0.0,0.0,0.0,0.0,0.0,0.0,0.0,0.0,0.0,0.0,0.0,0.0,0.0,0.0,0.0,0.0,0.1176,0.1428,0.1456,0.0,0.0,0.0,0.0,0.0,0.0,0.2071,0.2076,0.0,0.0,0.0,0.0,0.0,0.0,0.0,0.0,0.0,0.0,0.0,0.0,0.0,0.0,0.0,0.0,0.0,0.0,0.0,0.0,0.0,0.0,0.0,0.0,0.0,0.0,0.0,0.0,0.0,0.0,0.0,0.0,0.0,0.0,0.0,0.0,0.0,0.0,0.0,0.0,0.0,0.0,0.0,0.0,0.0,0.0,0.0,0.0,0.0,0.0,0.0,0.0,0.0,0.0,0.0,1.0221,1.1596,1.2569,1.3082,1.3351,1.3492,1.3477,1.2597,1.1899,0.0,0.0,0.0,0.0,0.0,0.0,0.0,0.0,0.0,0.0,0.0,0.0,0.0,0.0,0.0,0.0,0.0,0.0,0.0,0.0,0.0,0.0,0.0,0.0,0.0,0.0,0.0,0.0,0.0,0.0,0.0,0.0,0.0,0.0,0.0,0.0,0.0,0.0,0.0,0.0,0.0,0.1948,0.1794,0.2024,0.0,0.0,0.0,0.0,0.2877,0.2966,0.0,0.0,0.0,0.0,0.0,0.0,0.0,0.0,0.0,0.0,0.0,0.0,0.0,0.0,0.0,0.0,0.0,0.0,0.0,0.0,0.0,0.0,0.0,0.0,0.0,0.0,0.0,0.0,0.0,0.0,0.0,0.0,0.0,0.0,0.0,0.0,0.0,0.0,0.0,0.0,0.0,0.0,0.0,0.0,0.0,0.0,0.0,0.0,0.0,0.0,0.0,0.0,0.0,0.0,0.0,0.0,1.0514,1.1297,1.2274,1.3376,1.3486,1.3492,1.3484,1.2817,1.2166,0.0,0.0,0.0,0.0,0.0,0.0,0.0,0.0,0.0,0.0,0.0,0.0,0.0,0.0,0.0,0.0,0.0,0.0,0.0,0.0,0.0,0.0,0.0,0.0,0.0,0.0,0.0,0.0,0.0,0.0,0.0,0.0,0.0,0.0,0.0,0.0,0.0,0.0,0.0,0.0,0.0,0.2022,0.1143,0.2286,0.2966,0.0,0.0,0.0,0.3164,0.3801,0.0,0.0,0.0,0.0,0.0,0.0,0.0,0.0,0.0,0.0,0.0,0.0,0.0,0.0,0.0,0.0,0.0,0.0,0.0,0.0,0.0,0.0,0.0,0.0,0.0,0.0,0.0,0.0,0.0,0.0,0.0,0.0,0.0,0.0,0.0,0.0,0.0,0.0,0.0,0.0,0.0,0.0,0.0,0.0,0.0,0.0,0.0,0.0,0.0,0.0,0.0,0.0,0.0,0.0,0.0,0.0,1.0587,1.159,1.2555,1.3455,1.3492,1.3492,1.3484,1.267,1.194,0.0,0.0,0.0,0.0,0.0,0.0,0.0,0.0,0.0,0.0,0.0,0.0,0.0,0.0,0.0,0.0,0.0,0.0,0.0,0.0,0.0,0.0,0.0,0.0,0.0,0.0,0.0,0.0,0.0,0.0,0.0,0.0,0.0,0.0,0.0,0.0,0.0,0.0,0.0,0.0,0.0,0.0,0.2974,0.3204,0.0,0.0,0.0,0.4058,0.466,0.0,0.0,0.0,0.0,0.0,0.0,0.0,0.0,0.0,0.0,0.0,0.0,0.0,0.0,0.0,0.0,0.0,0.0,0.0,0.0,0.0,0.0,0.0,0.0,0.0,0.0,0.0,0.0,0.0,0.0,0.0,0.0,0.0,0.0,0.0,0.0,0.0,0.0,0.0,0.0,0.0,0.0,0.0,0.0,0.0,0.0,0.0,0.0,0.0,0.0,0.0,0.0,0.0,0.0,0.0,0.0,0.0,1.0733,1.1888,1.2825,1.3462,1.3492,1.3492,1.3477,1.2595,0.0,0.0,0.0,0.0,0.0,0.0,0.0,0.0,0.0,0.0,0.0,0.0,0.0,0.0,0.0,0.0,0.0,0.0,0.0,0.0,0.0,0.0,0.0,0.0,0.0,0.0,0.0,0.0,0.0,0.0,0.0,0.0,0.0,0.0,0.0,0.0,0.0,0.0,0.0,0.0,0.0,0.0,0.4163,0.426,0.4184,0.4477,0.0,0.0,0.473,0.591,0.591,0.5627,0.0,0.0,0.0,0.0,0.0,0.0,0.0,0.0,0.0,0.0,0.0,0.0,0.0,0.0,0.0,0.0,0.0,0.0,0.0,0.0,0.0,0.0,0.0,0.0,0.0,0.0,0.0,0.0,0.0,0.0,0.0,0.0,0.0,0.0,0.0,0.0,0.0,0.0,0.0,0.0,0.0,0.0,0.0,0.0,0.0,0.0,0.0,0.0,0.0,0.0,0.0,0.0,0.0,0.0,0.0,1.1063,1.2021,1.2823,1.3462,1.3492,1.3492,1.3493,1.2832,1.2043,0.0,0.0,0.0,0.0,0.0,0.0,0.0,0.0,0.0,0.0,0.0,0.0,0.0,0.0,0.0,0.0,0.0,0.0,0.0,0.0,0.0,0.0,0.0,0.0,0.0,0.0,0.0,0.0,0.0,0.0,0.0,0.0,0.0,0.0,0.0,0.0,0.0,0.0,0.0,0.0,0.0,0.4265,0.3736,0.5056,0.5854,0.0,0.0,0.6304,0.6284,0.658,0.6411,0.5282,0.0,0.0,0.0,0.0,0.0,0.0,0.0,0.0,0.0,0.0,0.0,0.0,0.0,0.0,0.0,0.0,0.0,0.0,0.0,0.0,0.0,0.0,0.0,0.0,0.0,0.0,0.0,0.0,0.0,0.0,0.0,0.0,0.0,0.0,0.0,0.0,0.0,0.0,0.0,0.0,0.0,0.0,0.0,0.0,0.0,0.0,0.0,0.0,0.0,0.0,0.0,0.0,0.0,1.0309,1.11,1.2226,1.3038,1.347,1.3492,1.3492,1.3492,1.3051,1.227,0.0,0.0,0.0,0.0,0.0,0.0,0.0,0.0,0.0,0.0,0.0,0.0,0.0,0.0,0.0,0.0,0.0,0.0,0.0,0.0,0.0,0.0,0.0,0.0,0.0,0.0,0.0,0.0,0.3345,0.3393,0.3378,0.0,0.0,0.0,0.0,0.0,0.0,0.0,0.0,0.0,0.0,0.5547,0.5572,0.6019,0.0,0.0,0.6677,0.6766,0.7322,0.7023,0.655,0.6102,0.569,0.0,0.0,0.0,0.0,0.0,0.0,0.0,0.0,0.0,0.0,0.0,0.0,0.0,0.0,0.0,0.0,0.0,0.0,0.0,0.0,0.0,0.0,0.0,0.0,0.0,0.0,0.0,0.0,0.0,0.0,0.0,0.0,0.0,0.0,0.0,0.0,0.0,0.0,0.0,0.0,0.0,0.0,0.0,0.0,0.0,0.0,0.0,0.0,0.0,0.0,0.0,0.0,1.0491,1.1239,1.241,1.3171,1.3492,1.3492,1.3492,1.3484,1.3168,1.2454,0.0,0.0,0.0,0.0,0.0,0.0,0.0,0.0,0.0,0.0,0.0,0.0,0.0,0.0,0.0,0.0,0.0,0.0,0.0,0.0,0.0,0.0,0.0,0.0,0.0,0.0,0.0,0.0,0.3724,0.3727,0.3582,0.0,0.0,0.0,0.0,0.0,0.0,0.0,0.0,0.0,0.0,0.6386,0.6827,0.6774,0.6922,0.7628,0.721,0.7062,0.7753,0.7259,0.6752,0.6543,0.0,0.0,0.0,0.0,0.0,0.0,0.0,0.0,0.0,0.0,0.0,0.0,0.0,0.0,0.0,0.0,0.0,0.0,0.0,0.0,0.0,0.0,0.0,0.0,0.0,0.0,0.0,0.0,0.0,0.0,0.0,0.0,0.0,0.0,0.0,0.0,0.0,0.0,0.0,0.0,0.0,0.0,0.0,0.0,0.0,0.0,0.0,0.0,0.0,0.0,0.0,0.0,0.0,0.0,1.1584,1.2533,1.3175,1.3501,1.3499,1.3506,1.3499,1.3193,1.2564,1.1606,0.0,0.0,0.0,0.0,0.0,0.0,0.0,0.0,0.0,0.0,0.0,0.0,0.0,0.0,0.0,0.0,0.0,0.0,0.0,0.0,0.0,0.0,0.0,0.0,0.0,0.0,0.3993,0.3987,0.3928,0.0,0.0,0.0,0.0,0.0,0.0,0.0,0.0,0.0,0.0,0.6259,0.6495,0.703,0.7207,0.7336,0.735,0.7322,0.7311,0.7372,0.7311,0.7071,0.0,0.0,0.0,0.0,0.0,0.0,0.0,0.0,0.0,0.0,0.0,0.0,0.0,0.0,0.0,0.0,0.0,0.0,0.0,0.0,0.0,0.0,0.0,0.0,0.0,0.0,0.0,0.8781,0.8036,0.0,0.0,0.0,0.0,0.0,0.0,0.0,0.0,0.0,0.0,0.0,0.9833,1.0491,0.0,0.0,0.0,0.0,0.0,0.0,0.0,0.0,0.0,0.0,0.0,0.0,1.0894,1.1874,1.3053,1.372,1.383,1.4052,1.4059,1.3838,1.372,1.3028,1.1644,0.0,0.0,0.0,0.0,0.0,0.0,0.0,0.0,0.0,0.0,0.0,0.0,0.0,0.0,0.0,0.0,0.0,0.0,0.0,0.0,0.0,0.0,0.0,0.0,0.0,0.433,0.0,0.0,0.0,0.0,0.0,0.0,0.0,0.0,0.0,0.0,0.0,0.634,0.6754,0.7159,0.7529,0.7789,0.8223,0.8445,0.0,0.0,0.0,0.0,0.0,0.0,0.0,0.0,0.0,0.0,0.0,0.0,0.0,0.0,0.7179,0.6373,0.6022,0.5916,0.6205,0.0,0.0,0.0,0.0,0.0,0.0,0.0,0.0,0.0,0.0,0.0,0.0,0.0,0.0,0.0,0.0,0.8897,0.0,0.0,0.0,0.0,0.0,0.0,0.0,0.0,1.0513,1.0872,1.0792,1.1436,1.1502,0.0,1.0982,1.0514,0.0,0.0,0.0,0.0,0.0,0.0,0.0,0.0,1.1282,1.2332,1.3442,1.4059,1.4179,1.4394,1.4399,1.4177,1.3949,1.3215,1.1957,1.118,1.0433,0.0,0.0,0.0,0.0,0.0,0.0,0.0,0.0,0.0,0.0,0.0,0.0,0.0,0.0,0.0,0.0,0.0,0.0,0.0,0.0,0.0,0.0,0.0,0.4656,0.0,0.0,0.0,0.0,0.0,0.0,0.0,0.0,0.0,0.6392,0.6709,0.7025,0.746,0.7769,0.8062,0.8332,0.0,0.0,0.0,0.0,0.0,0.0,0.0,0.7897,0.8033,0.7951,0.7935,0.8203,0.8601,0.8744,0.8312,0.0,0.0,0.7294,0.6851,0.6877,0.7585,0.744,0.7145,0.7058,0.6875,0.6884,0.0,0.0,0.0,0.0,0.0,0.0,0.0,0.0,1.0976,1.0973,0.0,1.0302,0.0,0.0,0.0,0.0,0.0,0.0,0.0,0.0,1.1511,1.1794,1.2047,1.2098,1.2083,1.2083,1.2377,1.2197,1.1577,1.0324,0.0,0.0,0.0,0.0,0.0,0.0,1.1759,1.2978,1.3691,1.4184,1.4494,1.4531,1.4531,1.4492,1.3867,1.3212,1.2552,1.2187,1.1573,1.0682,0.9994,0.0,0.0,0.0,0.0,0.0,0.0,0.0,0.0,0.0,0.0,0.0,0.0,0.0,0.0,0.0,0.0,0.0,0.0,0.0,0.0,0.4808,0.0,0.0,0.0,0.0,0.0,0.0,0.0,0.0,0.0,0.0,0.7134,0.7204,0.7515,0.8211,0.0,0.0,0.0,0.0,0.8585,0.8718,0.8628,0.8565,0.8546,0.853,0.8464,0.8285,0.0,0.0,0.8458,0.8794,0.8989,0.8459,0.8819,0.8995,0.8517,0.7744,0.756,0.8622,0.8189,0.7733,0.7951,0.7921,0.7974,1.7214,0.0,0.0,0.0,0.0,1.4611,1.4492,1.4533,1.4139,1.3362,1.2319,1.1884,0.0,0.0,0.0,0.0,0.0,0.0,1.173,1.246,1.2814,1.3111,1.3433,1.3669,1.3671,1.3435,1.3296,1.3001,1.2594,1.1984,1.0931,0.952,0.0,0.0,0.0,0.0,1.2527,1.3344,1.4197,1.4694,1.4789,1.5025,1.5033,1.4789,1.4189,1.3645,1.3228,1.2662,1.2121,1.161,1.0785,0.0,0.0,0.0,0.0,0.0,0.0,0.0,0.0,0.0,0.0,0.0,0.0,0.0,0.0,0.0,0.0,0.0,0.0,0.0,0.5132,0.5158,0.524,0.0,0.0,0.0,0.0,0.0,0.0,0.0,0.0,0.0,0.7902,0.8089,0.8315,0.0,0.0,0.8803,0.8967,0.916,0.9276,0.9196,0.0,0.0,0.0,0.9208,0.9147,0.9184,0.9474,0.9665,0.9668,0.9791,0.9836,0.9659,0.9774,0.9758,0.9324,0.8786,0.8594,0.9033,0.9066,0.8999,0.8986,0.8854,0.8865,1.9794,1.8045,1.7033,1.6773,1.6961,1.6426,1.6203,1.6175,1.5618,1.4838,1.3904,1.3487,1.2812,1.1951,1.1428,0.0,0.0,0.0,1.2725,1.3395,1.3603,1.3867,1.4208,1.4406,1.4408,1.4191,1.3993,1.3786,1.3605,1.3389,1.2578,1.1202,0.0,0.0,1.1774,1.251,1.3276,1.4046,1.4601,1.4956,1.5097,1.529,1.5246,1.49,1.4453,1.4037,1.3697,1.3175,1.2751,1.2406,1.1735,1.1107,0.0,0.0,0.0,0.0,0.0,0.0,0.0,0.0,0.0,0.0,0.0,0.5239,0.0,0.0,0.0,0.0,0.4989,0.5472,0.5721,0.5745,0.0,0.0,0.0,0.0,0.0,0.0,0.0,0.7126,0.7665,0.8142,0.8506,0.8811,0.901,0.9031,0.9144,0.9274,0.9405,0.0,0.973,0.9702,0.9893,0.9974,0.9855,0.9771,0.9751,0.9832,0.9946,1.0048,1.0158,1.0199,1.0199,1.0199,1.0199,1.0121,0.9893,0.9608,0.9453,0.9628,0.975,0.9807,0.9743,0.9612,0.9644,2.2314,2.1766,2.0126,1.9129,1.8586,1.794,1.7323,1.675,1.6089,1.5735,1.5625,1.5082,1.4638,1.4284,1.3658,0.0,0.0,1.347,1.3777,1.4118,1.4127,1.4262,1.4558,1.4585,1.456,1.4518,1.4538,1.4514,1.4487,1.4487,1.4199,1.36,1.3007,1.2971,1.3468,1.3556,1.4046,1.4895,1.4932,1.5082,1.5392,1.541,1.5236,1.4944,1.4648,1.4364,1.4045,1.37,1.336,1.3051,1.2712,1.213,1.1246,0.0,0.0,0.0,0.0,0.0,0.0,0.0,0.0,0.0,0.0,0.0,0.0,0.0,0.0,0.0,0.5788,0.0,0.6444,0.6432,0.0,0.0,0.0,0.6457,0.713,0.7438,0.7507,0.7268,0.0,0.0,0.0,0.0,0.9608,0.949,0.9477,0.9575,0.9872,0.9929,1.0019,1.017,1.0219,1.0244,1.0248,1.0239,1.0263,1.0296,1.0276,1.0317,1.0316,1.0308,1.0284,1.033,1.0293,1.0297,1.0268,1.0248,1.0239,1.0284,1.0273,1.0227,1.0181,1.0202,1.0208,2.2977,2.2832,2.2407,2.1656,2.0718,2.0052,1.9594,1.9258,1.8603,1.7828,1.6982,1.6239,1.5104,1.3734,1.3796,1.3952,1.4155,1.4431,1.4749,1.5059,1.5049,1.5103,1.5186,1.5176,1.5062,1.4818,1.4811,1.4686,1.4509,1.4494,1.4526,1.456,1.4404,1.4051,1.3552,1.4204,1.4674,1.49,1.5141,1.5309,1.541,1.541,1.5352,1.5275,1.4775,1.4455,1.4369,1.3818,1.3464,1.3384,1.3058,1.2647,1.218,1.1033,0.0,0.0,0.0,0.0,0.0,0.0,0.0,0.0,0.0,0.7566,0.5082,0.0,0.6183,0.0,0.6014,0.6493,0.0,0.6726,0.0,0.0,0.7192,0.7384,0.7941,0.8205,0.8343,0.8399,0.8984,0.9417,0.9429,0.9782,1.0031,1.0028,1.0003,1.004,1.013,1.0234,1.0292,1.0358,1.0498,1.058,1.0592,1.0719,1.0824,1.0962,1.0964,1.0958,1.0968,1.0972,1.0944,1.0954,1.0968,1.0936,1.0874,1.071,1.0734,1.0992,1.084,1.0526,1.0373,1.0459,1.0593,2.3784,2.3784,2.3784,2.3422,2.2766,2.1712,2.1202,2.1029,2.0292,1.9556,1.8822,1.7744,1.6406,1.4961,1.5121,1.5258,1.5341,1.5496,1.5669,1.584,1.5848,1.5848,1.5837,1.5837,1.5752,1.5584,1.5556,1.5489,1.5352,1.5352,1.5419,1.5556,1.5566,1.5306,1.4819,1.5025,1.5129,1.5129,1.5304,1.541,1.541,1.541,1.541,1.5395,1.492,1.4611,1.4501,1.4001,1.3572,1.3296,1.3104,1.2845,1.2501,1.1575,1.088,0.0,0.0,0.0,0.0,0.0,0.0,0.0,0.0,0.0,0.0,0.0,0.7296,0.0,0.0,0.0,0.741,0.7426,0.7578,0.7947,0.8053,0.8195,0.8495,0.8782,0.9021,0.9149,0.9498,0.9791,0.9899,1.0114,1.0299,1.0286,1.0447,1.0491,1.0343,1.0492,1.0672,1.0662,1.0804,1.0914,1.0914,1.1013,1.111,1.1185,1.1206,1.1206,1.1206,1.1206,1.1206,1.1206,1.1206,1.1224,1.1218,1.1076,1.1049,1.1281,1.1293,1.1104,1.0814,1.0821,1.0885,2.4694,2.4673,2.4683,2.4684,2.4589,2.324,2.2557,2.2323,2.1461,2.0836,2.0365,1.8934,1.7695,1.6683,1.6661,1.6555,1.64,1.6389,1.6389,1.6389,1.6389,1.6389,1.6389,1.6389,1.6389,1.6389,1.6389,1.6389,1.6389,1.6389,1.6389,1.6389,1.6389,1.6389,1.6367,1.5815,1.5527,1.5527,1.5537,1.5527,1.5527,1.549,1.5475,1.5443,1.5063,1.473,1.4518,1.4186,1.3728,1.3177,1.3142,1.3009,1.2692,1.2066,1.1694,0.0,1.1026,0.0,0.0,0.0,0.0,0.0,0.0,0.0,0.0,0.8803,0.8418,0.8167,0.7842,0.7762,0.8057,0.8251,0.8433,0.8606,0.8796,0.8903,0.8915,0.9266,0.9555,0.9668,0.9847,1.0046,1.0277,1.0405,1.0478,1.052,1.0777,1.0863,1.0612,1.0806,1.1003,1.1029,1.1125,1.1159,1.1206,1.123,1.1242,1.1274,1.1307,1.1279,1.1299,1.1299,1.1291,1.1291,1.1307,1.1327,1.1425,1.1352,1.1323,1.1441,1.1606,1.1612,1.1266,1.1136,1.1148,2.5627,2.5638,2.5638,2.5627,2.5606,2.5329,2.4463,2.3203,2.2438,2.1186,1.9523,1.7978,1.6988,1.6466,1.6455,1.6452,1.6389,1.6389,1.6389,1.6389,1.6389,1.6389,1.6389,1.6389,1.6389,1.6389,1.6389,1.6389,1.6389,1.6389,1.6389,1.6389,1.6389,1.6389,0.0,0.0,0.0,0.0,1.6213,1.6202,1.6195,1.595,1.5804,1.5782,1.4999,0.0,1.4477,1.4177,1.3942,1.3816,1.3818,0.0,0.0,0.0,0.0,0.0,0.0,0.0,0.0,0.0,0.0,0.0,1.2301,1.1523,1.018,0.9535,0.9277,0.9413,0.88,0.8422,0.8469,0.8617,0.8724,0.8772,0.9158,0.9449,0.9449,0.9799,1.0052,1.0097,1.0217,1.032,1.0388,1.0672,1.0876,1.0885,1.1045,1.1124,1.1049,1.1108,1.1175,1.1161,1.1177,1.121,1.1411,1.1407,1.1451,1.1625,1.169,1.1677,1.1665,1.1673,1.1677,1.1684,1.1671,1.1677,1.1714,1.1702,1.1673,1.1714,1.1763,1.1677,1.1291,1.1271,1.1314,2.5908,0.0,2.5908,2.5908,0.0,2.5908,2.5437,2.4661,2.4184,2.2783,2.0717,1.961,1.8454,1.7277,1.6984,1.6835,1.6854,1.6854,1.6843,1.6843,1.6854,1.6835,1.6843,1.6843,1.6854,1.6843,1.6831,1.6831,1.6843,1.685,1.6854,1.6843,1.6854,1.6843,1.6854,1.6854,1.67,1.6389,1.6389,1.6389,1.6393,1.6235,1.6078,1.5885,0.0,0.0,0.0,0.0,0.0,0.0,0.0,0.0,0.0,0.0,0.0,1.3245,1.3073,1.2987,1.3035,1.3296,1.3652,1.4002,1.4155,1.357,1.2052,1.1442,1.1032,1.0828,1.0076,0.9493,0.9284,0.9323,0.938,0.9482,0.9726,0.9892,0.9908,1.0085,1.021,1.0298,1.0456,1.0577,1.0674,1.0919,1.1086,1.1102,1.123,1.1358,1.1358,1.1343,1.1382,1.1476,1.147,1.1512,1.1608,1.1633,1.1618,1.1763,1.1806,1.1806,1.1806,1.1806,1.1806,1.1806,1.1806,1.1806,1.1806,1.1806,1.1806,1.1806,1.1806,1.1743,1.1529,1.1555,1.1574,2.6146,2.6157,2.6157,2.6146,2.6146,2.6146,2.6146,2.6091,0.0,0.0,0.0,2.1295,1.9913,1.8216,1.7701,1.7477,1.7477,1.7477,1.7477,1.7477,1.7477,1.7466,1.7477,1.7477,1.747,1.7477,1.7477,1.7489,1.7477,1.7482,1.7448,1.7393,1.7448,1.7477,1.7477,1.7489,1.7238,1.6767,1.6616,1.6558,1.6546,1.6506,1.6371,1.6078,1.5961,1.5644,1.5107,1.5075,1.4847,1.4365,1.4289,1.428,1.4328,1.4267,1.4355,1.4645,1.4879,1.492,1.477,1.5259,1.5502,1.5355,1.5655,1.532,1.4071,1.352,1.303,1.2527,1.1654,1.0897,1.0327,1.0459,1.0536,1.0521,1.0537,1.0566,1.0591,1.0418,1.0413,1.0536,1.0699,1.0838,1.1003,1.1163,1.1254,1.1279,1.1431,1.156,1.1549,1.1549,1.1608,1.1726,1.1745,1.1786,1.1802,1.1794,1.1806,1.1802,1.1806,1.1806,1.1806,1.1806,1.1806,1.1806,1.1806,1.1806,1.1806,1.1806,1.1806,1.1806,1.1806,1.1806,1.1806,1.1802,1.1786,2.7112,2.7101,2.7112,2.7101,2.7111,2.7112,2.7123,2.6887,2.4405,2.2842,2.1987,2.0196,1.8995,1.8275,1.8213,1.8155,1.8167,1.8172,1.8155,0.0,1.8167,1.8155,1.8167,1.8155,1.8167,1.8167,1.8147,1.8167,1.8167,1.816,1.8016,1.7796,1.8016,1.8152,1.816,1.8155,1.8116,1.8045,1.7467,1.7175,1.7175,1.6953,1.6803,1.6733,1.6206,1.5863,1.5771,1.5753,1.5706,1.5622,1.5364,1.5332,1.5614,1.5365,1.5227,1.5271,1.5301,1.5436,1.5691,1.6056,1.6497,1.6977,1.6897,1.6423,1.556,1.4865,1.4539,1.4655,1.372,1.2752,1.1836,1.2415,1.2535,1.178,1.1794,1.1944,1.1936,1.1301,1.0909,1.1025,1.1116,1.1133,1.1191,1.1346,1.1459,1.1484,1.1612,1.1743,1.1749,1.177,1.1759,1.1798,1.1806,1.1806,1.1806,1.1806,1.1806,1.1806,1.1806,1.1806,1.1806,1.1806,1.1806,1.1806,1.1806,1.1806,1.1806,1.1806,1.1806,1.1806,1.1806,1.1806,1.1819,1.1831,1.1827,2.8009,2.8009,2.8009,2.8021,2.8009,2.8009,2.8009,2.7845,2.6116,2.4769,2.3685,2.1759,2.0434,1.96,1.8694,1.8311,1.8311,1.8311,1.8311,1.8311,1.8311,1.8311,1.8311,1.8311,1.8311,1.8311,1.8311,1.8311,1.8311,1.8311,1.8213,1.8082,1.8233,1.8311,1.8311,1.8311,1.8311,1.8286,1.7994,1.784,1.784,1.7733,1.7484,1.7116,1.6809,1.6502,1.618,1.6162,1.6173,1.6162,1.5919,1.5897,1.6155,1.6146,1.6139,1.621,1.6356,1.6579,1.6919,1.7245,1.7492,1.7659,1.7593,1.733,1.6815,1.6166,1.5645,1.5347,1.4832,1.4173,1.3185,1.3114,1.2895,1.2412,1.1964,1.1687,1.1704,1.1423,1.1135,1.1187,1.1299,1.1356,1.1374,1.1551,1.1665,1.1688,1.1766,1.1822,1.1822,1.1837,1.1822,1.1806,1.1806,1.1806,1.1806,1.1806,1.1806,1.1806,1.1806,1.1806,1.1806,1.1811,1.1811,1.1806,1.1811,1.1806,1.1811,1.1806,1.1806,1.1806,1.1806,1.1816,1.1886,1.1987,1.2007,2.8593,2.8593,2.8593,2.8593,2.8593,2.8593,2.8593,2.853,2.7859,2.6965,2.5746,2.3595,2.1924,2.0668,1.9273,1.8648,1.8628,1.864,1.8684,1.871,1.8664,1.8635,1.8633,1.8562,1.8538,1.8531,1.8518,1.8531,1.8525,1.8518,1.8518,1.8523,1.8452,1.8452,1.8525,1.8525,1.8525,1.8531,1.8518,1.8445,1.8306,1.8311,1.8045,1.7572,1.754,1.7311,1.6858,1.684,1.6829,1.681,1.6536,1.6506,1.681,1.6976,1.7098,1.7218,1.7418,1.7679,1.7994,1.825,1.8374,1.8353,1.8236,1.8154,1.7989,1.7407,1.6768,1.6117,1.6124,1.5731,1.4879,1.4427,1.3903,1.364,1.2928,1.2718,1.2534,1.2293,1.2136,1.2199,1.2334,1.2495,1.2418,1.2303,1.2118,1.1885,1.2029,1.2173,1.1953,1.2238,1.2621,1.2007,1.1852,1.1806,1.1806,1.1806,1.1823,1.1847,1.1856,1.1893,1.1913,1.1926,1.1917,1.1938,1.1945,1.1942,1.1917,1.1926,1.1934,1.1965,1.1969,1.1959,1.2057,1.2167,1.2223,2.8616,2.8593,2.8624,2.8593,2.8636,2.8626,2.8624,2.8599,2.8269,2.8091,2.7455,2.4616,2.233,2.0766,1.9999,1.9633,1.9654,1.9649,1.9768,1.9946,1.9768,1.9663,1.9598,1.9336,1.9223,1.921,1.921,1.919,1.918,1.918,1.9195,1.918,1.8911,1.8891,1.9166,1.9175,1.9202,1.9197,1.921,1.8911,1.8335,1.8311,1.8277,1.8218,1.8199,1.8189,1.805,1.8123,1.8128,1.8079,1.7512,1.7465,1.8013,1.8121,1.8155,1.8165,1.8196,1.8357,1.8657,1.8736,1.9016,1.9517,1.9091,1.8912,1.9102,1.8496,1.7996,1.7766,1.7992,1.7567,1.6689,1.7137,1.7072,1.6144,1.5924,1.6262,1.6003,1.5546,1.4996,1.5179,1.4795,1.5182,1.4658,1.3963,1.3029,1.2179,1.3012,1.3359,1.2784,1.3999,1.4545,1.2933,1.2096,1.1968,1.2001,1.1856,1.233,1.2286,1.21,1.2323,1.2508,1.243,1.2251,1.222,1.2211,1.2203,1.2215,1.2255,1.2231,1.2202,1.2203,1.224,1.228,1.2304,1.23,2.9435,2.9422,2.9435,2.9435,2.9425,2.9412,2.9435,2.9422,2.9299,2.8504,2.7105,2.5375,2.4015,2.2852,2.1142,2.0418,2.0545,2.0216,2.0187,2.0468,2.0193,2.0026,2.0012,1.9916,1.9829,1.9829,1.9829,1.9747,1.9583,1.94,1.9285,1.9285,1.9166,1.916,1.9277,1.9285,1.9285,1.9285,1.9285,1.9261,1.9168,1.8992,1.8801,1.8606,1.8579,1.8489,1.8328,1.8311,1.8311,1.8299,1.8129,1.8141,1.8286,1.8412,1.85,1.8609,1.897,1.9246,1.9406,1.9535,1.9741,2.0033,1.966,1.9439,1.938,1.9085,1.8794,1.8584,1.8624,1.8394,1.7856,1.7694,1.7415,1.6917,1.6402,1.6127,1.6133,1.5805,1.5516,1.5549,1.4931,1.4535,1.4461,1.418,1.3718,1.3406,1.436,1.4972,1.4714,1.5586,1.569,1.5019,1.4591,1.4134,1.3654,1.4679,1.496,1.4739,1.4605,1.4555,1.385,1.3654,1.3362,1.2605,1.2491,1.2423,1.2288,1.2304,1.2304,1.2333,1.2442,1.245,1.2328,1.2405,1.2458,2.9994,2.9994,2.9994,2.9994,2.9994,2.9994,2.9994,2.9994,2.9994,2.9032,2.7446,2.6336,2.5487,2.457,2.1961,2.0801,2.0918,2.054,2.0517,2.0783,2.0503,2.0342,2.0321,2.0226,2.0197,2.0197,2.0182,2.0086,1.99,1.9667,1.9556,1.9542,1.9542,1.9569,1.9548,1.9548,1.9535,1.9556,1.9542,1.9652,1.9828,1.9673,1.9438,1.9206,1.9178,1.9061,1.8835,1.8833,1.882,1.8833,1.8904,1.8916,1.884,1.9027,1.9164,1.921,1.9616,1.992,1.992,2.01,2.0233,2.03,2.0024,1.9756,1.9668,1.9589,1.942,1.9209,1.9219,1.9172,1.8713,1.8089,1.7722,1.7693,1.7129,1.6774,1.6953,1.686,1.6955,1.675,1.6496,1.5302,1.5118,1.5226,1.5294,1.4988,1.5961,1.6725,1.6738,1.7003,1.7466,1.679,1.7088,1.6891,1.5524,1.596,1.7014,1.6845,1.6267,1.5919,1.5385,1.5038,1.4239,1.3265,1.3013,1.2746,1.2568,1.2475,1.243,1.2455,1.2532,1.2592,1.2446,1.2531,1.2572,2.9994,3.0015,2.9994,3.0056,3.0015,3.0046,3.0025,3.0111,3.0046,2.9897,2.9354,2.7457,2.6268,2.5587,2.2369,2.0748,2.0748,2.0712,2.0859,2.1121,2.083,2.0678,2.0649,2.035,2.0218,2.0284,2.0305,2.0254,2.0175,2.0152,2.0153,2.0138,2.0115,2.0144,2.0115,2.0101,2.0152,2.0101,2.0093,2.0159,2.0181,2.0153,2.0137,2.0122,2.0122,2.0057,2.0057,2.0093,2.0086,2.008,1.9885,1.9879,2.0086,2.0312,2.0303,2.0135,2.0145,2.0188,2.0202,2.0233,2.0386,2.0578,2.0244,1.9977,2.0264,2.0084,1.9924,1.9768,2.014,2.0085,1.9511,1.9235,1.926,1.9465,1.9524,1.9529,1.9817,1.9505,1.9938,1.9769,1.9309,1.8474,1.7911,1.8111,1.7357,1.6855,1.7426,1.7993,1.7606,1.896,1.9146,1.8334,1.882,1.9783,1.7124,1.724,1.7177,1.7124,1.7386,1.6757,1.6354,1.5869,1.4789,1.4023,1.3938,1.3623,1.305,1.2763,1.2726,1.2714,1.269,1.2657,1.2543,1.2568,1.2588,3.0629,3.0901,3.0898,3.0901,3.0887,3.0898,3.0911,3.0887,3.0911,3.0353,2.9415,2.835,2.6864,2.5007,2.3578,2.2408,2.1617,2.1198,2.1193,2.1453,2.1172,2.1035,2.1006,2.0896,2.0824,2.0845,2.0838,2.0736,2.0489,2.0312,2.0197,2.0197,2.0197,2.0197,2.0197,2.0197,2.0197,2.0204,2.0197,2.0299,2.0516,2.0517,2.0619,2.0795,2.0422,2.0197,2.0197,2.0197,2.0197,2.0197,2.0121,2.0121,2.0197,2.0293,2.0307,2.0232,2.0407,2.051,2.0539,2.0722,2.0984,2.1277,2.1155,2.1002,2.112,2.0931,2.0713,2.0717,2.0814,2.0712,2.0347,2.0054,1.9945,2.0032,2.0065,2.0105,2.017,2.0204,2.0204,2.0097,1.9546,1.8475,1.7936,1.7967,1.8409,1.8184,1.9175,1.9688,1.9729,2.0464,2.0503,2.0005,2.0376,2.0736,1.9846,1.9446,1.9421,1.9196,1.9106,1.8966,1.8663,1.6646,1.5333,1.483,1.4744,1.3852,1.3054,1.275,1.2767,1.2791,1.2767,1.2686,1.2608,1.2568,1.2556,3.1118,3.1377,3.1408,3.1408,3.1408,3.1408,3.1408,3.1395,3.1275,3.067,2.974,2.9028,2.7573,2.5776,2.4732,2.3749,2.2725,2.1938,2.1656,2.183,2.162,2.1511,2.1511,2.1415,2.1364,2.1342,2.124,2.1072,2.086,2.0627,2.0532,2.0518,2.0538,2.0531,2.0524,2.0524,2.0524,2.0538,2.0531,2.0641,2.0845,2.0846,2.0948,2.1108,2.0744,2.0524,2.0524,2.051,2.0538,2.0517,2.0524,2.0524,2.0524,2.0524,2.0524,2.0554,2.0845,2.1021,2.1043,2.1328,2.162,2.181,2.1737,2.1661,2.1556,2.1332,2.1192,2.1082,2.1129,2.1052,2.0855,2.0622,2.0466,2.0392,2.0359,2.0406,2.0464,2.049,2.0519,2.0433,1.9902,1.8927,1.8243,1.8981,1.9459,1.9547,2.051,2.1048,2.1087,2.1087,2.1087,2.1087,2.0976,2.1071,2.0631,2.0456,2.0456,2.0312,1.984,2.0074,1.9584,1.7495,1.6199,1.5728,1.4921,1.3853,1.3167,1.2845,1.2742,1.2779,1.271,1.2625,1.2568,1.2499,1.2527,3.1426,3.1481,3.1405,3.1498,3.1519,3.1529,3.146,3.1457,3.1196,3.1058,3.077,2.9498,2.8606,2.7608,2.5697,2.4452,2.367,2.2654,2.217,2.2156,2.2118,2.2103,2.2081,2.1825,2.1701,2.1708,2.1393,2.124,2.1254,2.1211,2.1218,2.1211,2.1211,2.1204,2.1196,2.1218,2.1204,2.1239,2.1311,2.1354,2.1247,2.1405,2.1463,2.1406,2.1283,2.1204,2.1196,2.116,2.1109,2.1145,2.1138,2.1189,2.1152,2.1182,2.1196,2.124,2.1511,2.1664,2.1723,2.1942,2.2081,2.2102,2.1899,2.1666,2.1433,2.1349,2.1226,2.1027,2.1061,2.1119,2.1121,2.1038,2.0935,2.0757,2.0697,2.0775,2.096,2.106,2.1073,2.1011,2.0813,2.1012,2.0987,2.0767,2.0752,2.0812,2.0972,2.1087,2.1087,2.1087,2.1087,2.1066,2.1066,2.1096,2.108,2.1071,2.1048,2.0936,2.0335,2.0057,1.944,1.7904,1.7085,1.653,1.5607,1.4541,1.3468,1.3129,1.2788,1.2751,1.2666,1.2629,1.2613,1.2584,1.2584,3.2298,3.2298,3.2298,3.2298,3.2298,3.2288,3.2288,3.2288,3.2175,3.2123,3.1981,3.1222,2.9805,2.8083,2.6704,2.5214,2.3458,2.2959,2.2616,2.2272,2.2213,2.2206,2.2199,2.2103,2.2052,2.2015,2.195,2.1876,2.1862,2.1884,2.1876,2.1876,2.1869,2.1876,2.1862,2.1891,2.1884,2.1994,2.2773,2.3196,2.3196,2.3188,2.3188,2.3108,2.2363,2.1898,2.1877,2.1452,2.1218,2.1225,2.1211,2.1306,2.1525,2.1759,2.1869,2.1906,2.1986,2.2045,2.206,2.2147,2.221,2.2175,2.2233,2.2142,2.1913,2.2003,2.1957,2.1667,2.1544,2.1434,2.1425,2.122,2.1098,2.0966,2.0975,2.0982,2.1066,2.1087,2.1087,2.1087,2.1087,2.1087,2.1087,2.1087,2.1087,2.1087,2.1087,2.1087,2.1087,2.1087,2.1002,2.0884,2.0971,2.1056,2.1009,2.0995,2.0986,2.0827,2.0389,2.0171,1.9478,1.8843,1.804,1.7104,1.6187,1.5143,1.4073,1.3304,1.2894,1.2743,1.269,1.269,1.2718,1.2706,1.2686,3.2684,3.2684,3.2684,3.2684,3.2684,3.2684,3.2684,3.2669,3.2598,3.2555,3.2377,3.1629,3.027,2.8492,2.7192,2.5615,2.3876,2.337,2.2901,2.2564,2.2528,2.2528,2.2506,2.2389,2.2294,2.2206,2.2184,2.2184,2.2184,2.2184,2.2184,2.2176,2.2184,2.2169,2.2184,2.2184,2.2184,2.2371,2.3418,2.4103,2.4103,2.4103,2.4103,2.3912,2.287,2.2244,2.2169,2.1796,2.1591,2.1576,2.1576,2.1679,2.1884,2.2082,2.2184,2.2221,2.2286,2.2345,2.2359,2.2476,2.2517,2.2531,2.266,2.2624,2.2375,2.2418,2.2261,2.1938,2.1717,2.154,2.1418,2.1487,2.1392,2.1283,2.1162,2.11,2.1087,2.1087,2.1087,2.1087,2.1087,2.1087,2.1087,2.1087,2.1087,2.1087,2.1087,2.1087,2.1087,2.1087,2.0962,2.0911,2.1002,2.1009,2.0911,2.0882,2.0889,2.0623,2.0272,2.0268,2.0016,1.9518,1.8858,1.7662,1.6654,1.531,1.4182,1.326,1.2682,1.2678,1.2832,1.2702,1.2718,1.2747,1.2731,3.2684,3.2684,3.2684,3.2684,3.2684,3.2684,3.2684,3.2655,3.2483,3.2387,3.2104,3.115,3.004,2.8917,2.7004,2.5577,2.4833,2.3643,2.3091,2.304,2.3025,2.301,2.2967,2.2746,2.2542,2.236,2.2308,2.2308,2.2345,2.2337,2.2235,2.233,2.233,2.2257,2.2345,2.2257,2.2413,2.2804,2.3802,2.4482,2.4629,2.4436,2.4421,2.4356,2.3103,2.2315,2.233,2.2279,2.2221,2.2176,2.214,2.2169,2.2221,2.222,2.2301,2.2345,2.2498,2.2607,2.2702,2.2857,2.3008,2.2995,2.3057,2.2985,2.2694,2.2444,2.2231,2.1946,2.1755,2.1561,2.1476,2.1633,2.1792,2.1589,2.1339,2.1189,2.1142,2.1156,2.1147,2.1129,2.1109,2.1127,2.1176,2.114,2.1107,2.1156,2.1127,2.1087,2.1087,2.1087,2.1096,2.1062,2.1015,2.0975,2.0884,2.0969,2.0975,2.0825,2.0485,2.0449,2.0401,1.9974,1.9677,1.8465,1.7242,1.5803,1.4778,1.4138,1.3463,1.336,1.3257,1.2877,1.2722,1.2747,1.2767,3.2684,3.2684,3.2684,3.2684,3.2684,3.2684,3.2684,3.2684,3.2627,3.2584,3.2315,3.1261,2.9977,2.8536,2.6853,2.5294,2.4201,2.3417,2.3106,2.3106,2.3106,2.3106,2.3106,2.3017,2.293,2.2842,2.279,2.2871,2.2864,2.2813,2.2828,2.2864,2.2813,2.2835,2.2864,2.2828,2.3434,2.4368,2.5572,2.6649,2.725,2.6551,2.6249,2.6047,2.4024,2.2935,2.2857,2.2864,2.2623,2.225,2.2403,2.2498,2.2528,2.2703,2.2806,2.2835,2.2893,2.2966,2.2988,2.3061,2.3113,2.3125,2.3353,2.3312,2.2986,2.2855,2.2758,2.2607,2.2295,2.2029,2.2135,2.21,2.1931,2.1667,2.1502,2.1435,2.1428,2.1462,2.1379,2.1192,2.1325,2.1432,2.1472,2.1309,2.1223,2.1345,2.1259,2.1087,2.1087,2.108,2.1089,2.0955,2.0889,2.0889,2.0909,2.1022,2.106,2.104,2.0839,2.0666,2.0514,2.0182,2.004,1.9589,1.8451,1.7077,1.653,1.5997,1.5287,1.4042,1.3362,1.2857,1.2787,1.2787,1.2783,3.2684,3.2684,3.2684,3.2684,3.2684,3.2684,3.2684,3.2684,3.2684,3.2684,3.2445,3.1522,3.0334,2.907,2.7252,2.5707,2.4433,2.3627,2.3253,2.3106,2.3106,2.3106,2.3106,2.3106,2.3106,2.3106,2.3106,2.3098,2.3091,2.3106,2.3106,2.3084,2.3106,2.3106,2.3076,2.3137,2.3767,2.5056,2.6346,2.7615,2.8683,2.7667,2.708,2.6498,2.4533,2.3106,2.3106,2.3098,2.2915,2.2681,2.2724,2.2812,2.2827,2.298,2.3106,2.3105,2.3214,2.331,2.3347,2.3443,2.3523,2.3532,2.372,2.3695,2.3533,2.3378,2.3287,2.3245,2.2785,2.256,2.2466,2.225,2.1991,2.1812,2.1662,2.1535,2.1422,2.1375,2.1432,2.145,2.1539,2.1662,2.1787,2.1506,2.1439,2.1468,2.1285,2.1162,2.1087,2.108,2.1076,2.0969,2.0922,2.0955,2.0975,2.1062,2.108,2.1073,2.104,2.0873,2.0688,2.0452,2.045,2.0187,1.935,1.8645,1.8094,1.7096,1.5402,1.4275,1.3465,1.3013,1.2964,1.3198,1.3132,3.2684,3.2684,3.2684,3.2684,3.2684,3.2684,3.2684,3.2684,3.2684,3.2684,3.2473,3.17,3.0869,3.0207,2.7808,2.636,2.5423,2.4038,2.3417,2.3168,2.3106,2.3106,2.3106,2.3106,2.3106,2.3106,2.3106,2.3106,2.3106,2.3106,2.3106,2.3106,2.3106,2.3106,2.3106,2.3121,2.3907,2.5363,2.6437,2.784,2.8749,2.7962,2.7172,2.6754,2.4673,2.3405,2.3288,2.3267,2.323,2.3208,2.3163,2.3141,2.3164,2.3179,2.3245,2.3303,2.3515,2.3647,2.3676,2.3883,2.4088,2.4099,2.413,2.4143,2.4043,2.3815,2.3624,2.3631,2.3255,2.2833,2.2613,2.2295,2.2146,2.2054,2.1843,2.1553,2.1283,2.116,2.1349,2.1797,2.1692,2.1749,2.1793,2.1749,2.1542,2.1529,2.1348,2.1149,2.1087,2.1087,2.1087,2.106,2.1046,2.1066,2.1073,2.108,2.1087,2.1087,2.108,2.0986,2.0904,2.0768,2.0821,2.0561,2.0032,1.9653,1.9348,1.7907,1.6085,1.5326,1.5087,1.4083,1.326,1.3724,1.3892,3.2684,3.2684,3.2684,3.2684,3.2684,3.2684,3.2684,3.2684,3.2684,3.2684,3.2487,3.1724,3.1125,3.0577,2.8053,2.6314,2.5735,2.4185,2.3152,2.3121,2.3106,2.3106,2.3113,2.3119,2.312,2.3128,2.3113,2.3105,2.3119,2.3186,2.312,2.3142,2.3201,2.312,2.3134,2.3279,2.4324,2.6203,2.6881,2.8121,2.9496,2.8288,2.7217,2.6966,2.502,2.3989,2.3866,2.3874,2.3874,2.3831,2.3654,2.3523,2.3537,2.3706,2.3817,2.3839,2.3912,2.4,2.3991,2.4073,2.4219,2.4441,2.4413,2.4469,2.4405,2.4091,2.3927,2.3788,2.334,2.2925,2.2755,2.2745,2.2495,2.2265,2.2168,2.2058,2.1847,2.1622,2.1499,2.1419,2.1539,2.1649,2.176,2.1503,2.1426,2.1502,2.1372,2.1142,2.1087,2.1087,2.1087,2.1087,2.1087,2.1087,2.1087,2.1107,2.1133,2.1189,2.1203,2.1263,2.1174,2.1087,2.1139,2.1071,2.0884,2.0551,2.0154,1.9272,1.7576,1.7173,1.6542,1.5317,1.4469,1.4676,1.4483,3.2684,3.2684,3.2684,3.2684,3.2684,3.2684,3.2684,3.2684,3.2684,3.2684,3.2612,3.2123,3.1849,3.145,2.8783,2.722,2.632,2.4255,2.3106,2.3106,2.3113,2.3193,2.3332,2.334,2.334,2.334,2.334,2.3398,2.3515,2.3545,2.3603,2.3582,2.3552,2.3603,2.3559,2.3568,2.4604,2.6033,2.6577,2.7812,2.9713,2.8108,2.6386,2.5961,2.4751,2.4118,2.408,2.4088,2.4095,2.4095,2.4073,2.3985,2.3868,2.4016,2.4088,2.4126,2.4271,2.4219,2.4184,2.4265,2.4419,2.4563,2.4453,2.4434,2.4393,2.4197,2.401,2.388,2.3493,2.3035,2.2724,2.2647,2.2472,2.2185,2.2175,2.2165,2.2105,2.1931,2.1696,2.153,2.177,2.1934,2.1871,2.1583,2.1479,2.1645,2.1359,2.1127,2.1093,2.1093,2.1087,2.1087,2.1087,2.1087,2.1087,2.112,2.1209,2.1289,2.1399,2.1533,2.1609,2.1513,2.1452,2.1311,2.1168,2.1062,2.0605,1.9756,1.9006,1.813,1.7227,1.6236,1.5449,1.499,1.4838,3.2684,3.2684,3.2684,3.2684,3.2684,3.2684,3.2684,3.2684,3.2684,3.2684,3.2684,3.2684,3.2516,3.1979,2.9498,2.8051,2.6426,2.4694,2.3106,2.3106,2.3192,2.3273,2.3442,2.3559,2.3685,2.3669,2.3669,2.3808,2.3978,2.4111,2.397,2.4075,2.4089,2.3992,2.4067,2.4145,2.4919,2.6406,2.6715,2.7669,2.9448,2.7835,2.6183,2.4792,2.4528,2.436,2.4351,2.4337,2.4309,2.4272,2.4485,2.4426,2.428,2.4168,2.4175,2.4199,2.4358,2.4309,2.4205,2.4366,2.458,2.4578,2.4402,2.4257,2.432,2.4139,2.3908,2.3696,2.3379,2.3039,2.2552,2.2559,2.2358,2.2098,2.2078,2.2198,2.2325,2.2235,2.2071,2.1904,2.1951,2.2044,2.2087,2.1934,2.183,2.1683,2.1406,2.1203,2.1173,2.1207,2.1267,2.1323,2.137,2.1443,2.145,2.143,2.147,2.1516,2.1633,2.177,2.1907,2.1807,2.1673,2.1499,2.1349,2.1276,2.1129,2.058,1.978,1.8874,1.8508,1.8166,1.6933,1.5361,1.5383,3.2684,3.2684,3.2684,3.2684,3.2684,3.2684,3.2684,3.2684,3.2684,3.2684,3.2684,3.2684,3.2684,3.1883,2.9371,2.6644,2.4663,2.34,2.3134,2.3193,2.334,2.3464,2.3413,2.3706,2.3941,2.4014,2.4,2.402,2.4139,2.4118,2.4236,2.4155,2.4161,2.4168,2.4199,2.424,2.5321,2.7024,2.7422,2.8356,2.9211,2.8539,2.6791,2.5086,2.4814,2.4836,2.4873,2.4895,2.4924,2.491,2.4703,2.4556,2.4456,2.4441,2.4426,2.4412,2.4302,2.4206,2.4161,2.4373,2.4565,2.4644,2.4642,2.4465,2.4244,2.3976,2.3652,2.3294,2.3099,2.2935,2.285,2.2763,2.2776,2.2692,2.2652,2.2689,2.2743,2.2689,2.2549,2.2318,2.2218,2.2118,2.2154,2.2141,2.2024,2.1903,2.174,2.1566,2.1499,2.157,2.1677,2.171,2.1747,2.1827,2.1894,2.1867,2.1844,2.1857,2.1934,2.1967,2.2054,2.2001,2.1887,2.1867,2.1726,2.1606,2.1412,2.1162,2.1143,2.0672,2.047,2.0222,1.8884,1.7478,1.6998,3.2684,3.2684,3.2684,3.2684,3.2684,3.2684,3.2684,3.2684,3.2684,3.2684,3.2684,3.2684,3.2684,3.1883,2.9528,2.6411,2.4038,2.3342,2.3347,2.3413,2.3515,2.3647,2.3523,2.3817,2.3948,2.4051,2.4102,2.4293,2.4595,2.4639,2.4565,2.4631,2.4624,2.4617,2.4624,2.4696,2.572,2.7247,2.7676,2.8249,2.9363,2.8467,2.682,2.5642,2.5086,2.5093,2.508,2.4895,2.4829,2.4756,2.4521,2.4382,2.4324,2.4219,2.4175,2.4294,2.4199,2.4095,2.4102,2.4271,2.4397,2.4562,2.4503,2.4244,2.3961,2.3669,2.3311,2.3037,2.29,2.29,2.2887,2.29,2.29,2.29,2.29,2.29,2.29,2.29,2.2783,2.2645,2.2585,2.2462,2.2265,2.2225,2.2148,2.2081,2.2034,2.195,2.1836,2.193,2.2041,2.2021,2.2021,2.2054,2.2151,2.2141,2.2181,2.2214,2.2218,2.2268,2.2342,2.2348,2.2422,2.2462,2.2275,2.1967,2.1818,2.1641,2.2031,2.2211,2.1288,2.0532,2.0306,1.977,1.9021,3.2684,3.2684,3.2684,3.2684,3.2684,3.2684,3.2684,3.2684,3.2684,3.2684,3.2684,3.2684,3.2684,3.1911,2.9572,2.6571,2.3673,2.3455,2.3443,2.3457,2.3552,2.3727,2.3749,2.3853,2.3815,2.3927,2.4088,2.4366,2.4615,2.4727,2.4873,2.4822,2.4902,2.4998,2.5015,2.4778,2.5845,2.6892,2.7099,2.7702,2.8172,2.7435,2.625,2.5216,2.5027,2.4976,2.4932,2.4661,2.4587,2.4521,2.436,2.4153,2.4139,2.3897,2.3846,2.4044,2.4044,2.4029,2.411,2.4219,2.4404,2.4571,2.4135,2.4004,2.3749,2.3447,2.2934,2.29,2.29,2.29,2.29,2.29,2.29,2.29,2.29,2.29,2.29,2.29,2.29,2.2836,2.29,2.2769,2.2532,2.2505,2.2475,2.2459,2.2412,2.2238,2.2168,2.2248,2.2328,2.2288,2.2268,2.2268,2.2308,2.2372,2.2422,2.2515,2.2535,2.2569,2.2682,2.2783,2.2809,2.2743,2.2606,2.2308,2.2201,2.2174,2.2422,2.2264,2.1403,2.1094,2.1289,2.084,2.0022,3.2684,3.2684,3.2684,3.2684,3.2684,3.2684,3.2684,3.2684,3.2684,3.2684,3.2684,3.2655,3.2627,3.1681,2.9327,2.6205,2.4045,2.3255,2.3413,2.3597,2.3587,2.3573,2.3454,2.3837,2.3713,2.3713,2.3912,2.411,2.4241,2.4249,2.4402,2.4573,2.4468,2.4477,2.4897,2.4615,2.5693,2.7668,2.7344,2.7056,2.7188,2.6192,2.5403,2.5075,2.4814,2.4683,2.4651,2.4434,2.4338,2.4543,2.4294,2.4272,2.4417,2.4219,2.408,2.4,2.389,2.3795,2.411,2.4337,2.4536,2.4666,2.4626,2.4523,2.3911,2.3321,2.29,2.29,2.29,2.29,2.29,2.29,2.29,2.29,2.29,2.29,2.29,2.29,2.29,2.29,2.29,2.29,2.2776,2.2803,2.284,2.2813,2.2753,2.2582,2.2485,2.2555,2.2596,2.2549,2.2535,2.2535,2.2522,2.2572,2.2619,2.276,2.2763,2.2783,2.283,2.29,2.2876,2.282,2.2699,2.2666,2.2582,2.2622,2.2793,2.2578,2.2058,2.2234,2.2638,2.1907,2.0975,3.2684,3.2684,3.2684,3.2684,3.2684,3.2684,3.2684,3.2684,3.2684,3.2684,3.2655,3.2526,3.1647,3.0056,2.8334,2.6361,2.411,2.3496,2.3961,2.415,2.4003,2.3881,2.4224,2.3859,2.3406,2.3435,2.3442,2.3479,2.3618,2.3934,2.4214,2.4265,2.4175,2.4205,2.4595,2.4446,2.5945,2.7445,2.7907,2.7564,2.6861,2.5739,2.4839,2.4824,2.4498,2.4454,2.4492,2.4285,2.4294,2.4477,2.4287,2.4153,2.4265,2.419,2.4161,2.4382,2.428,2.4256,2.438,2.452,2.4683,2.471,2.4627,2.4064,2.3492,2.3116,2.29,2.29,2.29,2.29,2.29,2.29,2.29,2.29,2.29,2.29,2.29,2.29,2.29,2.29,2.29,2.29,2.29,2.2887,2.288,2.286,2.2847,2.2756,2.2709,2.2766,2.2806,2.2809,2.2803,2.2803,2.2783,2.28,2.276,2.284,2.284,2.2843,2.2856,2.29,2.29,2.29,2.2827,2.2833,2.29,2.2887,2.2867,2.288,2.2876,2.29,2.2873,2.268,2.1531,3.2684,3.2684,3.2684,3.2684,3.2684,3.2684,3.2684,3.2684,3.2684,3.2655,3.2541,3.2205,3.0572,2.8525,2.7994,2.6734,2.3877,2.3907,2.4413,2.4601,2.4294,2.4026,2.4039,2.3551,2.3149,2.3106,2.3179,2.3193,2.3287,2.3537,2.3831,2.3963,2.3817,2.3963,2.4079,2.4185,2.5079,2.6536,2.7371,2.719,2.6436,2.5386,2.4885,2.4661,2.4461,2.4337,2.4514,2.4278,2.4271,2.4477,2.4412,2.4338,2.4424,2.4509,2.4536,2.469,2.4675,2.469,2.4703,2.4761,2.4856,2.4778,2.4418,2.3833,2.3236,2.2962,2.29,2.29,2.29,2.29,2.29,2.29,2.29,2.29,2.29,2.29,2.29,2.29,2.29,2.29,2.29,2.29,2.29,2.29,2.2876,2.2893,2.29,2.29,2.2893,2.2887,2.2893,2.29,2.29,2.29,2.29,2.29,2.29,2.29,2.29,2.29,2.29,2.29,2.29,2.29,2.29,2.29,2.29,2.29,2.29,2.29,2.29,2.29,2.2858,2.2745,2.2062,3.2684,3.2684,3.2684,3.2684,3.2684,3.2684,3.2684,3.2684,3.2684,3.2545,3.2277,3.1864,3.0314,2.8382,2.8247,2.6959,2.3288,2.4456,2.4549,2.3964,2.3228,2.353,2.3687,2.3634,2.3106,2.3106,2.3106,2.3113,2.3142,2.328,2.3479,2.3567,2.3568,2.3691,2.389,2.4066,2.4176,2.5325,2.6093,2.6189,2.5648,2.5116,2.4993,2.4917,2.4727,2.458,2.4571,2.4322,2.4358,2.4666,2.4624,2.4661,2.4807,2.4868,2.4917,2.4946,2.4976,2.4976,2.4976,2.4966,2.5008,2.4858,2.4442,2.3782,2.3253,2.3013,2.2928,2.29,2.29,2.29,2.29,2.29,2.29,2.29,2.29,2.29,2.29,2.29,2.29,2.29,2.29,2.29,2.29,2.29,2.29,2.29,2.29,2.29,2.29,2.2893,2.2893,2.29,2.29,2.29,2.29,2.29,2.29,2.29,2.29,2.29,2.29,2.29,2.29,2.29,2.29,2.29,2.29,2.29,2.29,2.29,2.29,2.29,2.2688,2.2442,2.1749,3.2425,3.2684,3.2684,3.2684,3.2684,3.2684,3.2684,3.2684,3.2684,3.2426,3.2004,3.1907,3.027,2.8352,2.8474,2.7213,2.3945,2.458,2.5114,2.5006,2.437,2.4216,2.4332,2.3884,2.3106,2.3106,2.3097,2.3245,2.3406,2.3353,2.3603,2.3706,2.3597,2.3736,2.3945,2.4383,2.4679,2.483,2.5576,2.5895,2.5204,2.4873,2.4793,2.478,2.4477,2.4573,2.4778,2.4573,2.4754,2.4949,2.4961,2.4998,2.5056,2.5086,2.5093,2.5093,2.5093,2.5093,2.5093,2.5042,2.4916,2.4418,2.4112,2.3754,2.3218,2.2962,2.29,2.29,2.29,2.29,2.29,2.29,2.29,2.29,2.29,2.29,2.29,2.29,2.29,2.29,2.29,2.29,2.29,2.29,2.29,2.29,2.29,2.29,2.29,2.29,2.29,2.29,2.29,2.29,2.29,2.29,2.29,2.29,2.29,2.29,2.29,2.29,2.29,2.29,2.29,2.29,2.29,2.29,2.29,2.29,2.29,2.29,2.2602,2.2269,2.1669,3.2188,3.2502,3.2646,3.2684,3.2684,3.2684,3.2684,3.2684,3.2684,3.244,3.1946,3.1917,3.0514,2.8718,2.9033,2.77,2.527,2.5221,2.597,2.5469,2.4533,2.4656,2.4963,2.4494,2.3106,2.3106,2.3135,2.3275,2.3552,2.3588,2.3845,2.4027,2.4044,2.408,2.4225,2.4855,2.5258,2.5233,2.542,2.5779,2.5048,2.4902,2.4785,2.4785,2.4602,2.4747,2.5003,2.4944,2.501,2.5191,2.5244,2.51,2.5093,2.5093,2.5093,2.5093,2.5093,2.5093,2.5093,2.5042,2.4764,2.4214,2.4044,2.3601,2.3123,2.29,2.29,2.29,2.29,2.29,2.29,2.29,2.29,2.29,2.29,2.29,2.29,2.29,2.29,2.29,2.29,2.29,2.29,2.29,2.29,2.29,2.29,2.29,2.29,2.29,2.29,2.29,2.29,2.29,2.29,2.29,2.29,2.29,2.29,2.29,2.29,2.29,2.29,2.29,2.29,2.29,2.29,2.29,2.29,2.29,2.29,2.29,2.2825,2.2533,2.216,3.2002,3.2064,3.2522,3.2684,3.2684,3.2684,3.2684,3.2684,3.2684,3.2541,3.2176,3.1715,3.0689,2.96,3.0143,2.8448,2.613,2.6334,2.6623,2.5487,2.4409,2.434,2.4324,2.3953,2.3106,2.3106,2.3142,2.3281,2.364,2.3692,2.4014,2.4417,2.4514,2.441,2.417,2.4149,2.4349,2.4597,2.4788,2.4944,2.5056,2.5044,2.5005,2.4976,2.4946,2.5076,2.5257,2.5152,2.5193,2.5378,2.5237,2.5091,2.5093,2.5093,2.5093,2.5093,2.5093,2.5093,2.5093,2.5093,2.473,2.4197,2.4061,2.3669,2.3123,2.2917,2.29,2.29,2.29,2.29,2.29,2.29,2.29,2.2936,2.2943,2.2936,2.2943,2.29,2.29,2.29,2.29,2.29,2.29,2.29,2.29,2.29,2.29,2.29,2.29,2.29,2.29,2.29,2.29,2.29,2.29,2.29,2.29,2.29,2.29,2.29,2.29,2.29,2.29,2.29,2.29,2.29,2.29,2.29,2.29,2.29,2.29,2.29,2.29,2.2808,2.2458,3.1747,3.2029,3.2512,3.2684,3.2684,3.2684,3.2684,3.2684,3.2669,3.2541,3.2244,3.1802,3.0762,3.0109,3.0123,2.9253,2.7119,2.7598,2.7568,2.6301,2.4941,2.4795,2.4641,2.3938,2.3137,2.3106,2.3127,2.3427,2.3948,2.3934,2.4331,2.4771,2.4873,2.489,2.4793,2.4763,2.4858,2.4917,2.4973,2.5007,2.5078,2.5093,2.5093,2.5093,2.5093,2.523,2.5459,2.5237,2.5252,2.5412,2.5227,2.5091,2.5093,2.5093,2.5093,2.5093,2.5093,2.5093,2.5093,2.5059,2.4873,2.4466,2.4078,2.3771,2.3311,2.302,2.2934,2.2896,2.2923,2.2916,2.29,2.2907,2.293,2.308,2.3113,2.3086,2.3053,2.2943,2.29,2.29,2.29,2.29,2.2907,2.29,2.29,2.29,2.29,2.29,2.29,2.29,2.29,2.29,2.29,2.29,2.29,2.29,2.29,2.29,2.29,2.29,2.29,2.29,2.29,2.29,2.29,2.29,2.29,2.29,2.29,2.29,2.29,2.29,2.29,2.29,2.2791,3.1415,3.1819,3.2274,3.2564,3.2673,3.2684,3.2684,3.2669,3.2598,3.2469,3.2244,3.1816,3.1131,3.048,3.0382,2.9898,2.787,2.8415,2.8718,2.7411,2.5798,2.5569,2.514,2.4,2.323,2.3128,2.3265,2.3574,2.4066,2.4212,2.4565,2.4939,2.5093,2.5042,2.5042,2.5042,2.5049,2.5056,2.5056,2.5064,2.5093,2.5093,2.5093,2.5093,2.513,2.5222,2.5352,2.5322,2.5208,2.5337,2.5271,2.51,2.5093,2.5093,2.5093,2.5093,2.5093,2.5093,2.5093,2.5093,2.4984,2.4911,2.4377,2.3902,2.3547,2.3173,2.3048,2.301,2.303,2.3043,2.305,2.305,2.3224,2.338,2.338,2.3354,2.3347,2.3251,2.3215,2.3181,2.3023,2.2997,2.2934,2.29,2.29,2.29,2.29,2.289,2.2896,2.29,2.29,2.29,2.29,2.29,2.29,2.29,2.29,2.29,2.29,2.29,2.29,2.29,2.29,2.29,2.29,2.29,2.29,2.2883,2.291,2.2903,2.29,2.29,2.29,2.2883,2.2883,3.097,3.1415,3.1833,3.2284,3.2611,3.2663,3.2684,3.2669,3.243,3.232,3.2258,3.1614,3.1194,3.1179,3.102,3.0186,2.9205,2.9137,2.8742,2.8062,2.6323,2.6216,2.5385,2.417,2.3324,2.32,2.3382,2.3676,2.4102,2.4454,2.4807,2.5012,2.5093,2.5093,2.5093,2.5093,2.5093,2.5093,2.5093,2.5093,2.5093,2.5093,2.5093,2.5093,2.5115,2.5215,2.5279,2.5244,2.5266,2.5296,2.523,2.5127,2.5093,2.5093,2.5093,2.5093,2.5093,2.5093,2.51,2.5108,2.5235,2.5185,2.4567,2.4149,2.3832,2.3479,2.3276,2.328,2.3316,2.3323,2.3329,2.3525,2.3703,2.375,2.375,2.3763,2.3765,2.3725,2.371,2.3578,2.3336,2.3209,2.305,2.2977,2.297,2.3023,2.3037,2.303,2.301,2.2914,2.2907,2.29,2.29,2.29,2.29,2.29,2.29,2.29,2.29,2.29,2.29,2.291,2.2943,2.2943,2.2896,2.29,2.29,2.2916,2.2963,2.2963,2.305,2.2967,2.2987,2.2879,2.2725,3.0787,3.097,3.1698,3.2074,3.2239,3.2564,3.2684,3.2655,3.2416,3.2287,3.2248,3.16,3.131,3.1281,3.1034,3.0631,3.0431,3.0054,2.8903,2.784,2.6778,2.5584,2.4502,2.3596,2.3137,2.3207,2.3442,2.3809,2.4161,2.4617,2.4939,2.5071,2.5093,2.5093,2.5093,2.5093,2.5093,2.5093,2.5093,2.5093,2.5093,2.5093,2.5093,2.5093,2.5093,2.5171,2.5164,2.5157,2.5171,2.5149,2.5135,2.5093,2.5093,2.5093,2.5093,2.5093,2.5093,2.51,2.5146,2.5288,2.5461,2.5484,2.4985,2.475,2.442,2.3999,2.3567,2.3581,2.3603,2.3603,2.3661,2.3826,2.3986,2.4053,2.4033,2.4006,2.4013,2.3946,2.3906,2.3739,2.3521,2.3343,2.3173,2.308,2.3086,2.316,2.3187,2.316,2.312,2.303,2.292,2.2907,2.295,2.297,2.2896,2.29,2.29,2.29,2.2923,2.2939,2.2936,2.2969,2.303,2.3074,2.3094,2.3007,2.29,2.2983,2.3197,2.3297,2.3371,2.3191,2.3067,2.305,2.2996,3.0546,3.075,3.1254,3.1674,3.2067,3.2498,3.2684,3.2641,3.2416,3.2244,3.2032,3.1542,3.1247,3.1102,3.0976,3.0874,3.0859,3.0674,2.9765,2.8349,2.7125,2.5821,2.4433,2.3324,2.3121,2.3245,2.353,2.3927,2.4256,2.4719,2.5093,2.5086,2.5093,2.5093,2.5093,2.5093,2.5093,2.5093,2.5093,2.5093,2.5093,2.5093,2.5093,2.5093,2.5093,2.5093,2.5093,2.5093,2.5093,2.5093,2.5093,2.5093,2.5093,2.5093,2.5093,2.5098,2.523,2.5266,2.534,2.5571,2.574,2.5758,2.5537,2.5338,2.4823,2.4313,2.4024,2.3886,2.3875,2.3901,2.3975,2.4062,2.4209,2.4331,2.4282,2.4215,2.4148,2.4075,2.3959,2.3823,2.3645,2.3456,2.3329,2.3229,2.3136,2.3113,2.3166,2.3249,2.3223,2.318,2.3023,2.2903,2.3003,2.3077,2.299,2.2923,2.2957,2.3017,2.31,2.3102,2.3048,2.3178,2.3395,2.3399,2.3328,2.3261,2.3228,2.3351,2.3531,2.3594,2.3645,2.3525,2.3442,2.3429,2.3367,3.0256,3.0639,3.0667,3.1257,3.2002,3.2436,3.2632,3.2669,3.2459,3.2119,3.1812,3.1465,3.116,3.0981,3.0928,3.0913,3.0757,3.0572,2.9638,2.8623,2.7071,2.566,2.4471,2.3744,2.3273,2.3369,2.3707,2.4117,2.4368,2.4771,2.5093,2.5093,2.5093,2.5093,2.5093,2.5093,2.5093,2.5093,2.5093,2.5093,2.5093,2.5093,2.5093,2.5093,2.5093,2.5093,2.5093,2.5093,2.5093,2.5093,2.5093,2.5093,2.5093,2.5149,2.5149,2.5252,2.5425,2.5535,2.5652,2.5854,2.6132,2.6215,2.6157,2.5857,2.5303,2.4679,2.4379,2.4211,2.4184,2.4184,2.4237,2.4311,2.4431,2.4484,2.4451,2.4417,2.4384,2.4249,2.4015,2.3846,2.3618,2.346,2.3336,2.3229,2.3189,2.311,2.3126,2.3258,2.3312,2.3303,2.3193,2.301,2.308,2.3153,2.3063,2.3023,2.3053,2.3133,2.3253,2.3308,2.3285,2.3531,2.3832,2.3747,2.3643,2.3676,2.3696,2.3765,2.3799,2.3839,2.3859,2.3857,2.381,2.3743,2.3632,3.0056,3.0214,3.0556,3.1192,3.195,3.2115,3.2388,3.2673,3.2651,3.2311,3.1802,3.1469,3.1175,3.0976,3.0947,3.0932,3.0786,2.9956,2.8686,2.7501,2.6277,2.5132,2.3914,2.3415,2.3245,2.356,2.3927,2.4358,2.4717,2.499,2.5093,2.5093,2.5093,2.5093,2.5093,2.5093,2.5093,2.5093,2.5093,2.5093,2.5093,2.5093,2.5093,2.5093,2.5093,2.5093,2.5093,2.5093,2.5093,2.5093,2.5093,2.5093,2.5093,2.5286,2.5396,2.5476,2.57,2.5829,2.5971,2.6186,2.6435,2.6433,2.633,2.6093,2.5695,2.5109,2.4718,2.4572,2.4466,2.4459,2.4479,2.4546,2.4592,2.4592,2.4586,2.4586,2.4579,2.4317,2.4062,2.3814,2.3574,2.3447,2.3323,2.3249,2.324,2.3233,2.3236,2.3312,2.3409,2.3423,2.34,2.326,2.3229,2.3243,2.3146,2.313,2.3166,2.3256,2.3383,2.3453,2.354,2.3878,2.4179,2.4051,2.3966,2.3986,2.4006,2.4015,2.4048,2.4082,2.4088,2.41,2.3999,2.3926,2.3812,2.9994,3.0056,3.0504,3.1105,3.1688,3.1922,3.226,3.2632,3.2684,3.2455,3.2047,3.1812,3.1508,3.1141,3.1083,3.0908,3.0631,2.951,2.8349,2.6998,2.5569,2.4433,2.3626,2.3229,2.3398,2.3676,2.4132,2.4578,2.501,2.5093,2.5093,2.5093,2.5093,2.5093,2.5093,2.5093,2.5093,2.5093,2.5093,2.5093,2.5093,2.5093,2.5093,2.5093,2.5093,2.5093,2.5093,2.5093,2.5093,2.5142,2.5215,2.541,2.5498,2.5656,2.5715,2.5817,2.6,2.6219,2.6332,2.6486,2.6691,2.667,2.6478,2.6225,2.5822,2.5242,2.4865,2.4693,2.4564,2.4539,2.4539,2.4586,2.4592,2.4592,2.4539,2.4506,2.4311,2.4028,2.3788,2.355,2.3403,2.3369,2.3243,2.31,2.3097,2.3086,2.3136,2.3252,2.3376,2.3476,2.348,2.3454,2.3365,2.3319,2.3243,2.3229,2.3263,2.3389,2.357,2.3814,2.4058,2.4329,2.4525,2.4345,2.4249,2.4269,2.4282,2.4264,2.4317,2.4371,2.4357,2.4337,2.4209,2.4015,2.3875,2.9994,3.0056,3.0432,3.0867,3.1346,3.174,3.2171,3.2553,3.2653,3.2545,3.2287,3.2258,3.1888,3.1498,3.1247,3.0957,3.026,2.8885,2.7787,2.6544,2.5271,2.4184,2.3633,2.3419,2.3632,2.3963,2.4402,2.4725,2.5078,2.5093,2.5093,2.5093,2.5093,2.5093,2.5093,2.5093,2.5093,2.5093,2.5093,2.5093,2.5093,2.5093,2.5093,2.5093,2.5093,2.5093,2.5093,2.5127,2.5127,2.5274,2.5432,2.5634,2.5839,2.5978,2.6061,2.6157,2.6366,2.653,2.6625,2.6786,2.6921,2.6903,2.6619,2.6264,2.5855,2.5469,2.509,2.4784,2.4655,2.4592,2.4592,2.4592,2.4592,2.4552,2.4486,2.4306,2.4022,2.3752,2.3527,2.3285,2.3232,2.3218,2.3129,2.2997,2.297,2.297,2.302,2.3142,2.3258,2.3383,2.3429,2.3429,2.3403,2.3345,2.3352,2.3403,2.3454,2.3701,2.3921,2.425,2.4501,2.4551,2.4593,2.4581,2.4524,2.4464,2.4484,2.4497,2.4564,2.4564,2.4315,2.4162,2.4068,2.3901,2.3841,2.9994,3.0005,3.0098,3.0424,3.0877,3.1322,3.174,3.2146,3.2529,3.2555,3.2344,3.2234,3.1932,3.1296,3.1054,3.0533,2.9442,2.8167,2.6739,2.5394,2.4355,2.3737,2.3558,2.3676,2.3963,2.4353,2.4734,2.4976,2.5093,2.5093,2.5093,2.5093,2.5093,2.5093,2.5093,2.5093,2.5093,2.5093,2.5093,2.5093,2.5093,2.5093,2.5093,2.5093,2.5093,2.5093,2.5127,2.5332,2.5403,2.5535,2.574,2.5927,2.6117,2.6303,2.6383,2.6457,2.6691,2.6786,2.6906,2.695,2.7009,2.6991,2.6692,2.6374,2.599,2.5635,2.5201,2.471,2.4592,2.4592,2.4592,2.4592,2.4586,2.4491,2.4404,2.399,2.3634,2.3454,2.328,2.312,2.3006,2.2999,2.3003,2.291,2.291,2.2916,2.2916,2.302,2.3053,2.3213,2.3369,2.3369,2.3363,2.3561,2.3627,2.3634,2.3725,2.3986,2.4195,2.4384,2.4506,2.4578,2.4586,2.4592,2.4592,2.4552,2.4592,2.4592,2.4552,2.4484,2.4095,2.3886,2.3828,2.3821,2.3781]}]]